[[{"header":{"parameterUnit":"m.s-1","parameterCategory":1,"la1":30.6,"la2":28.766,"lo1":-90.7593,"lo2":-88.6598,"dy":0.0162,"dx":0.0183,"nx":116,"ny":114,"refTime":"2023-08-18T12:00:00:Z","depth":0,"parameterNumber":2,"parameterNumberName":"U-component_of_WINDS"},"data":[0.0,0.0,0.0,0.0,0.0,0.0,0.0,0.0,0.0,0.0,0.0,0.0,0.0,0.0,0.0,0.0,0.0,0.0,0.0,0.0,0.0,0.0,0.0,0.0,0.0,0.0,0.0,0.0,0.0,0.0,0.0,0.0,0.0,0.0,0.0,0.0,0.0,0.0,0.0,0.0,0.0,0.0,0.0,0.0,0.0,0.0,0.0,0.0,0.0,0.0,0.0,0.0,0.0,0.0,0.0,0.0,0.0,0.0,0.0,0.0,0.0,0.0,0.0,0.0,0.0,0.0,0.0,0.0,0.0,0.0,0.0,0.0,0.0,0.0,0.0,0.0,0.0,0.0,0.0,0.0,0.0,0.0,0.0,0.0,0.0,0.0,0.0,0.0,0.0,0.0,0.0,0.0,0.0,0.0,0.0,0.0,0.0,0.0,0.0,0.0,0.0,0.0,0.0,0.0,0.0,0.0,0.0,0.0,0.0,0.0,0.0,0.0,0.0,0.0,0.0,0.0,0.0,0.0,0.0,0.0,0.0,0.0,0.0,0.0,0.0,0.0,0.0,0.0,0.0,0.0,0.0,0.0,0.0,0.0,0.0,0.0,0.0,0.0,0.0,0.0,0.0,0.0,0.0,0.0,0.0,0.0,0.0,0.0,0.0,0.0,0.0,0.0,0.0,0.0,0.0,0.0,0.0,0.0,0.0,0.0,0.0,0.0,0.0,0.0,0.0,0.0,0.0,0.0,0.0,0.0,0.0,0.0,0.0,0.0,0.0,0.0,0.0,0.0,0.0,0.0,0.0,0.0,0.0,0.0,0.0,0.0,0.0,0.0,0.0,0.0,0.0,0.0,0.0,0.0,0.0,0.0,0.0,0.0,0.0,0.0,0.0,0.0,0.0,0.0,0.0,0.0,0.0,0.0,0.0,0.0,0.0,0.0,0.0,0.0,0.0,0.0,0.0,0.0,0.0,0.0,0.0,0.0,0.0,0.0,0.0,0.0,0.0,0.0,0.0,0.0,0.0,0.0,0.0,0.0,0.0,0.0,0.0,0.0,0.0,0.0,0.0,0.0,0.0,0.0,0.0,0.0,0.0,0.0,0.0,0.0,0.0,0.0,0.0,0.0,0.0,0.0,0.0,0.0,0.0,0.0,0.0,0.0,0.0,0.0,0.0,0.0,0.0,0.0,0.0,0.0,0.0,0.0,0.0,0.0,0.0,0.0,0.0,0.0,0.0,0.0,0.0,0.0,0.0,0.0,0.0,0.0,0.0,0.0,0.0,0.0,0.0,0.0,0.0,0.0,0.0,0.0,0.0,0.0,0.0,0.0,0.0,0.0,0.0,0.0,0.0,0.0,0.0,0.0,0.0,0.0,0.0,0.0,0.0,0.0,0.0,0.0,0.0,0.0,0.0,0.0,0.0,0.0,0.0,0.0,0.0,0.0,0.0,0.0,0.0,0.0,0.0,0.0,0.0,0.0,0.0,0.0,0.0,0.0,0.0,0.0,0.0,0.0,0.0,0.0,0.0,0.0,0.0,0.0,0.0,0.0,0.0,0.0,0.0,0.0,0.0,0.0,0.0,0.0,0.0,0.0,0.0,0.0,0.0,0.0,0.0,0.0,0.0,0.0,0.0,0.0,0.0,0.0,0.0,0.0,0.0,0.0,0.0,0.0,0.0,0.0,0.0,0.0,0.0,0.0,0.0,0.0,0.0,0.0,0.0,0.0,0.0,0.0,0.0,0.0,0.0,0.0,0.0,0.0,0.0,0.0,0.0,0.0,0.0,0.0,0.0,0.0,0.0,0.0,0.0,0.0,0.0,0.0,0.0,0.0,0.0,0.0,0.0,0.0,0.0,0.0,0.0,0.0,0.0,0.0,0.0,0.0,0.0,0.0,0.0,0.0,0.0,0.0,0.0,0.0,0.0,0.0,0.0,0.0,0.0,0.0,0.0,0.0,0.0,0.0,0.0,0.0,0.0,0.0,0.0,0.0,0.0,0.0,0.0,0.0,0.0,0.0,0.0,0.0,0.0,0.0,0.0,0.0,0.0,0.0,0.0,0.0,0.0,0.0,0.0,0.0,0.0,0.0,0.0,0.0,0.0,0.0,0.0,0.0,0.0,0.0,0.0,0.0,0.0,0.0,0.0,0.0,0.0,0.0,0.0,0.0,0.0,0.0,0.0,0.0,0.0,0.0,0.0,0.0,0.0,0.0,0.0,0.0,0.0,0.0,0.0,0.0,0.0,0.0,0.0,0.0,0.0,0.0,0.0,0.0,0.0,0.0,0.0,0.0,0.0,0.0,0.0,0.0,0.0,0.0,0.0,0.0,0.0,0.0,0.0,0.0,0.0,0.0,0.0,0.0,0.0,0.0,0.0,0.0,0.0,0.0,0.0,0.0,0.0,0.0,0.0,0.0,0.0,0.0,0.0,0.0,0.0,0.0,0.0,0.0,0.0,0.0,0.0,0.0,0.0,0.0,0.0,0.0,0.0,0.0,0.0,0.0,0.0,0.0,0.0,0.0,0.0,0.0,0.0,0.0,0.0,0.0,0.0,0.0,0.0,0.0,0.0,0.0,0.0,0.0,0.0,0.0,0.0,0.0,0.0,0.0,0.0,0.0,0.0,0.0,0.0,0.0,0.0,0.0,0.0,0.0,0.0,0.0,0.0,0.0,0.0,0.0,0.0,0.0,0.0,0.0,0.0,0.0,0.0,0.0,0.0,0.0,0.0,0.0,0.0,0.0,0.0,0.0,0.0,0.0,0.0,0.0,0.0,0.0,0.0,0.0,0.0,0.0,0.0,0.0,0.0,0.0,0.0,0.0,0.0,0.0,0.0,0.0,0.0,0.0,0.0,0.0,0.0,0.0,0.0,0.0,0.0,0.0,0.0,0.0,0.0,0.0,0.0,0.0,0.0,0.0,0.0,0.0,0.0,0.0,0.0,0.0,0.0,0.0,0.0,0.0,0.0,0.0,0.0,0.0,0.0,0.0,0.0,0.0,0.0,0.0,0.0,0.0,0.0,0.0,0.0,0.0,0.0,0.0,0.0,0.0,0.0,0.0,0.0,0.0,0.0,0.0,0.0,0.0,0.0,0.0,0.0,0.0,0.0,0.0,0.0,0.0,0.0,0.0,0.0,0.0,0.0,0.0,0.0,0.0,0.0,0.0,0.0,0.0,0.0,0.0,0.0,0.0,0.0,0.0,0.0,0.0,0.0,0.0,0.0,0.0,0.0,0.0,0.0,0.0,0.0,0.0,0.0,0.0,0.0,0.0,0.0,0.0,0.0,0.0,0.0,0.0,0.0,0.0,0.0,0.0,0.0,0.0,0.0,0.0,0.0,0.0,0.0,0.0,0.0,0.0,0.0,0.0,0.0,0.0,0.0,0.0,0.0,0.0,0.0,0.0,0.0,0.0,0.0,0.0,0.0,0.0,0.0,0.0,0.0,0.0,0.0,0.0,0.0,0.0,0.0,0.0,0.0,0.0,0.0,0.0,0.0,0.0,0.0,0.0,0.0,0.0,0.0,0.0,0.0,0.0,0.0,0.0,0.0,0.0,0.0,0.0,0.0,0.0,0.0,0.0,0.0,0.0,0.0,0.0,0.0,0.0,0.0,0.0,0.0,0.0,0.0,0.0,0.0,0.0,0.0,0.0,0.0,0.0,0.0,0.0,0.0,0.0,0.0,0.0,0.0,0.0,0.0,0.0,0.0,0.0,0.0,0.0,0.0,0.0,0.0,0.0,0.0,0.0,0.0,0.0,0.0,0.0,0.0,0.0,0.0,0.0,0.0,0.0,0.0,0.0,0.0,0.0,0.0,0.0,0.0,0.0,0.0,0.0,0.0,0.0,0.0,0.0,0.0,0.0,0.0,0.0,0.0,0.0,0.0,0.0,0.0,0.0,0.0,0.0,0.0,0.0,0.0,0.0,0.0,0.0,0.0,0.0,0.0,0.0,0.0,0.0,0.0,0.0,0.0,0.0,0.0,0.0,0.0,0.0,0.0,0.0,0.0,0.0,0.0,0.0,0.0,0.0,0.0,0.0,0.0,0.0,0.0,0.0,0.0,0.0,0.0,0.0,0.0,0.0,0.0,0.0,0.0,0.0,0.0,0.0,0.0,0.0,0.0,0.0,0.0,0.0,0.0,0.0,0.0,0.0,0.0,0.0,0.0,0.0,0.0,0.0,0.0,0.0,0.0,0.0,0.0,0.0,0.0,0.0,0.0,0.0,0.0,0.0,0.0,0.0,0.0,0.0,0.0,0.0,0.0,0.0,0.0,0.0,0.0,0.0,0.0,0.0,0.0,0.0,0.0,0.0,0.0,0.0,0.0,0.0,0.0,0.0,0.0,0.0,0.0,0.0,0.0,0.0,0.0,0.0,0.0,0.0,0.0,0.0,0.0,0.0,0.0,0.0,0.0,0.0,0.0,0.0,0.0,0.0,0.0,0.0,0.0,0.0,0.0,0.0,0.0,0.0,0.0,0.0,0.0,0.0,0.0,0.0,0.0,0.0,0.0,0.0,0.0,0.0,0.0,0.0,0.0,0.0,0.0,0.0,0.0,0.0,0.0,0.0,0.0,0.0,0.0,0.0,0.0,0.0,0.0,0.0,0.0,0.0,0.0,0.0,0.0,0.0,0.0,0.0,0.0,0.0,0.0,0.0,0.0,0.0,0.0,0.0,0.0,0.0,0.0,0.0,0.0,0.0,0.0,0.0,0.0,0.0,0.0,0.0,0.0,0.0,0.0,0.0,0.0,0.0,0.0,0.0,0.0,0.0,0.0,0.0,0.0,0.0,0.0,0.0,0.0,0.0,0.0,0.0,0.0,0.0,0.0,0.0,0.0,0.0,0.0,0.0,0.0,0.0,0.0,0.0,0.0,0.0,0.0,0.0,0.0,0.0,0.0,0.0,0.0,0.0,0.0,0.0,0.0,0.0,0.0,0.0,0.0,0.0,0.0,0.0,0.0,0.0,0.0,0.0,0.0,0.0,0.0,0.0,0.0,0.0,0.0,0.0,0.0,0.0,0.0,0.0,0.0,0.0,0.0,0.0,0.0,0.0,0.0,0.0,0.0,0.0,0.0,0.0,0.0,0.0,0.0,0.0,0.0,0.0,0.0,0.0,0.0,0.0,0.0,0.0,0.0,0.0,0.0,0.0,0.0,0.0,0.0,0.0,0.0,0.0,0.0,0.0,0.0,0.0,0.0,0.0,0.0,0.0,0.0,0.0,0.0,0.0,0.0,0.0,0.0,0.0,0.0,0.0,0.0,0.0,0.0,0.0,0.0,0.0,0.0,0.0,0.0,0.0,0.0,0.0,0.0,0.0,0.0,0.0,0.0,0.0,0.0,0.0,0.0,0.0,0.0,0.0,0.0,0.0,0.0,0.0,0.0,0.0,0.0,0.0,0.0,0.0,0.0,0.0,0.0,0.0,0.0,0.0,0.0,0.0,0.0,0.0,0.0,0.0,0.0,0.0,0.0,0.0,0.0,0.0,0.0,0.0,0.0,0.0,0.0,0.0,0.0,0.0,0.0,0.0,0.0,0.0,0.0,0.0,0.0,0.0,0.0,0.0,0.0,0.0,0.0,0.0,0.0,0.0,0.0,0.0,0.0,0.0,0.0,0.0,0.0,0.0,0.0,0.0,0.0,0.0,0.0,0.0,0.0,0.0,0.0,0.0,0.0,0.0,0.0,0.0,0.0,0.0,0.0,0.0,0.0,0.0,0.0,0.0,0.0,0.0,0.0,0.0,0.0,0.0,0.0,0.0,0.0,0.0,0.0,0.0,0.0,0.0,0.0,0.0,0.0,0.0,0.0,0.0,0.0,0.0,0.0,0.0,0.0,0.0,0.0,0.0,0.0,0.0,0.0,0.0,0.0,0.0,0.0,0.0,0.0,0.0,0.0,0.0,0.0,0.0,0.0,0.0,0.0,0.0,0.0,0.0,0.0,0.0,0.0,0.0,0.0,0.0,0.0,0.0,0.0,0.0,0.0,0.0,0.0,0.0,0.0,0.0,0.0,0.0,0.0,0.0,0.0,0.0,0.0,0.0,0.0,0.0,0.0,0.0,0.0,0.0,0.0,0.0,0.0,0.0,0.0,0.0,-5.1387,0.0,0.0,0.0,0.0,0.0,0.0,0.0,0.0,0.0,0.0,0.0,0.0,0.0,0.0,0.0,0.0,0.0,0.0,0.0,0.0,0.0,0.0,0.0,0.0,0.0,0.0,0.0,0.0,0.0,0.0,0.0,0.0,0.0,0.0,0.0,0.0,0.0,0.0,0.0,-4.0087,-4.0493,-4.089,-4.1338,-4.163,-4.1864,0.0,0.0,0.0,0.0,0.0,0.0,0.0,0.0,0.0,0.0,0.0,0.0,0.0,0.0,0.0,0.0,0.0,0.0,0.0,0.0,0.0,0.0,0.0,0.0,0.0,0.0,0.0,0.0,0.0,0.0,0.0,0.0,0.0,0.0,0.0,0.0,0.0,0.0,0.0,0.0,0.0,0.0,0.0,0.0,0.0,0.0,0.0,0.0,0.0,0.0,0.0,0.0,0.0,0.0,0.0,0.0,0.0,0.0,0.0,0.0,0.0,0.0,0.0,0.0,0.0,0.0,0.0,0.0,0.0,0.0,0.0,-5.1154,0.0,0.0,0.0,0.0,0.0,0.0,0.0,0.0,0.0,0.0,0.0,0.0,0.0,0.0,0.0,0.0,0.0,0.0,0.0,0.0,0.0,0.0,0.0,0.0,-3.375,-3.4824,-3.4909,0.0,0.0,0.0,0.0,0.0,0.0,0.0,0.0,-3.9017,-3.9582,-4.0305,-4.0436,-4.089,-4.1648,-4.2539,-4.2732,-4.234,-4.2865,0.0,0.0,0.0,0.0,0.0,0.0,0.0,0.0,0.0,0.0,0.0,0.0,0.0,0.0,0.0,0.0,0.0,0.0,0.0,0.0,0.0,0.0,0.0,0.0,0.0,0.0,0.0,0.0,0.0,0.0,0.0,0.0,0.0,0.0,0.0,0.0,0.0,0.0,0.0,0.0,0.0,0.0,0.0,0.0,0.0,0.0,0.0,0.0,0.0,0.0,0.0,0.0,0.0,0.0,0.0,0.0,0.0,0.0,0.0,0.0,0.0,0.0,0.0,-4.8807,-4.8807,-4.8807,-4.8792,-4.8798,-4.8876,-5.0321,-5.0535,-4.9928,0.0,0.0,0.0,0.0,0.0,0.0,0.0,0.0,0.0,0.0,0.0,0.0,0.0,0.0,0.0,0.0,0.0,0.0,0.0,0.0,0.0,0.0,-3.329,-3.375,-3.4824,-3.4909,-3.535,0.0,0.0,0.0,0.0,0.0,0.0,-3.9259,-3.9841,-4.0188,-4.0305,-4.1007,-4.1604,-4.2115,-4.2886,-4.3087,-4.2825,-4.325,-4.3496,-4.3615,0.0,0.0,0.0,0.0,0.0,0.0,0.0,0.0,0.0,0.0,0.0,0.0,0.0,0.0,0.0,0.0,0.0,0.0,0.0,0.0,0.0,0.0,0.0,0.0,0.0,0.0,0.0,0.0,0.0,0.0,0.0,0.0,0.0,0.0,0.0,0.0,0.0,0.0,0.0,0.0,0.0,-4.4919,-4.5136,0.0,0.0,0.0,0.0,0.0,0.0,0.0,0.0,0.0,0.0,0.0,0.0,0.0,-4.8187,-4.8947,-4.8979,-4.8912,-4.8794,-4.8808,-4.8807,-4.8807,-4.8792,-4.8798,-4.8818,-4.9032,0.0,-4.8974,-4.9091,0.0,0.0,0.0,0.0,0.0,0.0,0.0,0.0,0.0,0.0,0.0,0.0,0.0,0.0,0.0,0.0,0.0,0.0,0.0,0.0,0.0,-3.3016,-3.3612,-3.4375,-3.4442,-3.4909,-3.599,0.0,0.0,0.0,0.0,-3.859,-3.948,-3.9969,-4.0468,-4.0966,-4.1583,-4.2136,-4.2614,-4.3159,-4.3458,-4.3528,-4.3697,-4.3798,-4.3828,-4.4132,0.0,0.0,0.0,0.0,0.0,0.0,0.0,0.0,0.0,0.0,0.0,0.0,0.0,0.0,0.0,0.0,0.0,0.0,0.0,0.0,0.0,0.0,0.0,0.0,0.0,0.0,0.0,0.0,0.0,0.0,0.0,0.0,0.0,0.0,0.0,0.0,0.0,0.0,0.0,-4.501,-4.5103,-4.5192,-4.5321,-4.5484,0.0,0.0,0.0,0.0,0.0,0.0,0.0,0.0,0.0,-4.7479,-4.798,-4.8416,-4.8805,-4.9293,-4.9277,-4.8808,-4.8804,-4.8796,-4.8796,-4.8804,-4.8798,-4.8798,-4.8798,-4.8784,-4.8772,-4.9223,-4.9335,-4.9262,0.0,0.0,0.0,0.0,-4.8731,-4.8586,0.0,0.0,0.0,0.0,0.0,0.0,0.0,0.0,0.0,0.0,0.0,0.0,-3.2074,-3.281,-3.3507,-3.4051,-3.4104,-3.4543,-3.5623,-3.5784,0.0,0.0,0.0,-3.8756,-3.9859,-4.0262,-4.0873,-4.167,-4.2136,-4.2596,-4.305,-4.3511,-4.3828,-4.4005,-4.4136,-4.4166,-4.4121,-4.4388,-4.465,-4.4915,0.0,0.0,0.0,0.0,0.0,0.0,0.0,0.0,0.0,0.0,0.0,0.0,0.0,0.0,0.0,0.0,0.0,0.0,0.0,0.0,0.0,0.0,0.0,0.0,0.0,0.0,0.0,0.0,0.0,0.0,0.0,0.0,0.0,0.0,0.0,0.0,0.0,-4.5114,-4.5224,-4.53,-4.5475,-4.5645,0.0,0.0,0.0,0.0,0.0,0.0,-4.6197,-4.6199,-4.6502,-4.716,-4.7808,-4.8258,-4.8473,-4.9139,-4.9232,-4.8802,-4.8807,-4.8798,-4.8798,-4.8798,-4.8798,-4.8798,-4.8798,-4.8777,-4.8769,-4.9356,-4.932,-4.8992,-4.9821,-5.0203,-5.0182,-4.9198,-4.8813,-4.8712,0.0,0.0,0.0,0.0,0.0,0.0,0.0,0.0,0.0,0.0,0.0,-3.1267,-3.2015,-3.281,-3.3507,-3.4051,-3.4104,-3.4543,-3.5623,-3.6006,-3.686,-3.8362,-3.8892,-3.9601,-4.0624,-4.1169,-4.167,-4.2157,-4.2634,-4.3069,-4.3479,-4.4084,-4.4236,-4.4017,-4.4519,-4.4612,-4.4402,-4.4663,-4.4788,-4.4843,-4.5237,0.0,0.0,0.0,0.0,0.0,0.0,0.0,0.0,0.0,0.0,0.0,0.0,0.0,0.0,0.0,0.0,0.0,0.0,0.0,0.0,0.0,0.0,0.0,0.0,0.0,0.0,0.0,0.0,0.0,0.0,0.0,0.0,0.0,0.0,0.0,0.0,0.0,0.0,-4.5554,-4.5596,0.0,0.0,0.0,0.0,-4.6096,-4.617,-4.6199,-4.6202,-4.6203,-4.6222,-4.6262,-4.6367,-4.6795,-4.7557,-4.7661,-4.8097,-4.88,-4.8798,-4.8798,-4.8798,-4.8798,-4.8798,-4.8798,-4.8798,-4.8796,-4.8792,-4.8773,-4.9043,-4.9381,-4.8631,-4.8717,-4.9189,-4.8363,-4.8015,-4.7943,0.0,0.0,0.0,0.0,0.0,0.0,0.0,0.0,0.0,-2.8922,-3.0075,-3.1007,-3.1304,-3.2525,-3.3382,-3.3577,-3.3612,-3.4031,-3.5106,-3.4882,-3.5492,-3.7263,-3.7335,-3.8125,-3.9816,-4.081,-4.1561,-4.2059,-4.2537,-4.3105,-4.3767,-4.3971,-4.4214,-4.4463,-4.4648,-4.4789,-4.4845,-4.4807,-4.4915,-4.5132,-4.5277,-4.5328,0.0,0.0,0.0,0.0,0.0,0.0,0.0,0.0,0.0,0.0,0.0,0.0,0.0,0.0,0.0,0.0,0.0,0.0,0.0,0.0,0.0,0.0,0.0,0.0,0.0,0.0,0.0,0.0,0.0,0.0,0.0,0.0,0.0,0.0,0.0,0.0,0.0,-4.5588,-4.5677,0.0,-4.588,-4.5964,-4.6036,-4.6079,-4.6153,-4.6228,-4.6269,-4.6269,-4.6269,-4.6264,-4.6824,-4.7269,-4.7562,-4.8665,-4.9343,-4.9636,-5.0204,-5.0477,-5.0477,-5.0477,-5.0421,-5.0345,-5.0345,-5.0267,-5.014,-5.0131,-4.9944,-4.9711,-4.9776,-4.9933,-5.0073,-4.9785,-4.9588,-4.9513,0.0,0.0,0.0,0.0,0.0,0.0,0.0,0.0,-2.8474,-2.851,-2.973,-3.0657,-3.0895,-3.2101,-3.3016,-3.329,-3.3094,-3.3437,-3.4486,-3.4029,-3.4501,-3.6262,-3.657,-3.7428,-3.9035,-4.0142,-4.0877,-4.1258,-4.1843,-4.2464,-4.3063,-4.3123,-4.3552,-4.4278,-4.4386,-4.4685,-4.5072,-4.485,-4.4922,-4.5224,-4.5265,-4.5275,-4.5256,0.0,0.0,0.0,0.0,0.0,0.0,0.0,0.0,0.0,0.0,0.0,0.0,0.0,0.0,0.0,0.0,0.0,0.0,0.0,0.0,0.0,0.0,0.0,0.0,0.0,0.0,0.0,0.0,0.0,0.0,0.0,0.0,0.0,0.0,0.0,-4.5621,-4.5661,-4.5757,-4.5834,-4.5886,-4.5964,-4.6026,-4.6084,-4.6152,-4.6221,-4.6303,-4.6301,-4.6296,-4.6302,-4.7159,-4.7723,-4.7998,-4.9401,-5.0241,-5.0553,-5.1121,-5.1394,-5.1394,-5.1357,-5.1288,-5.1199,-5.115,-5.1056,-5.093,-5.0917,-5.0606,-5.0215,-5.0563,-5.0663,-5.0633,-5.0633,-5.0562,-5.0435,0.0,0.0,0.0,0.0,0.0,0.0,0.0,-2.781,-2.7983,-2.8419,-2.9355,-3.0215,-3.082,-3.1599,-3.2426,-3.3178,-3.275,-3.2844,-3.3824,-3.3553,-3.4026,-3.5525,-3.6768,-3.7729,-3.8345,-3.9241,-3.9726,-3.9789,-4.0598,-4.1142,-4.1415,-4.1609,-4.2302,-4.3372,-4.3696,-4.4273,-4.4985,-4.4657,-4.4682,-4.5004,-4.5129,-4.517,-4.5181,0.0,0.0,0.0,0.0,0.0,0.0,0.0,0.0,0.0,0.0,0.0,0.0,0.0,0.0,0.0,0.0,0.0,0.0,0.0,0.0,0.0,0.0,0.0,0.0,0.0,0.0,0.0,0.0,0.0,0.0,0.0,0.0,0.0,-4.54,-4.5519,-4.5653,-4.5773,-4.5807,-4.5834,-4.588,-4.5964,-4.6028,-4.6099,-4.6158,-4.623,-4.6303,-4.6339,-4.6339,-4.6339,-4.7178,-4.8017,-4.8798,-4.9655,-5.0514,-5.1355,-5.1373,-5.1392,-5.139,-5.1255,-5.1195,-5.1191,-5.1047,-5.0996,-5.0984,-5.0889,-5.0848,-5.0832,-5.0749,-5.0712,-5.0712,-5.0702,-5.0613,-5.0478,0.0,0.0,0.0,0.0,0.0,0.0,0.0,-2.7597,-2.7943,-2.7805,-2.9069,-2.9986,-3.0037,-3.1267,-3.2019,-3.1787,-3.2249,-3.2829,-3.349,-3.3096,-3.3493,-3.4955,-3.5902,-3.6791,-3.7585,-3.8793,-3.9509,-3.9726,-4.0526,-4.1201,-4.1683,-4.1754,-4.2098,-4.2664,-4.256,-4.2655,-4.2831,-4.25,-4.2417,-4.2594,-4.389,-4.4465,-4.4538,0.0,0.0,0.0,0.0,0.0,0.0,0.0,0.0,0.0,0.0,0.0,0.0,0.0,0.0,0.0,0.0,0.0,0.0,0.0,0.0,0.0,0.0,0.0,0.0,0.0,0.0,0.0,0.0,0.0,0.0,0.0,0.0,-4.54,-4.54,-4.5605,-4.5771,-4.58,-4.5807,-4.5814,-4.5834,-4.5922,-4.6025,-4.6097,-4.6201,-4.6288,-4.6303,-4.6905,-4.7237,-4.7237,-4.8037,-4.8584,-4.8798,-4.9655,-5.0221,-5.0455,-5.1004,-5.1255,-5.1252,-5.1123,-5.1027,-5.0978,-5.0937,-5.0867,-5.0724,-5.0082,-4.9805,-4.9863,-5.0462,-5.0712,-5.0683,-5.0643,-5.0532,-5.0424,0.0,0.0,0.0,0.0,0.0,0.0,0.0,-2.6864,-2.7069,-2.6969,-2.8279,-2.9174,-2.9162,-3.0211,-3.0838,-3.0757,-3.1124,-3.1584,-3.2113,-3.2273,-3.2946,-3.4276,-3.4915,-3.5654,-3.657,-3.7638,-3.8397,-3.8784,-3.939,-4.001,-4.0617,-4.0541,-4.0891,-4.1538,-4.137,-4.1491,-4.1763,-4.1427,-4.1197,-4.1127,-4.2002,-4.2915,-4.3793,-4.4158,-4.4233,-4.4162,-4.4035,-4.4013,-4.4015,-4.3894,0.0,0.0,0.0,0.0,0.0,0.0,0.0,0.0,0.0,0.0,0.0,0.0,0.0,0.0,0.0,0.0,0.0,0.0,0.0,0.0,0.0,0.0,0.0,0.0,-4.5301,-4.5429,-4.5475,-4.5669,-4.5807,-4.5807,-4.5807,-4.5807,-4.5807,-4.5902,-4.5996,-4.6084,-4.6173,-4.6406,-4.6829,-4.7313,-4.7742,-4.8096,-4.8915,-4.9345,-4.9345,-5.0202,-5.0631,-5.0651,-5.1025,-5.1203,-5.1199,-5.1027,-5.0937,0.0,-5.0833,-5.0776,-5.0654,-5.0144,-4.9721,0.0,0.0,0.0,0.0,0.0,-4.9435,-4.933,0.0,0.0,0.0,0.0,0.0,0.0,0.0,-2.5883,-2.5955,-2.6102,-2.7203,-2.7999,-2.8191,-2.8745,-2.9272,-2.9759,-2.9711,-2.9835,-3.0351,-3.1368,-3.248,-3.3626,-3.3944,-3.4568,-3.56,-3.6295,-3.6906,-3.7505,-3.7844,-3.8348,-3.9003,-3.8807,-3.9264,-4.0253,-4.0155,-4.0484,-4.1071,-4.0751,-4.037,-3.9986,-3.9779,-4.0869,-4.2672,-4.3472,-4.3553,-4.3225,-4.3042,-4.2936,-4.2861,-4.265,0.0,0.0,0.0,0.0,0.0,0.0,0.0,0.0,0.0,0.0,0.0,0.0,0.0,0.0,0.0,0.0,0.0,0.0,0.0,0.0,0.0,0.0,0.0,0.0,-4.5351,-4.5465,-4.5605,-4.5723,-4.5807,-4.5807,-4.5807,-4.5807,-4.5807,-4.588,-4.5954,-4.6098,-4.6193,-4.6657,-4.7553,0.0,0.0,0.0,0.0,-5.0241,-5.0241,-5.1004,-5.1394,-5.1394,-5.1258,-5.1195,-5.1163,-5.0985,-5.0887,-5.0874,-5.0749,-5.0712,-5.0693,-5.0596,-4.9971,-4.9038,-4.8356,-4.8097,-4.8077,-4.8,-4.7947,-4.7875,0.0,0.0,0.0,0.0,0.0,0.0,0.0,-2.5474,-2.6185,-2.5695,-2.6453,-2.6987,-2.6876,-2.7789,-2.825,-2.7891,-2.8747,-2.9558,-3.0183,-3.1175,-3.2293,-3.3473,-3.3453,-3.4137,-3.5739,-3.6109,-3.6691,-3.7505,-3.7879,-3.8412,-3.9003,-3.8902,-3.9067,-3.942,-3.9076,-3.8826,-3.8644,-3.8327,-3.7934,-3.763,-3.8203,-3.911,-4.0138,-4.0394,-4.0487,-4.0522,-4.084,-4.0956,-4.1047,-4.1688,-4.1945,-4.2089,-4.27,-4.2905,0.0,0.0,0.0,0.0,0.0,0.0,0.0,0.0,0.0,0.0,0.0,0.0,0.0,0.0,0.0,0.0,0.0,0.0,0.0,-4.5331,-4.5465,-4.5613,-4.5737,-4.5773,-4.5807,-4.5807,-4.5807,-4.5807,-4.5807,-4.5917,-4.6008,-4.6086,-4.6807,-4.7343,-4.7599,-4.8878,-4.9694,-4.9831,-5.0692,-5.116,-5.116,-5.1316,-5.1394,-5.1394,0.0,0.0,-5.1036,-5.0937,-5.0833,-5.075,-5.0712,-5.0712,-5.0654,-4.9933,-4.8721,-4.7367,-4.7886,-4.8068,-4.8019,-4.7938,-4.7884,-4.7829,0.0,0.0,0.0,0.0,0.0,0.0,0.0,-2.4659,-2.521,-2.4423,-2.5456,-2.6095,-2.5585,-2.6083,-2.6292,-2.5894,-2.6926,-2.8173,-2.949,-3.0376,-3.1246,-3.2173,-3.2913,-3.3761,-3.4783,-3.5587,-3.6298,-3.6943,-3.7322,-3.786,-3.8554,-3.8476,-3.8569,-3.8781,-3.8346,-3.7998,-3.7702,-3.7082,-3.6574,-3.6211,-3.6341,-3.6507,-3.6877,-3.8485,-3.9094,-3.9084,-3.9055,-3.9012,-3.902,-3.9451,-3.9611,-3.973,-4.0521,-4.0849,-4.1175,0.0,0.0,0.0,0.0,0.0,0.0,0.0,0.0,0.0,0.0,0.0,0.0,0.0,0.0,-4.4895,0.0,0.0,-4.5129,-4.5371,-4.5466,-4.5571,-4.5759,-4.5807,-4.5807,-4.5807,-4.5807,-4.5807,-4.5807,-4.5848,-4.6138,-4.6703,-4.7142,-4.7826,-4.8794,-4.9641,-5.0299,-5.0748,-5.118,-5.1394,-5.1394,-5.1394,-5.1394,-5.1394,-5.1258,-5.1132,-5.1002,-5.0923,-5.0836,-5.0712,-5.0712,-5.0712,-5.0635,-4.976,-4.8885,-4.8068,-4.7617,-4.7137,-4.6685,-4.6665,-4.6633,-4.659,0.0,0.0,0.0,0.0,0.0,0.0,0.0,0.0,-2.3983,-2.3222,-2.4283,-2.4891,-2.4292,-2.4373,-2.4392,-2.4348,-2.5373,-2.671,-2.8336,-2.9223,-2.9936,-3.0556,-3.2023,-3.3029,-3.3431,-3.4726,-3.5632,-3.6121,-3.6568,-3.7171,-3.7878,-3.7879,-3.793,-3.7978,-3.7596,-3.7248,-3.6909,-3.6153,-3.553,-3.5021,-3.4605,-3.4137,-3.3984,-3.6364,-3.7388,-3.753,-3.7172,-3.6968,-3.6854,-3.7128,-3.722,-3.7376,-3.8265,-3.8782,-3.935,-4.0608,-4.1267,0.0,0.0,0.0,0.0,0.0,0.0,0.0,0.0,0.0,-4.4266,-4.4795,-4.4895,-4.4895,-4.4895,-4.4931,-4.5049,-4.5321,-4.5391,-4.551,-4.5723,-4.5773,-4.5807,-4.5807,-4.5807,-4.5807,-4.5807,-4.5962,-4.644,-4.7324,-4.7641,-4.8475,-5.0027,-5.0269,-5.0674,-5.1375,-5.1394,-5.1394,-5.1394,-5.1394,-5.1394,-5.1394,-5.1291,-5.1163,-5.1036,-5.0965,-5.0847,-5.075,-5.0712,-5.0712,-5.0654,-4.9933,-4.9548,-4.924,-4.7674,-4.6484,-4.5659,-4.5467,-4.54,-4.5399,0.0,0.0,0.0,0.0,0.0,0.0,0.0,0.0,0.0,-2.3135,-2.2892,-2.2924,-2.3311,-2.3431,-2.3619,-2.4098,-2.5334,-2.6168,-2.6408,-2.771,-2.8762,-2.9355,-3.0244,-3.1156,-3.2081,-3.3374,-3.4373,-3.5076,-3.6002,-3.6689,-3.7118,-3.7358,-3.7174,-3.6608,-3.6519,-3.5921,-3.5011,-3.4895,-3.4349,-3.3544,-3.3467,-3.3192,-3.2754,-3.2598,-3.3277,-3.4264,-3.4629,-3.4596,-3.4589,-3.5765,-3.6161,-3.6382,-3.7593,-3.8334,-3.8751,-3.8755,0.0,-4.0076,-3.9808,-4.0203,-4.0764,-4.1009,-4.1262,-4.172,0.0,0.0,-4.3694,-4.4682,-4.4895,-4.4895,-4.4895,-4.5057,-4.5181,-4.5224,-4.541,-4.5588,-4.5621,-4.5723,-4.5807,-4.5807,-4.5807,-4.5807,-4.5807,-4.6503,-4.7087,-4.7384,-4.8773,-4.9753,-5.0071,-5.0825,-5.1306,-5.1394,-5.1394,-5.1394,-5.1394,-5.1394,-5.1394,-5.1394,-5.1388,-5.1319,-5.1163,-5.1042,-5.0952,-5.0874,-5.0749,-5.0712,-5.0693,-5.0596,-5.0087,-4.9298,-4.8327,-4.7452,-4.6616,-4.5726,-4.54,-4.54,0.0,0.0,0.0,0.0,0.0,0.0,0.0,0.0,0.0,0.0,-2.25,-2.2528,-2.2363,-2.1928,-2.1838,-2.2322,-2.3176,-2.3906,-2.4375,-2.5703,-2.6811,-2.7466,-2.8538,-2.9539,-3.0425,-3.1916,-3.2835,-3.3157,-3.4506,-3.5385,-3.5792,-3.6253,-3.6414,-3.6322,-3.5861,-3.5251,-3.4468,-3.3715,-3.2818,-3.182,-3.1528,-3.1011,-3.0411,-3.02,-3.0336,-3.0821,-3.23,-3.286,0.0,-3.4048,-3.4356,-3.4593,-3.5823,-3.6405,-3.6808,-3.7504,-3.8057,0.0,-3.9129,-3.9537,-3.9838,0.0,-4.0366,-4.0635,-4.1405,-4.1688,-4.2043,-4.2921,-4.3541,-4.3964,-4.417,-4.4652,-4.5049,0.0,-4.53,-4.541,-4.558,-4.5645,-4.5708,-4.58,-4.5807,-4.5807,-4.5807,-4.66,-4.7378,-4.8047,-4.9221,-5.018,-5.0814,-5.1197,-5.1405,-5.1394,-5.1394,-5.1394,-5.1394,-5.1394,-5.1394,-5.1394,-5.1394,-5.133,-5.1199,-5.1141,-5.1047,-5.0887,-5.0758,-5.0712,-5.0712,-5.0712,-5.05,-5.0067,-4.9202,-4.8336,-4.7423,-4.5994,-4.5467,-4.5448,0.0,0.0,0.0,0.0,0.0,0.0,0.0,0.0,0.0,0.0,-2.1964,-2.2031,-2.1478,-2.0874,-2.0616,-2.0898,-2.1443,-2.2081,-2.2818,-2.3992,-2.4968,-2.5671,-2.675,-2.7649,-2.8214,-2.9981,-3.0892,-3.0892,-3.2384,-3.3264,-3.3551,-3.4107,-3.4421,-3.4438,-3.3846,-3.3348,-3.2886,-3.1753,-3.0805,-3.0037,-2.9409,-2.8906,-2.8488,-2.8255,-2.8171,-2.8392,-3.0138,-3.1028,-3.1432,-3.2121,-3.2536,-3.2944,-3.412,-3.4695,-3.5102,-3.6163,-3.6671,-3.7159,-3.8321,0.0,0.0,-3.9158,-3.9329,-3.9515,-4.0127,-4.0369,-4.0685,-4.153,-4.228,-4.291,-4.317,-4.3767,-4.4336,-4.4722,-4.4827,-4.5001,-4.5437,-4.5554,-4.5637,-4.573,-4.5786,-4.5884,-4.6136,-4.6941,-4.7785,-4.8534,-4.9623,-5.0584,-5.1363,-5.1396,-5.1408,-5.14,-5.1396,-5.1394,-5.1394,-5.1394,-5.1394,-5.1394,-5.1394,-5.133,-5.1199,-5.1132,-5.1011,-5.0833,-5.073,-5.0712,-5.0712,-5.0712,-5.0712,-5.0616,-4.974,-4.8875,-4.7923,-4.6434,-4.5733,-4.5513,0.0,0.0,0.0,0.0,0.0,0.0,0.0,0.0,0.0,0.0,0.0,0.0,0.0,-2.0592,-2.0498,-2.0529,-2.0899,-2.141,-2.1989,-2.2818,-2.3517,-2.4145,-2.4874,-2.5308,-2.5343,-2.7295,-2.832,-2.832,-2.9537,-3.0133,-3.0146,-3.0551,-3.0444,-2.9896,-2.9667,-2.9478,-2.9319,-2.8567,-2.8257,-2.8212,-2.742,-2.7274,-2.7471,-2.6676,-2.687,-2.7624,-2.8263,-2.8866,-2.947,-3.0092,-3.0837,-3.1751,-3.2891,-3.3652,0.0,-3.4505,-3.5095,-3.5849,-3.6733,0.0,-3.7085,-3.7538,-3.7882,-3.8288,-3.9234,-3.9628,-4.0117,-4.1186,-4.1647,-4.189,-4.2038,-4.2277,-4.2754,-4.3618,-4.3843,-4.4249,-4.5099,-4.5448,-4.5605,-4.5605,-4.5715,-4.6136,0.0,-4.785,-4.8425,-4.8592,-5.0194,-5.1233,-5.1386,-5.1401,-5.1396,-5.1409,-5.14,-5.1394,-5.1394,-5.1394,-5.1394,-5.1394,-5.1394,-5.133,-5.1195,-5.0998,-5.0833,-5.0721,-5.0693,-5.0712,-5.0712,-5.0712,-5.0712,-5.0616,-4.974,-4.8875,-4.8009,-4.7154,-4.6317,-4.5594,0.0,0.0,0.0,0.0,0.0,0.0,0.0,0.0,0.0,0.0,0.0,0.0,0.0,0.0,0.0,0.0,-1.9335,-2.0029,-2.0001,-2.0653,-2.1362,-2.2071,-2.235,-2.27,-2.3205,-2.4731,-2.5529,-2.5529,-2.6937,-2.7613,-2.763,-2.784,-2.7836,-2.7612,-2.7385,-2.709,-2.6695,-2.6246,-2.5711,-2.5197,-2.4935,-2.4681,-2.4435,-2.3873,-2.4025,-2.4578,0.0,-2.6683,-2.8524,-2.925,-3.0063,-3.0925,-3.1687,-3.2435,-3.3161,-3.3827,-3.4569,-3.5287,-3.5864,0.0,-3.6211,-3.6939,-3.7189,-3.7429,-3.8062,-3.831,-3.857,-3.9152,-3.9881,-4.0496,-4.0766,-4.1528,-4.2241,-4.2523,-4.2763,-4.3042,-4.3484,-4.3695,-4.406,-4.4718,-4.4923,0.0,0.0,0.0,0.0,-4.9352,-5.0527,-5.1235,-5.1321,-5.1386,-5.14,-5.1409,-5.1407,-5.1402,-5.1394,-5.1394,-5.1394,-5.1394,-5.1394,-5.133,-5.1199,-5.1039,-5.0923,-5.0836,-5.075,-5.0712,-5.0712,-5.0712,-5.0712,-5.0673,-5.0385,-4.9375,-4.8067,-4.7798,-4.6432,-4.4816,0.0,0.0,0.0,0.0,0.0,0.0,0.0,0.0,0.0,0.0,0.0,0.0,0.0,0.0,0.0,0.0,0.0,0.0,-1.8055,-1.8404,-1.8933,-1.9692,-2.0023,-2.0371,-2.0679,-2.2118,-2.2831,-2.2711,-2.3726,-2.4225,-2.4245,-2.453,-2.4657,-2.467,-2.4451,-2.4269,-2.4104,-2.3442,-2.2986,-2.2754,-2.2329,-2.2322,-2.252,-2.1826,-2.2017,0.0,-2.3096,-2.4552,-2.6488,-2.7943,-2.9185,-3.0241,-3.0793,-3.173,-3.2756,-3.3505,-3.4136,-3.4763,-3.5413,-3.5594,-3.5771,-3.646,-3.6643,-3.6781,-3.7243,-3.7375,-3.7523,-3.7929,-3.8631,-3.9255,-3.9552,-4.0379,-4.1154,-4.148,-4.1786,-4.2124,-4.2542,-4.2736,-4.309,-4.3778,-4.3975,0.0,0.0,0.0,0.0,-4.9701,-5.0651,-5.1195,-5.1304,-5.1343,-5.1386,-5.1394,-5.1391,-5.1405,-5.1394,-5.1394,-5.1394,-5.1394,-5.1357,-5.1255,-5.1128,-5.1016,-5.0916,-5.0816,-5.075,-5.0712,-5.0712,-5.0712,-5.0712,-5.0673,-5.0366,-4.9183,-4.7625,-4.7317,-4.5797,-4.3989,0.0,0.0,0.0,0.0,0.0,0.0,0.0,0.0,0.0,0.0,0.0,0.0,0.0,0.0,0.0,0.0,0.0,0.0,-1.6239,-1.6275,-1.6545,-1.7187,-1.8017,-1.825,-1.7846,-1.942,-2.0079,-1.9777,-1.9965,-2.0067,-2.009,-2.0625,-2.0874,-2.0874,-2.0739,-2.0948,-2.1271,-2.0103,-2.0106,-2.0771,-1.9746,-2.0272,-2.1602,-2.0503,-2.0924,-2.2023,-2.2104,-2.2546,-2.3513,-2.6151,-2.8136,-2.9594,-3.0166,-3.1432,-3.2799,-3.3349,-3.3758,-3.4284,-3.5253,-3.5526,-3.5638,-3.6062,-3.6151,-3.6277,-3.6761,-3.686,-3.7017,-3.7541,-3.7912,-3.8214,0.0,0.0,-3.9589,-4.0465,-4.0906,-4.1397,-4.2155,-4.2436,-4.2631,0.0,0.0,0.0,0.0,0.0,0.0,-4.965,0.0,-5.1157,-5.1284,-5.1283,-5.1323,-5.1381,-5.1395,-5.1407,-5.1394,-5.1394,-5.1394,-5.1394,-5.1223,-5.1064,-5.093,-5.084,-5.0698,-5.0587,-5.0577,-5.0577,-5.0577,-5.0577,-5.0577,-5.0481,-4.9663,-4.8317,-4.674,-4.5893,-4.4509,-4.3143,0.0,0.0,0.0,0.0,0.0,0.0,0.0,0.0,0.0,0.0,0.0,0.0,0.0,0.0,0.0,0.0,0.0,0.0,-1.5957,-1.5755,-1.5703,-1.5861,-1.6116,-1.6069,-1.5754,-1.6614,-1.6927,-1.6648,-1.6835,-1.6965,-1.6956,-1.6735,-1.6663,-1.6663,-1.6604,-1.6667,-1.6802,-1.7075,-1.7389,-1.7779,-1.8084,-1.859,-1.9109,-1.8936,-1.9261,-1.992,-2.0769,-2.1366,-2.214,0.0,0.0,0.0,0.0,-3.0541,-3.1503,-3.2152,-3.2864,-3.3578,-3.4292,-3.4488,-3.469,-3.5532,-3.5754,-3.5864,-3.6295,-3.6378,-3.6522,-3.6997,-3.7284,-3.7578,0.0,0.0,0.0,-3.9397,-3.9869,0.0,-4.0506,-4.0667,0.0,-4.1695,0.0,-4.3154,-4.5738,-4.6665,0.0,0.0,-5.0584,-5.1109,-5.1147,-5.1207,-5.1257,-5.1322,-5.1326,-5.1347,-5.1407,-5.1398,-5.1394,-5.1394,-5.0718,-5.0309,-5.0153,-4.9446,-4.9031,-4.8905,-4.8815,-4.8759,-4.8759,-4.8759,-4.8759,-4.874,-4.8529,-4.7413,-4.5893,-4.5691,-4.4124,-4.2162,0.0,0.0,0.0,0.0,0.0,0.0,0.0,0.0,0.0,0.0,0.0,0.0,0.0,0.0,0.0,0.0,0.0,0.0,0.0,-1.4343,-1.4216,-1.4216,-1.4594,-1.4655,-1.4372,-1.4934,-1.5087,-1.479,-1.478,-1.479,-1.4783,-1.4764,-1.474,-1.474,-1.474,-1.474,-1.4775,-1.4996,-1.5433,0.0,0.0,-1.6946,-1.7761,-1.7918,-1.8251,-1.8813,-1.969,0.0,0.0,0.0,0.0,-2.8117,-2.9265,-3.0238,-3.1101,-3.1705,0.0,-3.2975,-3.3543,-3.3908,-3.4234,-3.4785,-3.5131,-3.5323,-3.5433,-3.5455,-3.5559,-3.5873,-3.6013,0.0,0.0,0.0,0.0,0.0,0.0,0.0,-3.9889,-3.9967,-4.0212,0.0,-4.102,0.0,-4.4823,-4.5645,-4.6864,0.0,-5.031,-5.1037,-5.1099,-5.0777,-5.063,-5.0723,-5.0398,-5.0214,-5.0258,-5.0268,-5.0262,-5.0243,-4.9755,-4.9474,-4.9368,-4.8831,-4.848,-4.8292,0.0,-4.8158,-4.8105,-4.8105,-4.8105,-4.8029,-4.7298,-4.6182,-4.494,-4.4201,-4.2797,-4.1239,0.0,0.0,0.0,0.0,0.0,0.0,0.0,0.0,0.0,0.0,0.0,0.0,0.0,0.0,0.0,0.0,0.0,0.0,0.0,0.0,0.0,-1.2705,-1.3415,-1.3658,-1.3362,-1.3831,-1.3913,-1.3599,-1.3321,-1.3164,-1.32,-1.3658,-1.3867,-1.3867,-1.3867,-1.3867,-1.3839,-1.3491,-1.3954,-1.4935,-1.4692,-1.5557,-1.7036,0.0,0.0,0.0,0.0,0.0,0.0,0.0,-2.5542,-2.8376,-2.9188,-3.0027,-3.0837,-3.1473,-3.185,-3.2148,-3.2693,-3.3204,-3.3643,-3.3784,-3.417,-3.4482,-3.4292,-3.425,-3.4321,-3.4476,0.0,-3.4974,-3.6149,-3.6767,-3.7479,-3.8518,0.0,-3.9587,-3.9804,-3.9878,-3.9935,-4.007,-4.0185,-4.1264,-4.3789,-4.436,-4.5534,-4.7889,-4.9629,-5.0618,-5.0739,-5.0013,-4.9683,-4.9817,-4.9142,-4.8807,-4.8813,-4.8805,-4.88,-4.88,-4.8681,-4.8601,-4.8541,-4.8417,-4.8224,-4.8009,0.0,0.0,-4.7796,-4.7788,-4.7778,-4.7605,-4.6028,-4.4893,-4.3951,-4.2393,-4.1258,-4.0496,0.0,0.0,0.0,0.0,0.0,0.0,0.0,0.0,0.0,0.0,-1.479,-1.4688,0.0,0.0,0.0,0.0,0.0,0.0,0.0,0.0,0.0,0.0,-1.2826,-1.2789,-1.2519,0.0,0.0,0.0,0.0,-1.1515,-1.1515,-1.162,-1.1657,-1.1657,-1.1657,-1.1657,-1.1694,-1.2261,-1.3024,-1.3835,-1.4382,-1.5193,-1.6095,-1.6569,0.0,0.0,0.0,0.0,0.0,0.0,-2.4675,-2.7074,-2.8312,-2.864,-2.879,-3.0031,-3.0244,-3.0192,-3.0741,-3.0959,-3.124,-3.2152,-3.243,-3.2593,-3.294,-3.2995,0.0,0.0,-3.3916,-3.4395,-3.4994,-3.6289,0.0,-3.7539,0.0,0.0,0.0,0.0,-3.9911,0.0,0.0,0.0,0.0,0.0,0.0,0.0,0.0,-4.8851,-4.888,-4.8725,-4.8693,-4.8847,-4.8818,-4.8826,-4.8877,-4.8832,-4.8808,-4.8789,-4.8138,-4.7797,-4.7769,-4.6924,-4.6532,-4.6472,-4.6306,0.0,-4.6194,-4.6078,-4.6037,-4.5941,-4.4913,-4.4028,-4.3181,-4.2181,-4.1258,-4.0496,0.0,0.0,0.0,0.0,0.0,0.0,0.0,-1.4885,-1.479,-1.4544,-1.449,-1.4442,-1.4298,-1.4298,-1.4298,0.0,0.0,0.0,0.0,0.0,0.0,0.0,0.0,0.0,0.0,0.0,0.0,0.0,0.0,0.0,0.0,0.0,0.0,0.0,0.0,0.0,-1.1149,-1.1521,-1.2365,-1.3535,-1.389,-1.4732,0.0,0.0,0.0,0.0,0.0,0.0,0.0,0.0,-2.365,-2.5729,-2.7112,-2.7592,-2.7815,-2.8829,-2.9124,-2.9262,-2.9815,-3.0195,-3.0525,-3.1045,-3.1598,-3.196,-3.1798,0.0,0.0,0.0,-3.2392,-3.2865,-3.3932,0.0,0.0,0.0,0.0,0.0,0.0,0.0,0.0,0.0,0.0,0.0,0.0,0.0,0.0,0.0,0.0,-4.7444,-4.8353,-4.7998,-4.7628,-4.7317,-4.7405,-4.7476,-4.7554,-4.7511,-4.7507,-4.7484,-4.7108,-4.6928,-4.6903,-4.6416,-4.6173,-4.6095,-4.5993,0.0,-4.5847,-4.5737,-4.5438,-4.4947,-4.4031,-4.3162,-4.2316,-4.1431,-4.0854,-4.0496,0.0,0.0,0.0,0.0,0.0,0.0,0.0,-1.4592,-1.4544,-1.4346,-1.41,-1.3956,-1.3956,-1.4148,-1.4298,0.0,0.0,0.0,0.0,0.0,0.0,0.0,0.0,0.0,0.0,0.0,0.0,0.0,0.0,0.0,0.0,0.0,0.0,0.0,0.0,0.0,0.0,0.0,-1.2181,0.0,0.0,0.0,0.0,0.0,0.0,0.0,0.0,0.0,0.0,0.0,-2.2616,-2.4136,-2.5503,-2.6352,-2.7014,-2.7639,-2.8038,-2.8369,-2.8835,-2.9392,-2.9828,-2.9914,-3.0564,-3.1099,-3.0759,-3.0942,0.0,0.0,-3.1044,-3.1487,-3.2749,0.0,-3.4283,0.0,0.0,0.0,0.0,0.0,0.0,0.0,0.0,0.0,0.0,0.0,0.0,0.0,0.0,0.0,-4.7773,-4.7243,-4.6644,-4.6118,-4.616,-4.6219,-4.6307,-4.6305,-4.6204,-4.6024,-4.6022,-4.592,-4.5737,-4.5737,-4.5699,-4.5576,-4.556,0.0,0.0,-4.5298,-4.486,-4.413,-4.3189,-4.2425,-4.1692,-4.0823,-4.0496,-4.0496,0.0,0.0,0.0,0.0,0.0,0.0,0.0,-1.4346,-1.4346,-1.4298,-1.3463,-1.2829,-1.2829,-1.3709,-1.4298,0.0,0.0,0.0,0.0,0.0,0.0,0.0,0.0,0.0,0.0,0.0,0.0,0.0,0.0,0.0,0.0,0.0,0.0,0.0,0.0,0.0,0.0,0.0,0.0,0.0,0.0,0.0,0.0,0.0,0.0,0.0,0.0,0.0,0.0,0.0,0.0,-2.2195,-2.3075,-2.434,-2.5647,-2.6362,0.0,0.0,-2.6963,-2.7406,-2.7966,-2.8391,-2.8585,-2.8865,-2.9707,0.0,0.0,-3.0485,-3.0841,-3.114,-3.1305,-3.2629,-3.4003,0.0,0.0,-3.7808,0.0,0.0,0.0,0.0,0.0,0.0,0.0,0.0,0.0,0.0,0.0,0.0,-4.6039,-4.5975,-4.598,-4.6095,-4.6109,-4.6167,-4.6308,-4.6307,-4.5896,-4.5114,-4.5111,-4.4696,-4.3947,-4.3947,-4.3923,-4.3911,-4.3785,0.0,0.0,-4.3646,-4.3495,-4.3233,-4.2357,-4.1926,-4.1692,-4.0823,-4.0496,-4.0496,0.0,0.0,0.0,0.0,0.0,0.0,-1.299,-1.2899,-1.2899,-1.2899,-1.2398,-1.2047,-1.2047,-1.229,-1.2441,-1.2441,0.0,0.0,0.0,0.0,0.0,0.0,0.0,0.0,0.0,0.0,0.0,0.0,0.0,0.0,0.0,0.0,0.0,0.0,0.0,0.0,0.0,0.0,0.0,0.0,0.0,0.0,0.0,0.0,0.0,0.0,0.0,0.0,0.0,0.0,0.0,0.0,-2.2246,-2.3001,0.0,0.0,-2.5451,-2.5756,-2.6068,-2.6616,-2.7086,-2.7302,-2.7824,-2.8408,-2.881,0.0,-2.9837,-3.0049,-3.0431,-3.0821,-3.1064,-3.173,-3.2682,-3.397,0.0,0.0,0.0,0.0,0.0,0.0,0.0,0.0,0.0,0.0,0.0,0.0,0.0,0.0,-4.4311,-4.4794,-4.5137,-4.5258,-4.4791,-4.4587,-4.4679,-4.4707,-4.457,-4.4217,-4.4215,-4.4037,-4.37,-4.3696,-4.3693,-4.371,-4.363,0.0,0.0,-4.3509,-4.3143,-4.2612,-4.211,-4.159,-4.1084,-4.0662,-4.0496,-4.0496,0.0,0.0,0.0,0.0,0.0,-1.2247,-1.2024,-1.198,-1.198,-1.198,-1.1575,-1.1228,-1.1228,-1.0783,-1.044,-1.0391,-0.9903,0.0,0.0,0.0,0.0,0.0,0.0,0.0,0.0,0.0,-0.7176,-0.7379,-0.861,0.0,0.0,0.0,0.0,0.0,0.0,0.0,0.0,0.0,0.0,0.0,0.0,0.0,0.0,0.0,0.0,0.0,0.0,0.0,0.0,0.0,0.0,0.0,0.0,0.0,0.0,0.0,-2.465,-2.5118,-2.566,-2.6229,-2.6747,-2.6904,-2.753,-2.8134,0.0,0.0,-2.9445,-2.9728,-3.007,-3.041,-3.0845,-3.1142,-3.1806,-3.3301,0.0,-3.5514,0.0,0.0,0.0,0.0,0.0,0.0,0.0,0.0,0.0,0.0,0.0,0.0,0.0,-4.3634,-4.3988,-4.4307,-4.3774,-4.3503,-4.359,-4.3646,-4.3554,-4.3319,-4.3319,-4.3181,-4.2924,-4.292,-4.2938,-4.2936,0.0,0.0,0.0,-4.2832,-4.2434,-4.1909,-4.1718,-4.1266,-4.0717,-4.0602,-4.0564,-4.0557,0.0,0.0,0.0,0.0,0.0,0.0,-1.2024,-1.198,-1.198,-1.198,-1.1047,-1.0413,-1.0413,-0.9468,-0.8726,-0.8432,-0.9167,0.0,0.0,0.0,0.0,0.0,0.0,0.0,0.0,0.0,-0.7533,-0.8496,-0.8496,-0.9475,-1.1283,0.0,0.0,0.0,0.0,0.0,0.0,0.0,0.0,0.0,0.0,0.0,0.0,0.0,0.0,0.0,0.0,0.0,0.0,0.0,0.0,0.0,0.0,0.0,0.0,0.0,-2.4419,-2.5118,-2.566,-2.6229,-2.6826,-2.7433,-2.76,-2.7735,0.0,-2.8328,-2.8599,-2.9579,-2.9793,-2.9962,-3.0426,-3.1004,-3.1806,-3.3011,-3.3669,0.0,0.0,0.0,0.0,0.0,0.0,0.0,0.0,0.0,0.0,0.0,0.0,0.0,0.0,-4.2492,-4.2439,-4.3379,-4.3399,-4.3475,-4.3609,-4.3591,-4.3194,-4.2402,-4.2402,-4.1953,-4.1131,-4.1131,-4.1129,0.0,0.0,0.0,0.0,-4.1134,-4.1072,-4.1014,-4.1016,-4.0926,-4.0796,-4.0723,-4.0694,-4.0675,0.0,0.0,0.0,0.0,0.0,0.0,0.0,-1.0364,-1.0364,-1.0364,-0.992,-0.9579,-0.9579,-0.9126,-0.8775,-0.8676,-0.8726,0.0,0.0,0.0,0.0,0.0,0.0,0.0,0.0,0.0,-0.7665,-0.8759,-0.9405,-1.0413,-1.1804,-1.2445,-1.283,0.0,0.0,0.0,0.0,0.0,0.0,0.0,0.0,0.0,0.0,0.0,0.0,0.0,0.0,0.0,0.0,0.0,0.0,0.0,0.0,0.0,0.0,-2.3241,0.0,0.0,-2.4607,-2.5076,-2.5674,-2.6215,-2.668,-2.7111,-2.7695,-2.8076,-2.848,-2.9189,-2.9572,-2.9941,-3.0405,-3.0736,-3.123,-3.2208,-3.302,0.0,0.0,0.0,0.0,0.0,0.0,0.0,0.0,0.0,0.0,0.0,0.0,0.0,0.0,-4.1254,-4.157,-4.2425,-4.196,-4.1727,-4.1824,-4.1878,-4.1787,-4.1582,-4.1582,-4.1445,-4.1172,-4.1112,0.0,0.0,0.0,0.0,0.0,-4.1104,-4.1099,-4.1052,-4.1022,-4.097,-4.0912,-4.0809,-4.0776,-4.0765,0.0,0.0,0.0,0.0,0.0,0.0,0.0,-0.9579,-0.9579,-0.9579,-0.943,-0.9331,-0.9331,-0.9179,-0.9076,-0.8977,-0.8783,0.0,0.0,0.0,0.0,0.0,0.0,0.0,0.0,-0.7717,-0.8428,-0.9545,-1.0491,-1.1531,-1.2662,-1.3222,-1.3519,-1.3568,-1.4307,0.0,0.0,0.0,0.0,0.0,0.0,0.0,-1.8322,0.0,0.0,0.0,0.0,0.0,0.0,0.0,0.0,0.0,0.0,0.0,0.0,0.0,-2.3437,-2.3936,0.0,-2.4706,-2.5188,-2.5933,-2.6431,0.0,0.0,-2.782,-2.8198,-2.8685,-2.9196,-2.9683,-3.0156,-3.0531,-3.1041,-3.1878,-3.2511,0.0,0.0,0.0,0.0,0.0,0.0,0.0,0.0,0.0,0.0,0.0,0.0,0.0,0.0,-4.07,-4.1029,-4.1525,-4.11,-4.0898,-4.0968,-4.102,-4.1106,-4.1168,-4.1191,-4.1191,-4.1191,-4.1152,0.0,0.0,0.0,0.0,0.0,-4.1108,-4.1108,-4.1108,-4.1054,-4.1012,-4.0981,-4.0871,-4.08,-4.0745,0.0,0.0,0.0,0.0,0.0,0.0,0.0,-0.9628,-0.9579,-0.9579,-0.9579,-0.9628,-0.9723,-0.9723,-0.9624,-0.948,0.0,0.0,0.0,0.0,0.0,0.0,0.0,0.0,-0.7991,-0.8812,-0.974,-1.0743,-1.1591,-1.2613,-1.3737,-1.3737,-1.3737,-1.3779,-1.4678,-1.5496,-1.6288,-1.7991,-1.87,-1.87,-1.87,-1.874,0.0,0.0,0.0,0.0,0.0,0.0,0.0,0.0,0.0,0.0,0.0,0.0,0.0,0.0,0.0,0.0,0.0,-2.4948,0.0,0.0,0.0,0.0,-2.7458,-2.76,0.0,-2.8255,-2.8756,-2.9257,-2.975,-3.0426,-3.1117,-3.1841,-3.2144,0.0,0.0,0.0,0.0,0.0,0.0,0.0,0.0,0.0,0.0,0.0,0.0,0.0,0.0,-4.0694,-4.0797,-4.0797,-4.0797,-4.0837,-4.0907,-4.0968,-4.1039,-4.1109,-4.1168,-4.1191,-4.1191,-4.1191,0.0,0.0,0.0,0.0,0.0,-4.113,-4.111,-4.1111,-4.1109,-4.1076,-4.1001,-4.0942,-4.0824,-4.069,0.0,0.0,0.0,0.0,0.0,0.0,0.0,0.0,0.0,0.0,-0.9579,-0.9916,-1.0739,-1.0837,-1.1126,0.0,0.0,0.0,0.0,0.0,0.0,0.0,0.0,0.0,-1.0754,-1.0663,-1.118,-1.2277,-1.2255,-1.2857,-1.3997,-1.3997,-1.3997,-1.4082,-1.5443,-1.6796,-1.8072,-1.8531,-1.87,-1.87,-1.87,-1.9073,0.0,0.0,0.0,0.0,-2.2905,-2.3335,0.0,0.0,0.0,0.0,0.0,0.0,0.0,0.0,-2.2695,-2.301,-2.4028,0.0,-2.4578,-2.5742,-2.6014,-2.6283,0.0,-2.76,-2.786,-2.8724,0.0,0.0,-3.0177,-3.0468,-3.0801,-3.1435,-3.1842,0.0,0.0,0.0,0.0,0.0,0.0,0.0,0.0,0.0,0.0,0.0,0.0,0.0,0.0,-4.0633,-4.0797,-4.0797,-4.0797,-4.0837,-4.0907,-4.0911,-4.0977,-4.1109,-4.1066,-4.1108,-4.1191,-4.1145,0.0,0.0,0.0,0.0,-4.1191,-4.1172,-4.1172,-4.1172,-4.1172,-4.1131,-4.1066,-4.106,-4.099,-4.0822,0.0,0.0,0.0,0.0,0.0,0.0,0.0,0.0,0.0,0.0,0.0,0.0,0.0,0.0,0.0,0.0,0.0,0.0,0.0,0.0,0.0,0.0,0.0,-1.1235,-1.1848,-1.2061,-1.2631,-1.3536,-1.3367,-1.4005,-1.5269,-1.4866,-1.4908,-1.536,-1.6583,-1.7813,-1.8962,-1.8962,-1.8962,-1.8962,-1.8962,0.0,0.0,0.0,0.0,0.0,-2.2841,-2.3335,0.0,-2.4007,-2.4016,-2.3625,0.0,0.0,0.0,0.0,-2.2439,-2.2756,-2.3569,-2.3936,-2.4361,-2.5522,-2.5783,-2.6122,-2.7316,0.0,0.0,0.0,0.0,0.0,0.0,0.0,0.0,0.0,0.0,0.0,0.0,0.0,0.0,0.0,0.0,0.0,0.0,0.0,0.0,0.0,0.0,0.0,0.0,-4.05,-4.0487,-4.012,-4.0172,-4.0401,-4.0856,-4.0883,-4.0941,-4.1003,-4.0607,-4.0445,-4.0508,-4.0096,-3.9926,0.0,0.0,0.0,-4.0019,-4.0019,-4.0019,-4.0019,-4.0019,-3.9979,-3.9912,-3.9912,-3.985,-3.9691,0.0,0.0,0.0,0.0,0.0,0.0,0.0,0.0,0.0,0.0,0.0,0.0,0.0,0.0,0.0,0.0,0.0,0.0,0.0,0.0,0.0,0.0,-1.2796,-1.2848,-1.3115,-1.3823,-1.4443,-1.5012,-1.5012,-1.5611,-1.6778,-1.6042,-1.6136,-1.6935,-1.7674,-1.8487,-1.9301,-1.9301,-1.9301,-1.9301,-1.9301,0.0,0.0,0.0,0.0,0.0,0.0,0.0,0.0,-2.3934,-2.42,-2.4016,-2.3029,0.0,0.0,0.0,0.0,0.0,-2.3271,-2.373,-2.4361,-2.5412,-2.5742,-2.6081,-2.7214,0.0,0.0,0.0,0.0,0.0,0.0,0.0,0.0,0.0,0.0,0.0,0.0,0.0,0.0,0.0,0.0,0.0,0.0,0.0,0.0,0.0,0.0,0.0,0.0,-4.0027,-3.9783,-3.9124,-3.9219,-3.9643,-4.041,-4.0449,-4.0485,-4.0485,-3.9809,-3.9478,-3.9483,-3.8777,-3.8484,0.0,0.0,0.0,-3.8594,-3.8594,-3.8594,-3.8594,-3.8594,-3.8571,-3.8517,-3.8517,-3.8448,-3.8306,0.0,0.0,0.0,0.0,0.0,0.0,0.0,0.0,0.0,0.0,0.0,0.0,0.0,0.0,0.0,0.0,0.0,0.0,0.0,0.0,0.0,-1.7693,-1.6858,-1.6829,-1.7764,-1.7621,-1.7611,-1.7689,-1.7505,-1.7313,-1.7211,-1.7085,-1.7309,-1.7796,-1.7957,-1.8487,-1.9301,-1.9301,-1.9301,-1.9301,-1.9301,0.0,0.0,0.0,0.0,0.0,0.0,0.0,0.0,-2.3934,-2.42,-2.4016,-2.3029,0.0,0.0,0.0,0.0,0.0,-2.3313,-2.373,-2.4245,-2.4948,-2.5453,-2.5987,-2.6669,0.0,0.0,0.0,0.0,0.0,0.0,0.0,0.0,0.0,0.0,0.0,0.0,0.0,0.0,0.0,0.0,0.0,0.0,0.0,0.0,0.0,0.0,0.0,0.0,-3.8533,-3.8208,-3.8206,-3.8227,-3.835,-3.8599,-3.8603,-3.865,-3.8702,-3.8529,-3.849,-3.8586,-3.8403,-3.8383,0.0,0.0,-3.8549,-3.8594,-3.8594,-3.8594,-3.8594,-3.8594,-3.8594,-3.8574,-3.8574,-3.8545,-3.8356,0.0,0.0,0.0,0.0,0.0,0.0,0.0,0.0,0.0,0.0,0.0,0.0,0.0,0.0,0.0,0.0,0.0,0.0,0.0,0.0,-1.933,-2.026,-2.0352,-1.9909,-1.8834,-1.8629,-1.8725,-1.9074,-1.8414,-1.8409,-1.903,-1.8832,-1.8693,-1.8687,-1.8687,-1.8935,-1.9301,-1.9301,-1.9301,-1.9301,0.0,0.0,0.0,0.0,0.0,0.0,0.0,0.0,0.0,0.0,-2.3995,-2.4196,-2.327,0.0,0.0,0.0,0.0,0.0,-2.303,-2.348,-2.3953,-2.439,-2.4935,-2.5591,-2.6484,0.0,0.0,0.0,0.0,0.0,0.0,0.0,0.0,0.0,0.0,0.0,0.0,0.0,0.0,0.0,0.0,0.0,0.0,0.0,0.0,0.0,0.0,0.0,0.0,0.0,-3.6193,-3.5856,-3.5906,-3.5772,-3.539,-3.543,-3.6389,-3.8248,-3.7744,-3.7524,-3.7566,-3.71,-3.6934,-3.6999,0.0,-3.7114,-3.7143,-3.7187,-3.7207,-3.7207,-3.7207,-3.7207,-3.7148,-3.668,-3.6171,-3.5675,0.0,0.0,0.0,0.0,0.0,0.0,0.0,0.0,0.0,0.0,0.0,0.0,0.0,0.0,0.0,0.0,0.0,0.0,0.0,0.0,-2.1337,-2.2259,-2.3033,-2.241,-2.0169,-2.0133,-2.0355,-2.0825,-2.0104,-2.0297,-2.1263,-2.0753,-2.0346,-2.0065,-1.9951,-1.9943,-1.9952,-1.9982,-1.9982,-1.9982,0.0,0.0,0.0,0.0,0.0,0.0,0.0,0.0,0.0,0.0,0.0,0.0,0.0,0.0,0.0,-2.1992,-2.2061,-2.2543,-2.2896,-2.3348,-2.3793,-2.4099,0.0,-2.5272,-2.627,0.0,0.0,0.0,0.0,0.0,0.0,0.0,0.0,0.0,0.0,0.0,0.0,0.0,0.0,0.0,0.0,0.0,0.0,0.0,0.0,0.0,0.0,0.0,0.0,0.0,-3.4225,-3.3685,-3.378,-3.3539,-3.2967,-3.3043,-3.4395,-3.6971,-3.6311,-3.6008,-3.5994,-3.5379,-3.5098,-3.5123,-3.5215,-3.5297,-3.5312,-3.5367,-3.539,-3.5391,-3.5391,-3.5391,-3.5312,-3.4648,-3.3965,-3.3398,0.0,0.0,0.0,0.0,0.0,0.0,0.0,0.0,0.0,0.0,0.0,0.0,0.0,0.0,0.0,0.0,0.0,0.0,0.0,0.0,-2.3235,-2.4274,-2.436,-2.4317,-2.4092,-2.4092,-2.4125,-2.4137,-2.4094,-2.3944,-2.3639,-2.2733,-2.2311,-2.2259,-2.1921,-2.18,-2.18,-2.1989,-2.2065,-2.2065,-2.2065,0.0,0.0,0.0,0.0,0.0,0.0,0.0,0.0,0.0,0.0,0.0,0.0,0.0,-2.3247,-2.2067,-2.2166,-2.2769,-2.3148,-2.3666,-2.4118,-2.4408,-2.4736,0.0,-2.5742,-2.6283,0.0,-2.7509,0.0,0.0,0.0,0.0,0.0,0.0,0.0,0.0,0.0,0.0,0.0,0.0,0.0,0.0,0.0,0.0,0.0,0.0,0.0,0.0,0.0,0.0,0.0,-3.2699,-3.2714,-3.2744,-3.2807,-3.2941,-3.3124,-3.3375,-3.3365,-3.3378,-3.3378,-3.3305,-3.331,-3.3378,-3.3393,-3.3465,-3.3576,-3.3596,-3.3588,-3.3594,-3.3594,-3.3594,-3.3574,-3.3516,-3.3457,-3.3398,0.0,0.0,0.0,0.0,0.0,0.0,0.0,0.0,0.0,0.0,0.0,0.0,0.0,0.0,0.0,0.0,0.0,0.0,0.0,-2.376,-2.4532,-2.5861,-2.5944,-2.6513,-2.7711,-2.5599,-2.4498,-2.4498,-2.4648,-2.4556,-2.4279,-2.3564,-2.3121,-2.2865,-2.2389,-2.2178,-2.2178,-2.2253,-2.2291,-2.2291,-2.2291,-2.2291,0.0,0.0,0.0,0.0,0.0,0.0,0.0,0.0,-2.4527,-2.4803,-2.3861,-2.3628,-2.3457,-2.2341,-2.2197,-2.2463,-2.2836,-2.3185,-2.3603,-2.4118,-2.4465,0.0,0.0,-2.5742,-2.631,-2.6904,0.0,0.0,0.0,0.0,0.0,0.0,0.0,0.0,0.0,0.0,0.0,0.0,0.0,0.0,0.0,0.0,0.0,0.0,0.0,0.0,0.0,0.0,0.0,-3.1055,-3.1043,-3.1065,-3.1123,-3.1251,-3.1322,-3.1341,-3.2527,-3.3107,-3.3107,-3.3107,-3.3113,-3.3136,-3.318,-3.3239,-3.3287,-3.3365,-3.3404,-3.3392,-3.3398,-3.3086,-3.2656,-3.2656,-3.2305,-3.1855,0.0,0.0,0.0,0.0,0.0,0.0,0.0,0.0,0.0,0.0,0.0,0.0,0.0,0.0,0.0,0.0,0.0,0.0,-2.5837,-2.6179,-2.6796,-2.7872,-2.7912,-2.8509,-2.9884,-2.7567,-2.6345,-2.6345,-2.6232,-2.6095,-2.5941,-2.4957,-2.4376,-2.4084,-2.3482,-2.3195,-2.3195,-2.322,-2.3257,-2.3257,-2.3257,-2.3257,0.0,0.0,0.0,0.0,0.0,0.0,0.0,0.0,-2.4683,-2.5003,-2.4097,-2.3806,-2.3601,-2.2498,-2.2197,-2.2278,-2.2714,-2.3095,-2.3531,0.0,0.0,0.0,-2.485,-2.5412,-2.6095,0.0,0.0,0.0,0.0,0.0,0.0,0.0,0.0,0.0,0.0,0.0,0.0,0.0,0.0,0.0,0.0,0.0,0.0,0.0,0.0,0.0,0.0,0.0,0.0,0.0,-3.079,-3.0822,-3.0822,-3.0961,-3.1037,-3.1037,-3.2371,-3.2759,-3.2314,-3.2314,-3.2314,-3.2319,-3.2359,-3.2384,-3.2395,-3.2484,-3.2544,-3.2581,-3.2596,-3.2266,-3.1797,-3.1797,-3.1406,-3.0937,0.0,0.0,0.0,0.0,0.0,0.0,0.0,0.0,0.0,0.0,0.0,0.0,0.0,0.0,0.0,0.0,0.0,0.0,-2.887,-2.9795,-3.0304,-3.0304,-3.0304,-3.0342,-3.0342,-3.0342,-3.0317,-3.0304,-2.9485,-2.9121,-2.9096,-2.7188,-2.6344,-2.6285,-2.5479,-2.5111,-2.5111,-2.5276,-2.5312,-2.5312,-2.5312,-2.5312,-2.5312,0.0,0.0,0.0,0.0,0.0,0.0,0.0,-2.5312,-2.5131,-2.4131,-2.3806,-2.3601,-2.2498,-2.2197,-2.2328,-2.2919,-2.3522,0.0,0.0,0.0,0.0,-2.4666,-2.5439,0.0,0.0,0.0,0.0,0.0,0.0,0.0,0.0,0.0,0.0,0.0,0.0,0.0,0.0,0.0,0.0,0.0,0.0,0.0,0.0,0.0,0.0,0.0,0.0,0.0,0.0,-3.2288,-3.2397,-3.2397,-3.2526,-3.261,-3.2591,-3.2725,-3.2026,-3.0612,-3.0617,-3.0617,-3.0617,-3.0617,-3.0613,-3.0613,-3.0613,-3.0708,-3.0822,-3.0897,-3.0918,-3.0918,-3.0918,-3.0918,-3.1055,0.0,0.0,0.0,0.0,0.0,0.0,0.0,0.0,0.0,0.0,0.0,0.0,0.0,0.0,0.0,0.0,0.0,0.0,-3.0452,-3.1035,-3.1585,-3.206,-3.206,-3.2396,-3.3087,-3.3031,-3.2141,-3.0519,-3.0266,-3.0215,-3.0342,-2.8992,-2.8361,-2.831,-2.7261,-2.6799,-2.6799,-2.6833,-2.6833,-2.6833,-2.6833,-2.6539,-2.607,0.0,0.0,0.0,0.0,0.0,0.0,0.0,0.0,0.0,-2.4131,-2.3806,-2.3601,-2.2498,-2.2197,-2.2247,-2.242,-2.3083,0.0,0.0,0.0,0.0,0.0,0.0,0.0,0.0,0.0,0.0,0.0,0.0,0.0,0.0,0.0,0.0,0.0,0.0,0.0,0.0,0.0,0.0,0.0,0.0,0.0,0.0,0.0,0.0,0.0,0.0,0.0,0.0,-3.2015,-3.2202,-3.2202,-3.2371,-3.2509,-3.2591,-3.2649,-3.2472,-3.2148,-3.2202,-3.2218,-3.2224,-3.2327,-3.2353,-3.2362,-3.2407,-3.2487,-3.2576,-3.2634,-3.2663,-3.2665,-3.2655,-3.2656,-3.2695,0.0,0.0,0.0,0.0,0.0,0.0,0.0,0.0,0.0,0.0,0.0,0.0,0.0,0.0,0.0,0.0,0.0,0.0,0.0,-3.3231,-3.3661,-3.4328,-3.4361,-3.4519,-3.4901,-3.4817,-3.395,-3.2321,-3.1549,-3.1267,-3.1352,-3.0135,-2.9441,-2.9144,-2.8263,-2.7727,-2.7517,-2.7517,-2.7517,-2.7517,-2.7517,-2.725,-2.6812,0.0,0.0,0.0,0.0,0.0,0.0,0.0,0.0,0.0,-2.4131,-2.3806,-2.3601,-2.2498,-2.2197,-2.2197,-2.2197,0.0,0.0,0.0,0.0,0.0,0.0,0.0,0.0,0.0,0.0,0.0,0.0,0.0,0.0,0.0,0.0,0.0,0.0,0.0,0.0,0.0,0.0,0.0,0.0,0.0,0.0,0.0,0.0,0.0,0.0,0.0,0.0,0.0,-3.2639,-3.287,-3.2965,-3.3123,-3.3289,-3.3473,-3.3508,-3.3568,-3.3622,-3.3098,-3.2865,-3.2872,-3.297,-3.3051,-3.3112,-3.3171,-3.3211,-3.3274,-3.3334,-3.3351,-3.3356,-3.3388,-3.3371,-3.3404,0.0,0.0,0.0,0.0,0.0,0.0,0.0,0.0,0.0,0.0,-3.1278,0.0,0.0,0.0,0.0,0.0,0.0,0.0,0.0,0.0,-3.6276,-3.6824,-3.6854,-3.6598,-3.6058,-3.598,-3.5663,-3.5059,-3.322,-3.2362,-3.2313,-3.0985,-3.0055,-2.9438,-2.8858,-2.8257,-2.7683,-2.7683,-2.7683,-2.7683,-2.7683,-2.7637,-2.7517,-2.6845,0.0,0.0,0.0,0.0,0.0,0.0,0.0,0.0,-2.4131,-2.3806,-2.3601,-2.2498,-2.2197,-2.2197,-2.2197,0.0,0.0,0.0,0.0,0.0,0.0,0.0,0.0,0.0,0.0,0.0,0.0,0.0,0.0,0.0,0.0,0.0,0.0,0.0,0.0,0.0,0.0,0.0,0.0,0.0,0.0,0.0,0.0,0.0,0.0,0.0,0.0,-3.3443,-3.3728,-3.3993,-3.4215,-3.4307,-3.4483,0.0,-3.4802,-3.486,-3.4832,-3.3573,-3.3018,-3.3039,-3.3115,-3.3207,-3.3304,-3.3382,-3.3417,-3.3405,-3.3476,-3.3504,-3.3538,-3.3587,-3.3579,-3.3646,0.0,0.0,0.0,0.0,0.0,0.0,0.0,0.0,0.0,0.0,0.0,0.0,0.0,0.0,0.0,0.0,0.0,0.0,0.0,0.0,-3.7803,-3.7962,-3.7962,-3.7905,-3.7761,-3.7347,-3.6841,-3.6229,-3.4916,-3.4279,-3.4279,-3.3086,-3.2192,-3.1523,-3.0494,-2.9702,-2.9149,-2.9149,-2.9149,-2.9149,-2.9149,-2.8789,-2.8266,-2.8103,-2.7723,0.0,0.0,0.0,0.0,0.0,0.0,0.0,-2.4131,-2.3806,-2.3601,-2.2498,-2.2197,-2.2197,0.0,-2.2732,0.0,0.0,0.0,0.0,0.0,0.0,0.0,0.0,0.0,0.0,0.0,0.0,0.0,0.0,0.0,0.0,0.0,0.0,0.0,0.0,0.0,0.0,0.0,0.0,0.0,0.0,0.0,0.0,0.0,0.0,0.0,-3.3101,-3.3433,-3.3607,-3.3666,-3.3899,-3.4056,0.0,-3.439,-3.4559,-3.4649,-3.462,-3.466,-3.4779,-3.4898,-3.4905,-3.4831,-3.495,-3.5017,-3.4998,-3.4966,-3.5044,-3.5181,-3.5198,-3.5223,-3.5285,0.0,0.0,0.0,0.0,0.0,0.0,0.0,0.0,0.0,0.0,0.0,0.0,0.0,0.0,0.0,0.0,0.0,0.0,0.0,0.0,-3.9425,-3.9492,-3.9492,-3.9272,-3.8739,-3.8442,-3.806,-3.7499,-3.6737,-3.585,-3.4876,-3.4453,-3.3712,-3.2773,-3.2313,-3.161,-3.0689,-3.0689,-3.051,-3.0267,-3.0267,-2.987,-2.9233,-2.8807,-2.8422,-2.8012,-2.7217,0.0,0.0,0.0,0.0,0.0,0.0,0.0,-2.3601,-2.2498,-2.2197,-2.2197,0.0,0.0,0.0,0.0,0.0,0.0,0.0,0.0,0.0,0.0,0.0,0.0,0.0,0.0,0.0,0.0,0.0,0.0,0.0,0.0,0.0,0.0,0.0,0.0,0.0,0.0,0.0,0.0,0.0,0.0,0.0,-3.0889,-3.1109,-3.1326,-3.1655,-3.1897,-3.2014,-3.2392,-3.2641,-3.2761,-3.2964,-3.3109,-3.325,-3.4453,-3.5079,-3.5203,-3.5274,-3.5315,-3.5315,-3.5381,-3.5409,-3.5409,-3.5365,-3.5419,-3.5458,-3.5078,-3.4981,-3.4984,0.0,0.0,0.0,0.0,0.0,0.0,0.0,0.0,0.0,0.0,0.0,0.0,0.0,0.0,0.0,0.0,0.0,0.0,0.0,0.0,0.0,-4.0949,-4.0972,-4.0577,-3.9664,-3.9551,-3.9289,-3.8783,-3.8407,-3.7279,-3.5565,-3.5595,-3.4963,-3.3803,-3.3879,-3.3225,-3.207,-3.1964,-3.1592,-3.1145,-3.1145,-3.0852,-3.0326,-2.9594,-2.9268,-2.9062,-2.8233,-2.7425,-2.6778,-2.6676,0.0,0.0,0.0,0.0,-2.3613,-2.265,-2.2258,-2.2197,0.0,0.0,0.0,0.0,0.0,0.0,0.0,0.0,0.0,0.0,0.0,0.0,0.0,0.0,0.0,0.0,0.0,0.0,0.0,0.0,0.0,0.0,0.0,0.0,0.0,0.0,0.0,0.0,0.0,0.0,-2.8892,-2.9213,-2.942,-2.9505,-2.9772,-3.0062,-3.0323,-3.0661,-3.0953,-3.1185,-3.1354,-3.1528,-3.1741,-3.3527,-3.4425,-3.457,-3.4615,-3.4691,-3.4795,-3.481,-3.4818,-3.4837,-3.4814,-3.4837,-3.4793,-3.4103,-3.3891,-3.3872,0.0,0.0,0.0,0.0,0.0,0.0,0.0,0.0,0.0,0.0,0.0,0.0,0.0,0.0,0.0,0.0,0.0,0.0,-4.1286,0.0,0.0,-4.1561,-4.1635,-4.1599,-4.1451,-4.1041,-4.0556,-3.9966,-3.9553,-3.8978,-3.8185,-3.7008,-3.606,-3.5348,-3.4347,-3.3468,-3.2722,-3.2146,-3.1862,-3.1777,-3.1777,-3.1749,-3.1635,-3.1534,-3.1159,-3.06,-2.9834,-2.9101,-2.839,-2.7743,-2.6955,0.0,0.0,0.0,-2.3685,-2.3083,-2.2558,-2.2197,0.0,0.0,0.0,0.0,0.0,0.0,0.0,0.0,0.0,0.0,0.0,0.0,0.0,0.0,0.0,0.0,0.0,0.0,0.0,0.0,0.0,0.0,0.0,0.0,0.0,0.0,0.0,0.0,0.0,0.0,-2.8856,-2.8947,-2.9143,-2.9488,-2.9539,-2.9722,-3.0047,-2.9819,-2.9916,-3.0358,-3.0682,-3.111,-3.1628,-3.1972,-3.2262,-3.2514,-3.2618,-3.2708,-3.279,-3.2915,-3.2962,-3.2947,-3.2832,-3.2939,-3.3105,-3.2878,-3.2876,-3.298,0.0,0.0,0.0,0.0,0.0,0.0,0.0,0.0,0.0,0.0,0.0,0.0,0.0,0.0,0.0,-4.1721,-4.2109,-4.2512,-4.2923,-4.2868,-4.2699,-4.2449,-4.2268,-4.2083,-4.181,-4.1595,-4.1251,-4.0822,-4.0404,-3.9994,-3.9584,-3.8674,-3.7717,-3.6681,-3.6302,-3.5637,-3.4755,-3.4045,-3.3556,-3.3224,-3.2777,-3.2446,-3.2173,-3.2043,-3.1847,-3.1519,-3.0778,-3.0045,-2.932,-2.8657,-2.7861,-2.7041,-2.6518,0.0,0.0,0.0,-2.3152,0.0,-2.2278,0.0,0.0,0.0,0.0,0.0,0.0,0.0,0.0,0.0,0.0,0.0,0.0,0.0,0.0,0.0,0.0,0.0,0.0,0.0,0.0,0.0,0.0,0.0,0.0,0.0,0.0,0.0,0.0,-2.6285,-2.664,-2.6659,-2.6848,-2.7253,-2.7431,-2.7743,-2.8146,-2.8178,-2.8309,-2.8518,-2.871,-2.8937,-2.9187,-2.9296,-3.0265,-3.188,-3.1977,-3.2028,-3.2067,-3.2117,-3.2147,-3.2147,-3.2087,-3.2194,-3.2345,-3.1839,-3.1806,-3.1941,0.0,0.0,0.0,0.0,0.0,0.0,0.0,0.0,0.0,0.0,0.0,0.0,0.0,0.0,0.0,0.0,-4.2887,-4.3513,-4.4069,-4.394,-4.3703,-4.3347,-4.3122,-4.2794,-4.237,-4.2251,-4.2044,-4.17,-4.1173,-4.0791,-4.0614,-4.0137,-3.9326,-3.821,-3.8117,-3.7623,-3.6842,-3.6091,-3.5516,-3.5053,-3.4304,-3.3766,-3.3371,-3.2926,-3.2687,-3.2454,-3.1804,-3.0998,-3.0152,-2.9692,-2.888,-2.7944,-2.7517,-2.667,0.0,0.0,0.0,0.0,0.0,0.0,0.0,0.0,0.0,0.0,0.0,0.0,0.0,0.0,0.0,0.0,0.0,0.0,0.0,0.0,0.0,0.0,0.0,0.0,0.0,0.0,0.0,0.0,0.0,0.0,0.0,0.0,0.0,-2.4592,-2.4728,-2.4843,-2.504,-2.5332,-2.5601,-2.5983,-2.6522,-2.6774,-2.6906,-2.6906,-2.6936,-2.7065,-2.7272,-2.7391,-2.8603,-3.0619,-3.0765,-3.0912,-3.1043,-3.1043,-3.1043,-3.1054,-3.1128,-3.1264,-3.1323,-3.0713,-3.0649,-3.0774,0.0,0.0,0.0,0.0,0.0,0.0,0.0,0.0,0.0,0.0,0.0,0.0,-4.2844,-4.3354,-4.3707,-4.3707,-4.3906,-4.4054,-4.4084,-4.4213,-4.426,-4.4227,-4.4285,0.0,-4.3889,-4.3453,-4.3087,-4.2825,-4.1906,-4.145,-4.1445,-4.1024,-4.059,-4.0103,-3.9051,-3.8539,-3.843,-3.7702,-3.7359,0.0,-3.6532,-3.6224,-3.6069,-3.4987,-3.421,-3.3659,-3.3235,-3.225,-3.1131,-3.1102,-3.0149,-2.8907,-2.8748,-2.7445,0.0,0.0,0.0,0.0,0.0,0.0,0.0,0.0,0.0,0.0,0.0,0.0,0.0,0.0,0.0,0.0,0.0,0.0,0.0,0.0,0.0,0.0,0.0,0.0,0.0,0.0,0.0,0.0,0.0,0.0,0.0,0.0,0.0,-2.3782,-2.4215,-2.4668,-2.4902,-2.4942,-2.4962,-2.53,-2.6021,-2.6039,-2.6057,-2.6057,-2.6073,-2.6471,-2.7213,-2.7272,-2.743,-2.765,-2.8027,-2.8489,-2.8966,-2.8966,-2.8966,-2.8989,-2.9312,-2.9444,-2.9444,-2.9388,-2.939,-2.9402,0.0,0.0,0.0,0.0,0.0,0.0,0.0,0.0,0.0,0.0,0.0,0.0,0.0,-4.4065,-4.4202,-4.4202,-4.4406,-4.4631,-4.4856,-4.4701,-4.4612,-4.4612,-4.4479,-4.436,-4.4265,-4.3915,-4.3557,-4.3159,-4.2638,-4.2095,-4.1512,-4.1356,-4.1071,-4.0655,-3.9974,-3.9514,-3.9218,-3.848,0.0,0.0,0.0,0.0,-3.6303,-3.5385,0.0,0.0,0.0,0.0,0.0,-3.2427,-3.1432,-3.0391,0.0,0.0,0.0,0.0,0.0,0.0,0.0,0.0,0.0,0.0,0.0,0.0,0.0,0.0,0.0,0.0,0.0,0.0,0.0,0.0,0.0,0.0,0.0,0.0,0.0,0.0,0.0,0.0,0.0,0.0,0.0,0.0,0.0,0.0,0.0,0.0,-2.2839,-2.3017,-2.3245,-2.3533,-2.3554,-2.3806,-2.434,-2.4662,-2.4847,-2.4847,-2.515,-2.5433,-2.5728,-2.5786,-2.5952,-2.6182,-2.62,-2.6927,-2.8094,-2.8094,-2.8094,-2.8107,-2.8232,-2.834,-2.8474,-2.8474,-2.8549,-2.8697,0.0,0.0,0.0,0.0,0.0,0.0,0.0,0.0,0.0,-4.4397,0.0,0.0,0.0,0.0,-4.4612,-4.475,-4.4935,-4.514,-4.5341,-4.5124,-4.4969,-4.4969,-4.4801,-4.4656,-4.4533,-4.436,-4.402,-4.352,-4.3195,-4.2657,-4.1969,-4.1648,-4.1356,-4.1088,-4.0758,-4.0402,0.0,0.0,0.0,-3.924,0.0,0.0,-3.7388,0.0,0.0,0.0,0.0,0.0,0.0,0.0,0.0,0.0,0.0,0.0,0.0,0.0,0.0,0.0,0.0,0.0,0.0,0.0,0.0,0.0,0.0,0.0,0.0,0.0,0.0,0.0,0.0,0.0,0.0,0.0,0.0,0.0,0.0,0.0,0.0,0.0,0.0,0.0,0.0,0.0,0.0,0.0,0.0,0.0,-2.1657,-2.1809,-2.21,-2.2554,-2.2735,-2.2848,-2.2952,-2.3475,-2.374,-2.3725,-2.4049,-2.4277,-2.4404,-2.4449,-2.4602,-2.4849,-2.4717,-2.5577,-2.7062,-2.7222,-2.7301,-2.7365,-2.7595,-2.7779,-2.7897,-2.7897,-2.7972,-2.8125,0.0,0.0,0.0,0.0,0.0,0.0,0.0,0.0,-4.4739,-4.4465,0.0,0.0,0.0,0.0,0.0,-4.5472,-4.5507,-4.5507,-4.5498,-4.5371,-4.5317,-4.5317,-4.5307,-4.5162,-4.4812,-4.48,-4.4552,-4.402,-4.3537,-4.3176,-4.2882,-4.1969,-4.1539,-4.1516,-4.1328,-4.1117,-4.0942,0.0,-4.1111,-4.0821,0.0,-3.9284,-3.9485,0.0,0.0,0.0,-3.6787,-3.6022,0.0,-3.4239,0.0,0.0,0.0,0.0,0.0,0.0,0.0,0.0,0.0,0.0,0.0,0.0,0.0,0.0,0.0,0.0,0.0,0.0,0.0,0.0,0.0,0.0,0.0,0.0,0.0,0.0,0.0,0.0,0.0,0.0,0.0,0.0,0.0,0.0,0.0,0.0,0.0,-2.0282,-2.0721,-2.1197,-2.1615,-2.2011,-2.2463,-2.2486,-2.2035,-2.2486,-2.2721,-2.2721,-2.2765,-2.2966,-2.3342,-2.3342,-2.3407,-2.3528,-2.3528,-2.434,-2.5704,-2.6129,-2.6404,-2.6607,-2.7317,-2.7592,-2.7624,-2.7609,-2.7609,-2.7624,0.0,0.0,0.0,0.0,0.0,0.0,-4.5565,-4.5541,-4.543,0.0,0.0,0.0,-4.5206,-4.5377,-4.5584,-4.5713,-4.572,-4.5694,-4.5645,-4.5524,-4.5437,-4.5437,-4.5351,-4.5277,-4.5227,-4.5004,-4.4726,-4.443,-4.411,-4.3638,-4.3032,-4.2774,-4.2505,-4.2223,-4.2162,-4.1973,-4.1687,-4.1547,0.0,-4.1316,-4.0249,-3.9551,0.0,0.0,0.0,0.0,0.0,-3.6055,-3.5666,0.0,-3.4487,-3.3282,0.0,0.0,0.0,0.0,0.0,0.0,-2.2317,0.0,0.0,0.0,0.0,0.0,0.0,0.0,0.0,0.0,0.0,0.0,0.0,0.0,0.0,0.0,0.0,0.0,0.0,0.0,0.0,0.0,0.0,0.0,0.0,0.0,0.0,0.0,-1.9526,-1.9656,-1.9798,-1.9901,-2.0016,-2.0144,-2.027,-2.027,-2.0144,-2.0606,-2.0851,-2.0851,-2.1527,-2.1773,-2.1614,-2.1885,-2.1899,-2.1661,-2.1661,-2.2098,-2.293,-2.401,-2.4662,-2.5003,-2.5067,-2.529,-2.5579,-2.545,-2.554,-2.5791,0.0,0.0,0.0,0.0,0.0,-4.5864,-4.5853,-4.5809,-4.5764,0.0,0.0,0.0,-4.5634,-4.577,-4.5881,-4.5881,-4.5881,-4.5875,-4.5838,-4.5703,-4.5634,-4.5634,-4.5539,-4.55,-4.5485,-4.5294,-4.5039,-4.4763,-4.4498,-4.4095,-4.3555,-4.3247,-4.2959,-4.2754,0.0,0.0,0.0,0.0,0.0,0.0,-4.0263,0.0,0.0,-3.7997,-3.7499,0.0,0.0,0.0,-3.6655,-3.6017,-3.4901,0.0,0.0,0.0,0.0,0.0,0.0,0.0,0.0,0.0,0.0,0.0,0.0,0.0,-2.1463,-2.1273,0.0,0.0,0.0,0.0,0.0,0.0,0.0,0.0,0.0,0.0,0.0,0.0,0.0,0.0,0.0,0.0,0.0,0.0,0.0,-1.8081,-1.812,-1.819,-1.834,-1.8463,-1.8504,-1.8504,-1.8768,-1.89,-1.89,-1.9503,-1.9825,-1.9825,-2.0357,-2.0357,-1.9915,-2.0142,-1.9978,-1.9558,-1.98,-2.0092,-2.0454,-2.1478,-2.2576,-2.3625,-2.3658,-2.3726,-2.3779,-2.3675,-2.3794,-2.4091,0.0,0.0,0.0,-4.6042,-4.6016,-4.5998,-4.593,-4.5883,-4.585,0.0,-4.5813,-4.5813,-4.5819,-4.594,-4.6037,-4.6037,-4.6037,-4.6037,-4.6013,-4.5899,-4.5813,-4.5813,-4.582,-4.5751,-4.5619,-4.5611,-4.5416,-4.503,-4.4751,-4.4484,-4.4206,-4.343,-4.3066,-4.3048,0.0,0.0,0.0,0.0,0.0,-4.137,-4.0,-3.9719,0.0,0.0,-3.8167,0.0,-3.786,-3.7701,-3.7726,-3.6294,-3.5012,0.0,0.0,0.0,0.0,0.0,-2.6623,0.0,0.0,0.0,0.0,0.0,0.0,0.0,-2.2197,-2.203,-2.1894,0.0,0.0,0.0,0.0,0.0,0.0,0.0,0.0,0.0,0.0,0.0,0.0,0.0,0.0,0.0,0.0,-1.6312,-1.6312,-1.6312,-1.6312,-1.6461,-1.6824,-1.7042,-1.7159,-1.7159,-1.7664,-1.7935,-1.7962,-1.8688,-1.9028,-1.9054,-1.9107,-1.8818,-1.8263,-1.8305,-1.8008,-1.7478,-1.8035,-1.829,-1.837,-1.8898,-2.0343,-2.2252,-2.2526,-2.2409,-2.2092,-2.1973,-2.2092,-2.2358,0.0,0.0,-4.6138,-4.6157,-4.6152,-4.6164,-4.6135,-4.6182,-4.6148,-4.5983,-4.5949,-4.5959,-4.5957,-4.6131,-4.6248,-4.6248,-4.6248,-4.6223,-4.615,-4.6041,-4.5949,-4.5949,-4.5867,-4.5757,-4.5676,-4.5676,-4.5505,-4.5169,-4.4884,-4.4624,-4.4341,-4.3326,-4.2863,-4.2844,-4.2131,0.0,0.0,0.0,0.0,-4.076,-4.0412,0.0,-4.0103,-3.8549,-3.7935,-3.7803,-3.7586,-3.7342,-3.6991,0.0,-3.5633,-3.522,0.0,0.0,0.0,0.0,0.0,0.0,0.0,0.0,0.0,0.0,0.0,0.0,-2.2173,-2.0848,-1.9966,0.0,0.0,0.0,0.0,0.0,0.0,0.0,0.0,0.0,0.0,0.0,0.0,0.0,0.0,0.0,0.0,-1.6312,-1.6312,-1.6312,-1.6312,-1.633,-1.6415,-1.6366,-1.6327,-1.6327,-1.6299,-1.6366,-1.6497,-1.6676,-1.68,-1.6922,-1.7224,-1.7169,-1.6743,-1.7047,-1.6974,-1.6574,-1.6687,-1.6918,-1.723,-1.7352,-1.8646,-2.0517,-1.9952,-1.9901,-2.0063,-1.9358,-1.932,-1.9661,0.0,0.0,-4.6112,-4.6145,-4.6186,-4.6205,-4.6207,-4.623,-4.6206,-4.6115,-4.6125,-4.6147,-4.6156,-4.624,-4.6292,-4.6292,-4.6292,-4.629,-4.6247,-4.6181,-4.6144,-4.6144,-4.6091,-4.5996,-4.5903,-4.584,-4.5708,-4.549,-4.5163,-4.471,-4.4132,-4.3356,-4.2772,-4.2333,-4.1831,0.0,0.0,0.0,-4.1521,-4.1058,-4.0596,0.0,-3.9517,-3.8266,-3.7807,-3.7756,-3.7578,-3.7246,-3.688,-3.6704,-3.627,0.0,0.0,-3.3458,-3.135,0.0,-2.8379,-2.6224,0.0,0.0,0.0,-2.3327,0.0,0.0,0.0,-2.1368,-2.0677,-2.1028,0.0,0.0,0.0,0.0,0.0,0.0,0.0,0.0,0.0,0.0,0.0,0.0,0.0,0.0,0.0,-1.5099,-1.4748,-1.4444,-1.4405,-1.4405,-1.4405,-1.4189,-1.407,-1.407,-1.4189,-1.4307,-1.4387,-1.5206,-1.565,-1.5717,-1.6299,-1.6348,-1.5864,-1.5717,-1.5371,-1.4904,-1.4885,-1.4974,-1.5187,-1.5533,-1.6061,-1.6775,-1.7269,-1.7455,-1.7378,-1.6629,-1.6513,-1.6802,-4.5893,0.0,0.0,-4.6076,-4.6137,-4.6171,-4.6171,-4.6199,-4.6192,-4.6209,-4.6248,-4.6279,-4.6279,-4.6279,-4.6279,-4.6279,-4.6279,-4.6279,-4.6279,-4.6274,-4.627,-4.627,-4.6285,-4.624,-4.6102,-4.5992,-4.5886,-4.5807,-4.5408,-4.4784,-4.3901,-4.3314,-4.254,-4.1653,-4.1344,0.0,0.0,0.0,0.0,-4.1037,0.0,-3.9948,-3.9372,-3.8277,-3.8129,-3.8384,-3.781,-3.7414,-3.717,-3.7339,0.0,-3.6032,-3.6232,-3.4373,0.0,0.0,0.0,0.0,0.0,0.0,0.0,0.0,0.0,-2.3118,0.0,0.0,0.0,-2.123,0.0,0.0,0.0,0.0,0.0,0.0,0.0,0.0,0.0,0.0,0.0,0.0,0.0,0.0,0.0,-1.3502,-1.294,-1.2473,-1.232,-1.2289,-1.2381,-1.2135,-1.195,-1.195,-1.2296,-1.2503,-1.2541,-1.3835,-1.4477,-1.4506,-1.5158,-1.5148,-1.4542,-1.3981,-1.3412,-1.2793,-1.2799,-1.2791,-1.2821,-1.3399,-1.3297,-1.2925,-1.4636,-1.5003,-1.4477,-1.3868,-1.3711,-1.3883,-4.584,-4.5899,0.0,0.0,-4.608,-4.6112,-4.6112,-4.6158,-4.6204,-4.6209,-4.6212,-4.6213,0.0,0.0,0.0,0.0,0.0,0.0,-4.6213,0.0,-4.621,-4.621,-4.6276,-4.624,-4.6102,-4.6091,-4.5983,-4.5807,-4.5519,-4.4863,-4.3881,-4.2872,-4.185,-4.0803,-4.0065,0.0,0.0,0.0,-3.9985,0.0,-3.9884,-4.0548,0.0,-3.9712,-3.9435,-3.9622,-3.8437,-3.7999,-3.7861,0.0,-3.688,-3.6661,0.0,-3.4518,-3.2741,0.0,0.0,0.0,0.0,0.0,0.0,0.0,-2.4337,0.0,0.0,0.0,-2.1198,-2.1135,0.0,0.0,0.0,0.0,0.0,0.0,0.0,0.0,0.0,0.0,0.0,0.0,0.0,0.0,0.0,0.0,-1.1897,-1.2297,-1.1711,-1.1549,-1.2035,-1.1919,-1.1834,-1.1834,-1.1703,-1.1726,-1.1888,-1.2066,-1.2212,-1.2335,-1.2427,-1.2143,-1.1503,-1.141,-1.0985,-1.0327,-1.0504,-1.0573,-1.0573,-1.0854,-1.0878,-1.0933,-1.2279,-1.2423,-1.1767,-1.1181,-1.094,-1.0971,-4.5635,-4.5791,0.0,0.0,0.0,0.0,0.0,0.0,-4.6142,-4.6142,-4.6189,0.0,0.0,0.0,0.0,0.0,0.0,-4.6202,0.0,0.0,-4.6202,0.0,0.0,0.0,-4.6153,-4.612,-4.6068,-4.5969,-4.5247,-4.4392,-4.3464,-4.2317,-4.1284,-4.039,-3.989,0.0,-3.9356,0.0,-3.9541,0.0,0.0,0.0,0.0,-3.9444,-3.9103,-3.9179,-3.864,-3.8285,-3.8085,0.0,-3.7487,0.0,0.0,0.0,0.0,0.0,0.0,0.0,0.0,0.0,0.0,0.0,0.0,0.0,-2.3878,0.0,-2.2537,0.0,0.0,0.0,0.0,0.0,0.0,0.0,0.0,0.0,0.0,0.0,0.0,0.0,0.0,0.0,0.0,0.0,0.0,0.0,0.0,-1.0325,-1.0811,-1.0699,-1.0636,-1.0636,-1.0446,-1.0383,-1.0471,-1.0968,-1.1041,-1.0683,-1.1183,-1.1037,-1.0347,-0.9958,-0.961,-0.9313,-0.9044,-0.8928,-0.8928,-0.9023,-0.8864,-0.8596,-0.883,-0.9295,-0.9731,-0.8772,-0.8399,-0.8399,-4.5361,0.0,0.0,0.0,0.0,0.0,0.0,0.0,0.0,0.0,0.0,0.0,-4.6145,-4.6145,0.0,0.0,-4.6145,-4.6145,0.0,0.0,-4.6167,0.0,0.0,0.0,0.0,-4.6175,-4.6138,-4.6098,-4.5074,-4.4117,-4.3176,-4.2055,-4.107,-4.0196,0.0,-3.975,-3.9514,0.0,0.0,-3.9115,-3.967,-3.9852,-3.9753,-3.9255,-3.8906,-3.8707,-3.8707,-3.8515,-3.8285,-3.8483,-3.793,0.0,-3.6925,0.0,0.0,0.0,0.0,0.0,-2.8701,0.0,0.0,0.0,0.0,0.0,0.0,0.0,0.0,0.0,0.0,0.0,0.0,0.0,0.0,0.0,0.0,0.0,0.0,0.0,0.0,0.0,0.0,0.0,0.0,0.0,0.0,-0.9748,-0.9114,-0.8891,-0.9274,-0.921,-0.9145,-0.9145,-0.9183,-0.9119,-0.8926,-0.9767,-0.9812,-0.9067,-0.9724,-0.9642,-0.8914,-0.8436,-0.7991,-0.7631,-0.7233,-0.6944,-0.6776,-0.6809,-0.658,-0.6187,-0.5665,-0.6138,-0.7025,-0.6298,-0.6015,-0.6011,-4.5038,-4.533,0.0,0.0,0.0,0.0,0.0,0.0,0.0,0.0,0.0,0.0,0.0,0.0,0.0,0.0,0.0,-4.6012,-4.6012,0.0,-4.6102,0.0,0.0,-4.6191,0.0,0.0,-4.6238,-4.6098,-4.5214,-4.4234,-4.3176,-4.2293,-4.1281,-4.0205,-4.0196,-3.992,-3.9514,-3.9514,-3.9311,-3.9011,-3.903,-3.8962,-3.8917,0.0,-3.9427,-3.8707,-3.8707,0.0,0.0,-3.8252,-3.8051,0.0,0.0,0.0,0.0,0.0,0.0,0.0,0.0,0.0,0.0,-2.7287,0.0,0.0,0.0,0.0,-2.3981,0.0,0.0,0.0,0.0,0.0,0.0,0.0,0.0,0.0,0.0,0.0,0.0,0.0,0.0,0.0,0.0,0.0,0.0,-0.8272,-0.7652,-0.7333,-0.7461,-0.7484,-0.7484,-0.7484,-0.8166,-0.8199,-0.7484,-0.8199,-0.8199,-0.7479,-0.7512,-0.7153,-0.6527,-0.6494,-0.5738,-0.445,-0.4622,-0.4289,-0.3651,-0.378,-0.3844,-0.3744,-0.3211,-0.3045,-0.3143,-0.3611,-0.3811,-0.3709,0.0,0.0,0.0,0.0,0.0,0.0,0.0,-4.5966,0.0,0.0,0.0,0.0,0.0,-4.6002,-4.6002,0.0,0.0,-4.6002,-4.6002,-4.6013,0.0,0.0,0.0,-4.6158,0.0,0.0,0.0,0.0,0.0,-4.3521,-4.259,-4.1571,-4.09,-4.0526,0.0,-4.0232,0.0,0.0,0.0,0.0,0.0,-3.9101,-3.8903,0.0,0.0,-3.8707,-3.8707,-3.8707,0.0,-3.853,-3.8271,-3.7805,-3.6631,-3.5508,-3.4329,-3.2936,-3.1704,0.0,0.0,0.0,-2.9597,-2.8717,0.0,0.0,0.0,0.0,0.0,0.0,0.0,0.0,0.0,0.0,0.0,0.0,0.0,0.0,0.0,0.0,0.0,0.0,0.0,0.0,0.0,0.0,0.0,-0.7722,-0.7392,-0.7328,0.0,-0.7456,-0.7386,-0.7386,-0.7647,-0.7647,-0.7386,-0.7647,-0.7414,-0.6728,-0.6256,-0.5665,-0.4981,-0.4511,-0.4013,-0.3585,-0.3651,-0.3518,-0.3284,-0.2978,-0.2909,-0.2943,-0.2041,-0.1773,-0.1872,-0.2044,-0.2114,-0.2045,-4.4629,0.0,0.0,0.0,0.0,0.0,0.0,0.0,0.0,0.0,-4.5828,0.0,-4.5899,0.0,-4.5953,0.0,-4.598,-4.6002,-4.6002,-4.6002,0.0,-4.6002,-4.6056,0.0,0.0,0.0,0.0,0.0,0.0,-4.3184,-4.2283,-4.1276,-4.0762,-4.0694,0.0,-4.0438,-4.0205,0.0,-4.0042,0.0,0.0,-3.9376,0.0,0.0,-3.881,-3.8735,0.0,-3.8707,-3.8707,-3.8707,-3.8269,-3.7542,-3.6528,-3.5434,-3.4253,-3.2866,-3.1888,-3.1135,-3.0645,-3.0477,0.0,-2.9524,-2.9323,0.0,-2.7871,0.0,0.0,0.0,0.0,0.0,0.0,0.0,0.0,0.0,0.0,0.0,0.0,-1.0125,0.0,0.0,0.0,0.0,0.0,0.0,-0.7187,-0.7182,-0.707,-0.7014,0.0,0.0,-0.6768,-0.6768,-0.6931,-0.6929,-0.6704,-0.6929,-0.6695,-0.6042,-0.5573,-0.4978,-0.4287,-0.3818,-0.3316,-0.2815,-0.2815,-0.2681,-0.2414,-0.2078,-0.1909,-0.1775,-0.1073,-0.0737,-0.0669,-0.0671,-0.0504,-0.0235,0.0,0.0,0.0,0.0,-4.5194,0.0,0.0,0.0,-4.5342,0.0,-4.5481,-4.5535,-4.5665,-4.5798,-4.586,-4.5874,-4.5941,0.0,-4.5997,-4.5997,0.0,0.0,-4.6052,-4.6095,-4.6098,0.0,0.0,0.0,0.0,0.0,-4.223,-4.1383,-4.0889,-4.0706,-4.07,0.0,-4.0223,-4.0223,-4.0062,-3.9808,-3.9755,-3.9717,-3.967,-3.9259,-3.8974,-3.8807,-3.8719,-3.8707,-3.8689,-3.8652,-3.8013,-3.7005,-3.5831,-3.4796,-3.3714,-3.2193,-3.1714,-3.1528,-3.0747,-3.0435,-3.0246,-2.9772,0.0,0.0,0.0,0.0,-2.7435,0.0,0.0,0.0,0.0,0.0,0.0,0.0,0.0,0.0,0.0,0.0,0.0,0.0,0.0,0.0,0.0,-0.6521,-0.6537,-0.654,-0.6518,0.0,0.0,0.0,-0.5561,-0.5589,-0.6074,-0.6017,-0.5395,-0.5976,-0.5943,-0.5329,-0.5259,-0.4858,-0.4187,-0.4154,-0.3382,-0.2045,-0.2012,-0.1644,-0.1042,-0.1008,-0.0672,-0.0202,-0.0202,0.0168,0.0638,0.0605,0.1075,0.1748,-4.4042,-4.4378,-4.4578,0.0,-4.4927,-4.5142,0.0,0.0,0.0,0.0,-4.5314,-4.5314,-4.5399,-4.5435,-4.5513,-4.5661,-4.5679,0.0,0.0,0.0,0.0,-4.6008,-4.6017,-4.6054,-4.6098,-4.5471,0.0,-4.3926,0.0,0.0,-4.1406,-4.1131,-4.0922,-4.0766,0.0,0.0,-4.0414,-4.0414,-4.0304,-4.0101,-4.0081,-3.9939,0.0,0.0,-3.9197,-3.9059,-3.8795,-3.8707,-3.8615,-3.8025,-3.7537,-3.6945,-3.5445,-3.454,-3.3764,-3.2511,-3.1932,-3.1601,-3.1137,-3.0918,-3.0797,-3.0675,-3.0321,-2.9913,0.0,0.0,0.0,0.0,0.0,0.0,0.0,0.0,0.0,0.0,0.0,0.0,0.0,0.0,0.0,0.0,0.0,0.0,-0.4579,-0.5204,-0.5577,-0.5422,-0.5444,0.0,0.0,0.0,0.0,-0.5593,-0.5199,-0.5125,-0.5395,-0.4483,-0.4215,-0.4556,-0.3485,-0.2848,-0.2648,-0.2147,-0.1712,-0.1344,-0.094,-0.0671,-0.0437,0.037,0.0773,0.0941,0.1379,0.1947,0.2447,0.2047,0.2616,0.362,-4.3677,0.0,0.0,-4.4321,0.0,0.0,-4.4845,0.0,0.0,-4.5041,-4.5,0.0,-4.5118,-4.5173,-4.5246,-4.537,-4.553,0.0,-4.5756,0.0,0.0,-4.5997,-4.6005,-4.5852,-4.5538,-4.5051,0.0,-4.3021,0.0,0.0,-4.1109,-4.1066,-4.0964,-4.0806,0.0,-4.0655,0.0,-4.0496,-4.0425,-4.0295,-3.9867,0.0,0.0,-3.8604,-3.8278,-3.8195,-3.7782,-3.7881,-3.8046,-3.7254,-3.6633,-3.6006,-3.4912,-3.4112,-3.3351,-3.2336,-3.1878,-3.162,-3.1232,-3.1052,-3.0935,-3.0875,-3.0447,-2.9957,-2.9661,-2.8957,-2.8258,0.0,0.0,0.0,0.0,0.0,0.0,0.0,0.0,0.0,0.0,0.0,0.0,0.0,-0.5043,0.0,-0.3841,-0.4851,-0.5434,-0.5162,0.0,0.0,0.0,0.0,0.0,-0.575,-0.4947,-0.468,-0.5018,-0.3809,-0.3416,-0.3818,-0.2982,-0.2414,-0.2079,-0.1712,-0.1377,-0.1076,-0.0538,-0.0302,-0.0235,0.0605,0.1076,0.1378,0.2284,0.3251,0.4146,0.3882,0.4018,0.4253,0.0,0.0,0.0,0.0,0.0,0.0,0.0,-4.4487,0.0,-4.4659,0.0,-4.4725,-4.4833,-4.4953,-4.503,-4.5063,0.0,-4.5519,-4.5587,-4.5822,-4.5949,-4.5986,-4.5897,-4.5506,-4.4801,-4.456,0.0,0.0,0.0,0.0,-4.1109,-4.1109,-4.1005,0.0,0.0,0.0,0.0,-4.0169,-4.0165,0.0,-3.9279,-3.8942,-3.8762,-3.7492,-3.7005,-3.6892,-3.633,-3.6652,-3.7217,-3.6395,-3.5581,-3.4826,-3.4361,-3.3625,-3.2766,-3.1986,-3.1695,-3.1545,-3.1117,-3.0952,-3.0851,-3.0651,-3.0199,-2.9661,-2.9212,-2.8732,-2.836,-2.8216,-2.7929,-2.769,0.0,0.0,0.0,0.0,0.0,0.0,0.0,0.0,0.0,0.0,0.0,0.0,0.0,-0.4968,-0.555,0.0,0.0,0.0,0.0,0.0,0.0,-0.584,-0.4913,0.0,-0.4503,0.0,-0.296,-0.3049,-0.2982,-0.2581,-0.198,-0.198,-0.1611,-0.0975,-0.0437,-0.0168,-0.0034,0.0538,0.1075,0.168,0.285,0.4146,0.5378,0.5448,0.5117,0.4553,0.0,0.0,0.0,0.0,0.0,-4.417,-4.417,-4.4368,-4.4515,-4.4524,-4.4542,-4.4537,-4.4565,-4.4605,-4.4674,-4.4843,-4.4919,0.0,0.0,0.0,0.0,-4.5912,-4.527,-4.486,-4.4721,-4.3368,-4.2541,0.0,0.0,0.0,0.0,0.0,0.0,0.0,0.0,0.0,-3.843,-3.843,0.0,-3.8416,-3.8262,-3.8057,-3.7812,-3.7291,-3.6979,-3.6684,-3.5611,-3.5789,-3.6376,-3.5518,-3.5072,-3.4745,-3.3978,-3.3158,-3.2469,-3.2266,-3.1768,-3.1252,-3.1055,-3.0952,-3.0773,-3.0241,-2.9946,-2.9661,-2.9212,-2.9028,-2.8709,-2.7819,-2.7947,-2.7595,-2.5672,0.0,0.0,0.0,0.0,0.0,0.0,0.0,0.0,0.0,0.0,0.0,0.0,0.0,0.0,0.0,0.0,0.0,0.0,0.0,0.0,0.0,-0.4256,0.0,0.0,0.0,-0.1752,-0.228,-0.1745,-0.1411,-0.1276,-0.1276,-0.0974,-0.0403,0.0134,0.0605,0.1076,0.1947,0.2519,0.2922,0.3585,0.4384,0.5153,0.4981,0.558,0.6412,0.0,0.0,0.0,0.0,0.0,0.0,0.0,-4.4124,0.0,-4.4292,-4.4411,-4.4501,-4.4501,-4.4501,-4.4537,-4.4648,-4.4733,-4.4954,-4.5323,-4.5084,-4.5024,-4.5209,-4.4444,0.0,-4.3408,-4.2606,-4.201,-4.1629,0.0,0.0,0.0,0.0,0.0,0.0,0.0,-3.86,0.0,0.0,0.0,-3.7913,-3.7456,-3.7186,-3.695,-3.6226,-3.5819,-3.553,-3.4834,-3.4773,-3.4945,-3.4523,-3.4321,-3.4136,-3.3277,-3.2731,-3.2317,-3.1859,-3.1485,-3.1095,-3.0658,-3.0514,-3.0326,-2.9683,-2.9287,-2.895,-2.8732,-2.8511,-2.8076,-2.717,-2.7195,-2.6727,-2.4612,-2.236,0.0,0.0,0.0,0.0,0.0,0.0,0.0,0.0,0.0,0.0,0.0,0.0,0.0,0.0,0.0,0.0,0.0,0.0,0.0,0.0,0.0,0.0,0.0,0.0,0.0,-0.127,-0.0927,-0.0614,-0.0269,-0.0269,0.0067,0.0705,0.1242,0.1646,0.1947,0.295,0.3687,0.4223,0.4782,0.5411,0.605,0.6042,0.6474,0.6975,0.0,-4.3124,0.0,0.0,-4.3477,0.0,-4.3612,-4.3841,-4.403,-4.4091,-4.4335,-4.4501,-4.4501,-4.4501,-4.4501,-4.4501,-4.4491,-4.4602,-4.4894,-4.4315,-4.4076,-4.4312,-4.3552,-4.2823,-4.2197,-4.2014,-4.1609,0.0,0.0,0.0,0.0,0.0,0.0,0.0,0.0,0.0,0.0,0.0,-3.7488,-3.7318,-3.6623,-3.6281,-3.6097,-3.5229,-3.4733,-3.442,-3.4262,-3.4023,-3.3793,-3.3721,-3.3652,-3.3465,-3.2747,-3.2401,-3.2162,-3.1504,-3.1193,-3.0898,-3.0272,-3.0038,-2.9799,-2.9104,-2.8614,-2.824,-2.7997,-2.768,-2.7163,-2.631,-2.585,-2.5218,-2.382,-2.1961,0.0,0.0,0.0,0.0,0.0,0.0,0.0,0.0,0.0,0.0,0.0,0.0,0.0,0.0,0.0,0.0,0.0,0.0,0.0,0.0,0.0,-0.1862,-0.1851,0.0,-0.0508,-0.0495,-0.0492,-0.0138,0.0508,0.0505,0.0974,0.1811,0.2214,0.2517,0.2751,0.3618,0.4353,0.499,0.5646,0.621,0.6753,0.7155,0.7334,0.7235,0.0,0.0,0.0,0.0,0.0,0.0,0.0,-4.3562,-4.3825,-4.4079,-4.4335,-4.4501,-4.4501,-4.4501,-4.4501,-4.4501,-4.3847,-4.3611,-4.3994,-4.3292,-4.3022,-4.3402,-4.2656,-4.2194,-4.2106,-4.1396,-4.098,0.0,0.0,0.0,0.0,0.0,0.0,0.0,0.0,0.0,0.0,-3.5839,-3.5765,-3.5636,-3.5559,-3.5369,-3.512,-3.4963,-3.4655,-3.4316,-3.4233,-3.4023,-3.3748,-3.3451,-3.3288,-3.3169,-3.2718,-3.2248,-3.1825,-3.1695,-3.1145,-3.0497,-3.0187,-2.9783,-2.9293,-2.8551,-2.8336,-2.8061,-2.7071,-2.6826,-2.6416,-2.5119,-2.3758,-2.2792,-2.2807,-2.1369,-1.9726,0.0,0.0,0.0,0.0,0.0,0.0,0.0,0.0,0.0,0.0,0.0,0.0,0.0,0.0,0.0,0.0,0.0,0.0,-0.2391,0.0,-0.2127,-0.2079,-0.1095,-0.0559,-0.0508,-0.0496,-0.014,0.0488,0.051,0.1175,0.2315,0.2383,0.2885,0.3689,0.3792,0.4028,0.4464,0.5491,0.5921,0.6139,0.7308,0.7749,0.7743,0.0,0.0,0.0,0.0,0.0,0.0,0.0,-4.2794,-4.2826,-4.3103,-4.3915,-4.4501,-4.4501,-4.4083,-4.3782,-4.3782,-4.3013,-4.2681,-4.3052,-4.2345,-4.2068,-4.2447,-4.1778,-4.1377,-4.1371,-4.1048,-4.0893,0.0,0.0,0.0,0.0,0.0,0.0,0.0,0.0,-3.6187,-3.5764,-3.5693,-3.5568,-3.5451,-3.5379,-3.5285,-3.5157,-3.4963,-3.4694,-3.4405,-3.425,-3.4023,-3.3707,-3.3124,-3.3034,-3.3032,-3.2436,-3.2021,-3.1641,-3.1128,-3.069,-3.0208,-2.9451,-2.9065,-2.8614,-2.7575,-2.7338,-2.7133,-2.6336,-2.6095,-2.5755,-2.4794,-2.3314,-2.2132,-2.1799,-2.0579,-1.9332,0.0,0.0,0.0,0.0,0.0,0.0,0.0,0.0,0.0,0.0,0.0,0.0,0.0,0.0,0.0,0.0,0.0,0.0,-0.1999,0.0,-0.0937,-0.1005,-0.0503,-0.0229,-0.0186,-0.0185,0.0437,0.1575,0.1498,0.2215,0.3525,0.3525,0.3925,0.4589,0.4924,0.541,0.6003,0.6743,0.7116,0.7293,0.779,0.7996,0.8025,-4.1375,0.0,-4.1474,0.0,-4.1789,-4.1908,-4.1908,-4.1814,-4.1831,-4.2113,-4.3048,-4.3713,-4.3769,-4.3275,-4.2919,-4.2919,-4.2136,-4.1801,-4.2155,-4.1466,-4.1215,-4.1564,-4.112,0.0,-4.0898,-4.0898,-4.0907,-4.0907,-4.0084,0.0,0.0,0.0,0.0,0.0,-3.5992,-3.5953,-3.5858,-3.5749,-3.5616,-3.5482,-3.5338,-3.5285,-3.5245,-3.4992,-3.4743,-3.4475,-3.4274,-3.3954,-3.3522,-3.2908,-3.2716,-3.2617,-3.1986,-3.1603,-3.1242,-3.0666,-3.0208,-2.9673,-2.8686,-2.824,-2.7765,-2.6707,-2.6457,-2.6229,-2.5494,-2.5176,-2.4769,-2.3774,-2.2488,-2.1322,-2.0698,-1.9694,-1.8767,-1.8065,0.0,0.0,0.0,0.0,0.0,0.0,-0.7292,-0.5631,-0.3869,0.0,0.0,0.0,0.0,0.0,0.0,0.0,0.0,0.0,0.0,0.0,0.0,-0.0118,0.0,0.0,0.0266,0.1049,0.2316,0.2685,0.343,0.4438,0.4606,0.491,0.528,0.5861,0.6378,0.6904,0.7453,0.7748,0.7877,0.8115,0.8282,0.8382,-3.9367,-3.9446,-3.9565,-3.9948,-4.0196,-4.0327,-4.0327,-4.0669,-4.1003,-4.128,-4.1557,-4.1806,-4.1997,-4.2023,-4.2023,-4.2023,-4.1285,-4.0969,-4.1389,-4.0654,-4.0394,0.0,0.0,-4.0833,-4.0907,-4.0907,-4.0907,-4.0907,0.0,0.0,-3.8487,0.0,-3.6012,-3.5992,-3.5992,-3.5929,-3.5804,-3.5725,-3.5614,-3.5496,-3.5361,-3.5261,-3.5185,-3.4982,-3.4743,-3.4475,-3.4274,-3.3778,-3.3154,-3.2813,-3.2317,-3.1752,-3.1413,-3.0945,-3.0518,-3.0497,-2.9755,-2.8772,-2.8018,-2.7364,-2.6745,-2.6,-2.581,-2.5522,-2.4469,-2.3939,-2.328,-2.1741,-2.0741,-1.9966,-1.9431,-1.8754,-1.7954,-1.6811,0.0,0.0,0.0,0.0,0.0,0.0,-0.7292,-0.555,-0.3595,0.0,0.0,0.0,0.0,0.0,0.0,0.0,0.0,-0.0314,-0.0314,0.0,-0.0314,-0.0118,0.0,0.0,0.0879,0.1625,0.234,0.3933,0.4687,0.472,0.5326,0.5574,0.5646,0.623,0.648,0.6555,0.7086,0.73,0.7397,0.8139,0.8648,0.9008,-3.8916,-3.9168,-3.9415,-3.9676,-3.9893,-4.0068,-4.0217,-4.0161,-4.0164,-4.0453,-4.0191,-4.0093,-4.0353,-4.0854,-4.1191,0.0,-4.044,-4.0108,0.0,-4.0281,-4.0369,-4.0718,-4.0823,-4.0874,-4.0907,-4.0364,-4.0079,-4.0077,0.0,0.0,0.0,-3.6255,-3.6009,-3.6004,-3.6009,-3.5929,-3.5785,-3.5689,-3.557,-3.5489,-3.53,-3.5218,-3.5157,-3.4774,-3.4572,-3.4453,-3.4068,-3.3602,-3.3121,-3.2715,-3.2004,-3.1257,-3.0871,-3.0642,-3.0276,-2.9123,-2.8497,-2.792,-2.6865,-2.6359,-2.6,-2.5398,-2.4979,-2.4441,-2.3467,-2.2658,-2.1705,-2.0268,-1.9759,-1.9233,-1.8216,-1.7535,-1.6837,-1.5948,-1.5269,0.0,0.0,0.0,0.0,0.0,-0.6598,-0.5126,0.0,-0.3209,0.0,0.0,0.0,0.0,0.0,0.0,0.0,0.0,-0.0236,0.0,-0.0314,-0.0118,0.0,0.0,0.0895,0.1957,0.321,0.4269,0.4987,0.5329,0.5509,0.6047,0.6762,0.698,0.7484,0.822,0.8401,0.8707,0.9109,0.9335,0.951,0.9627,-3.761,-3.7888,-3.8164,-3.8651,-3.8906,-3.9096,-3.9319,-3.9291,-3.9357,-3.9622,-3.9393,-3.9309,-3.9564,-4.0059,0.0,-4.0347,-3.989,-3.9743,-4.0053,-4.0155,-4.0365,-4.0756,-4.0858,-4.0762,-4.0461,0.0,0.0,-3.9211,-3.7858,-3.6796,-3.5992,-3.5992,-3.5983,-3.5964,-3.5947,-3.5855,-3.5749,-3.5592,-3.5504,-3.5445,-3.5278,-3.5209,-3.5149,-3.4675,-3.4508,-3.4412,-3.3787,-3.3302,-3.284,-3.2177,-3.1482,-3.0747,-2.9972,-2.9663,-2.9365,-2.8316,-2.7674,-2.7085,-2.5984,-2.5453,-2.5063,-2.4536,-2.3888,-2.308,-2.1837,-2.0983,-2.0074,-1.8834,-1.8576,-1.8273,-1.726,-1.6594,-1.5877,-1.5119,-1.396,-1.2647,-1.1106,0.0,0.0,0.0,0.0,0.0,0.0,-0.2701,-0.192,0.0,0.0,0.0,0.0,0.0,0.0,-0.0393,-0.0118,0.0,-0.0196,-0.0079,0.0,0.0,0.1176,0.2601,0.4137,0.4635,0.5084,0.5522,0.607,0.6768,0.7509,0.8057,0.8685,0.9326,0.9326,0.9564,0.9884,0.9884,0.9992,1.0143,-3.582,-3.5972,0.0,0.0,-3.7484,0.0,-3.7881,-3.8254,-3.8603,-3.8862,-3.9078,-3.9309,-3.9564,-3.9589,-3.9589,-3.9589,0.0,0.0,0.0,-4.0201,-4.04,-4.0789,-4.0805,-4.0432,-3.9621,-3.9547,-3.9081,-3.8233,-3.7471,-3.6736,-3.5992,-3.5989,-3.5951,-3.5886,-3.5827,-3.5745,-3.5664,-3.5475,-3.5406,-3.5371,-3.5246,-3.5185,-3.5132,-3.4655,-3.4456,-3.4315,-3.351,-3.289,-3.2298,-3.1409,-3.0824,-3.023,-2.8919,-2.8242,-2.7896,-2.7832,-2.7125,-2.6176,-2.5315,-2.4597,-2.3962,-2.3467,-2.2647,-2.1518,-1.9825,-1.9056,-1.8432,-1.7545,-1.7339,-1.7166,-1.6559,-1.5842,-1.5048,-1.4191,-1.2195,-1.0648,-1.0312,0.0,0.0,0.0,0.0,0.0,0.0,-0.2115,-0.1215,0.0,0.0,0.0,0.0,0.0,-0.0157,0.0,0.0,0.0,0.0,0.0,0.0079,0.0196,0.184,0.3482,0.5054,0.5054,0.5168,0.5476,0.6892,0.7659,0.7974,0.9344,0.9916,0.996,0.996,0.9954,0.9992,0.9992,1.0218,1.0556,0.0,0.0,-3.6913,-3.7429,-3.7576,-3.7721,-3.8072,-3.8336,-3.8603,-3.8862,-3.9078,-3.9309,-3.9564,-3.9589,-3.9589,-3.9589,-3.9731,-3.9927,-4.0186,-4.0337,-4.0261,-3.9915,-3.9961,-3.9577,-3.8732,-3.8052,-3.731,-3.6498,-3.6345,-3.6195,-3.5991,-3.5897,-3.5841,-3.5814,-3.5706,-3.5606,-3.5546,-3.5445,-3.5378,-3.5297,-3.5072,-3.4973,-3.4917,-3.4458,-3.4043,-3.369,-3.3339,-3.2681,-3.188,-3.1297,-3.0586,-2.9777,-2.8818,-2.7819,-2.6909,-2.6332,-2.5549,-2.4727,-2.4031,-2.3399,-2.2955,-2.2829,-2.1631,-2.0224,-1.9212,-1.8331,-1.7535,-1.6915,-1.6786,-1.6385,-1.5092,-1.47,-1.3852,-1.1753,-1.094,-0.99,-0.8028,-0.708,0.0,0.0,-0.5204,-0.4265,-0.2738,-0.2387,-0.1644,0.0,0.0,0.0,0.0,0.0314,0.0275,0.0,0.0,0.0,0.0,0.0,0.0706,0.2154,0.3207,0.4343,0.5443,0.5443,0.575,0.6328,0.7322,0.8008,0.8546,0.9501,1.0067,1.0368,1.0368,1.055,1.0812,1.0812,1.0887,1.0962,-3.655,-3.6774,-3.7069,-3.7649,-3.7739,-3.7881,-3.8289,-3.8525,-3.877,-3.9007,-3.9242,-3.9445,-3.9577,-3.9589,-3.9469,-3.9165,-3.961,-3.9829,-3.9668,-3.9835,-3.9676,-3.9073,-3.9087,-3.8695,-3.7821,-3.7378,-3.6759,-3.5952,-3.598,-3.5963,-3.5901,-3.5828,-3.5744,-3.5664,-3.5551,-3.5476,-3.5407,-3.5348,-3.5224,-3.5089,-3.4964,-3.4831,-3.4653,-3.4092,-3.3726,-3.3428,-3.2787,-3.2092,-3.1387,-3.0727,-2.9935,-2.9027,-2.7991,-2.6842,-2.5741,-2.498,-2.4469,-2.3965,-2.322,-2.2689,-2.2082,-2.1298,-2.0063,-1.887,-1.7983,-1.7389,-1.6777,-1.5886,-1.5675,-1.5163,-1.352,-1.2932,-1.2041,-1.0077,-0.9138,-0.8168,-0.678,-0.5809,0.0,-0.5165,-0.407,-0.3052,-0.2425,-0.1683,-0.0823,0.0196,0.0393,0.0,0.0432,0.055,0.051,0.0275,0.0275,0.0275,0.0275,0.0667,0.1568,0.2935,0.383,0.4732,0.5598,0.5598,0.6057,0.6903,0.774,0.8504,0.9306,1.0099,1.0588,1.0775,1.0775,1.0925,1.1111,1.1186,1.1223,1.126,-3.6676,-3.6853,-3.7089,-3.7739,-3.7916,-3.8053,-3.8446,-3.8743,-3.8964,-3.917,-3.9406,-3.9496,-3.942,-3.9426,-3.9168,-3.8454,-3.9142,-3.9376,-3.8882,-3.904,-3.8862,-3.8218,-3.8207,-3.7802,-3.6938,-3.6975,-3.6678,-3.5991,-3.5991,-3.5929,-3.5804,-3.5772,-3.5676,-3.5489,-3.5393,-3.5321,-3.5237,-3.5185,-3.5027,-3.4841,-3.4753,-3.4572,-3.4274,-3.3637,-3.333,-3.3125,-3.2074,-3.1387,-3.0873,-2.9924,-2.9073,-2.8209,-2.6909,-2.5727,-2.4642,-2.3846,-2.3535,-2.3284,-2.2592,-2.1978,-2.1101,-1.9519,-1.8465,-1.7628,-1.6629,-1.6359,-1.593,-1.4673,-1.4307,-1.3672,-1.2004,-1.1045,-1.0077,-0.8722,-0.7333,-0.6311,-0.5851,0.0,-0.3988,-0.4623,-0.274,-0.1605,-0.2112,-0.0745,0.0275,0.0589,0.0628,0.0628,0.0628,0.0668,0.0746,0.0864,0.0707,0.0668,0.0785,0.1763,0.2623,0.3365,0.4217,0.5002,0.5715,0.5715,0.6289,0.728,0.808,0.8998,0.996,1.0775,1.1111,1.1111,1.1149,1.1149,1.1186,1.1372,1.1446,1.1484,-3.693,-3.7124,-3.7316,-3.7594,-3.7932,-3.8234,-3.846,-3.8743,-3.8964,-3.917,-3.9237,-3.9074,-3.8558,-3.8652,-3.8426,-3.7578,-3.7948,-3.8197,-3.8166,-3.834,-3.8088,-3.7254,-3.7262,-3.6927,-3.6103,-3.6099,-3.6072,-3.6001,-3.6001,-3.5936,-3.5807,-3.5676,-3.556,-3.5412,-3.5285,-3.5122,-3.4964,-3.4955,-3.4803,-3.4529,-3.4068,-3.3792,-3.3592,-3.3036,-3.2516,-3.1987,-3.1409,-3.0946,-3.0406,-2.9125,-2.841,-2.7783,-2.6048,-2.5037,-2.4229,-2.2972,-2.2206,-2.1753,-2.1639,-2.0666,-1.9453,-1.8465,-1.7721,-1.6966,-1.5834,-1.5242,-1.4673,-1.3854,-1.2946,-1.2004,-1.094,-0.9889,-0.8647,-0.6881,-0.6391,-0.5693,-0.4059,0.0,-0.3439,-0.3405,-0.2464,-0.1839,-0.192,-0.1058,-0.0157,0.055,0.0746,0.0864,0.0864,0.1061,0.1492,0.2198,0.1178,0.0942,0.1686,0.3244,0.4178,0.4453,0.5273,0.5864,0.6183,0.6183,0.6641,0.748,0.8318,0.9122,0.996,1.0775,1.1111,1.1111,1.1298,1.1335,1.1372,1.1595,1.1632,1.1706,-3.741,-3.7649,-3.7844,-3.8051,-3.8348,-3.8646,-3.884,-3.8989,-3.898,-3.8745,-3.8714,-3.8465,-3.783,-3.7877,-3.769,-3.7028,-3.7185,-3.7179,-3.6834,-3.7303,-3.7239,-3.6399,-3.6417,-3.6284,-3.5903,-3.5937,-3.5978,-3.5992,-3.5929,-3.5817,-3.5696,-3.556,-3.5419,-3.5285,-3.5113,-3.4992,-3.4879,-3.4753,-3.4405,-3.3951,-3.3695,-3.3338,-3.2909,-3.2416,-3.188,-3.1369,-3.0943,-3.0189,-2.9307,-2.8505,-2.747,-2.6337,-2.5177,-2.4129,-2.3067,-2.1787,-2.1026,-2.0494,-2.0312,-1.9212,-1.8027,-1.7619,-1.6645,-1.5623,-1.5092,-1.4032,-1.2939,-1.2215,-1.1193,-1.0028,-0.8614,-0.7935,-0.6984,-0.5029,-0.4681,0.0,0.0,-0.2581,-0.2543,-0.2464,-0.1722,-0.1176,-0.1058,-0.0274,0.0432,0.0943,0.1061,0.11,0.11,0.1649,0.2119,0.247,0.239,0.2506,0.2935,0.4103,0.4766,0.4885,0.5709,0.618,0.63,0.676,0.7369,0.8208,0.9008,0.9873,1.0738,1.1111,1.1335,1.1446,1.1521,1.1632,1.1744,1.1966,1.2077,1.2224,-3.7721,-3.8002,-3.8185,-3.8396,-3.868,-3.889,-3.8928,-3.8958,-3.8763,-3.8124,-3.807,-3.7834,-3.7135,-3.7167,-3.702,-3.6472,-3.6516,-3.635,-3.584,-3.6397,-3.6468,-3.5846,-3.5875,-3.59,-3.5897,-3.5975,-3.5988,-3.5946,-3.5843,-3.5713,-3.5557,-3.5393,-3.5265,-3.5115,-3.4908,-3.4763,-3.4693,-3.4383,-3.3938,-3.3377,-3.3216,-3.2764,-3.2144,-3.1699,-3.1159,-3.0597,-3.0201,-2.9268,-2.8146,-2.757,-2.6364,-2.4968,-2.4187,-2.3067,-2.1822,-2.0749,-1.9814,-1.9135,-1.8857,-1.777,-1.6645,-1.6507,-1.5182,-1.3932,-1.3715,-1.2408,-1.1076,-1.0306,-0.9326,-0.8078,-0.6531,-0.5996,-0.5181,-0.3398,0.0,0.0,0.0,-0.1527,-0.1528,-0.1447,-0.0706,-0.0196,-0.0235,0.051,0.1061,0.1296,0.1296,0.1375,0.1571,0.2158,0.2666,0.3056,0.3715,0.4066,0.4066,0.4885,0.5318,0.5318,0.6022,0.6335,0.6338,0.7215,0.805,0.8813,0.9685,1.0588,1.1484,1.1521,1.1632,1.1781,1.1855,1.2003,1.2157,1.2378,1.2526,1.2709,-3.7613,-3.7775,-3.7985,-3.8201,-3.8603,-3.8724,-3.8165,-3.8247,-3.8117,-3.7378,-3.7385,-3.7195,-3.6452,-3.6596,-3.6434,-3.5669,-3.576,-3.5853,-3.5803,-3.5914,-3.5958,-3.5903,-3.5908,-3.5898,-3.5894,-3.5968,-3.5938,-3.5806,-3.5799,-3.5679,-3.5412,-3.5205,-3.5047,-3.4898,-3.4653,-3.4375,-3.413,-3.3734,-3.3413,-3.3078,-3.2384,-3.1755,-3.1166,-3.0818,-3.0138,-2.9275,-2.8802,-2.813,-2.7269,-2.5953,-2.5051,-2.4244,-2.2942,-2.1811,-2.0792,-2.0085,-1.8626,-1.7276,-1.7276,-1.6393,-1.5376,-1.47,-1.3295,-1.1857,-1.1014,-1.0071,-0.917,-0.8452,-0.746,-0.6419,-0.5562,-0.4443,-0.332,-0.2423,0.0,0.0,-0.0587,-0.0431,-0.0352,-0.0157,0.0628,0.0863,0.0039,0.0746,0.1296,0.1296,0.1296,0.161,0.2354,0.247,0.3212,0.4771,0.4885,0.4924,0.4924,0.5786,0.6222,0.6222,0.6447,0.649,0.6338,0.7514,0.8389,0.9036,1.0045,1.0907,1.1706,1.1892,1.1966,1.2003,1.2378,1.2526,1.2562,1.2783,1.2863,1.29,-3.8119,-3.835,-3.8425,-3.8132,-3.8326,-3.8302,-3.7619,-3.757,-3.7373,-3.6739,-3.6692,-3.6476,-3.5866,-3.5894,-3.5877,-3.5702,-3.577,-3.5826,-3.5859,-3.5894,-3.5899,-3.5905,-3.5898,-3.5884,-3.5836,-3.5864,-3.5802,-3.5689,-3.5585,-3.5494,-3.5391,-3.5064,-3.4879,-3.4803,-3.412,-3.376,-3.362,-3.3105,-3.2643,-3.2247,-3.1665,-3.1176,-3.0677,-3.0255,-2.9546,-2.8709,-2.8338,-2.7294,-2.5953,-2.5038,-2.4042,-2.2947,-2.1768,-2.0855,-1.9912,-1.8536,-1.6895,-1.5517,-1.5403,-1.5048,-1.4363,-1.2961,-1.1821,-1.0785,-0.9884,-0.8571,-0.7405,-0.6996,-0.5684,-0.4445,-0.4021,-0.3124,-0.2149,-0.1174,0.0,-0.0548,0.0549,0.0235,0.0118,0.0746,0.0628,0.0588,0.0785,0.1569,0.2041,0.2041,0.2547,0.2974,0.3288,0.391,0.4841,0.6128,0.6163,0.6051,0.5828,0.6254,0.649,0.649,0.6676,0.6753,0.6714,0.8199,0.8955,0.9258,1.0795,1.1663,1.2077,1.2298,1.2452,1.2562,1.2716,1.2856,1.2973,1.3046,1.3156,1.3375,-3.7698,-3.7959,-3.8021,-3.7714,-3.7773,-3.7652,-3.7005,-3.6923,-3.6701,-3.6107,-3.6039,-3.5916,-3.5602,-3.5582,-3.564,-3.5788,-3.5811,-3.5843,-3.5875,-3.5846,-3.5836,-3.5836,-3.586,-3.5831,-3.5729,-3.5732,-3.567,-3.5531,-3.5334,-3.5227,-3.5205,-3.4755,-3.4537,-3.4516,-3.3687,-3.3299,-3.3227,-3.2564,-3.2004,-3.1515,-3.1082,-3.0579,-2.9995,-2.9457,-2.8686,-2.7868,-2.7259,-2.6087,-2.4728,-2.4026,-2.2917,-2.1686,-2.076,-1.9629,-1.8328,-1.6835,-1.534,-1.4019,-1.331,-1.3041,-1.2713,-1.1489,-1.0189,-0.9067,-0.8424,-0.6827,-0.5494,-0.5336,-0.4055,-0.2813,-0.2387,-0.18,-0.1056,-0.0078,0.0157,0.0471,0.1178,0.0785,0.0706,0.157,0.1137,0.1058,0.1726,0.251,0.2901,0.2705,0.3482,0.4103,0.4336,0.5267,0.6125,0.6861,0.6942,0.6868,0.657,0.6641,0.6676,0.6714,0.7207,0.7429,0.7433,0.9216,1.0008,1.0045,1.162,1.2378,1.2489,1.2709,1.2863,1.301,1.3046,1.32,1.3382,1.3382,1.3528,1.3775,-3.6102,-3.6258,-3.6504,-3.6838,-3.6899,-3.6761,-3.6348,-3.6297,-3.6077,-3.5474,-3.547,-3.5552,-3.5683,-3.5756,-3.5799,-3.5799,-3.5853,-3.5877,-3.5792,-3.5737,-3.5697,-3.5708,-3.5762,-3.5743,-3.5588,-3.5607,-3.5531,-3.5398,-3.5066,-3.4857,-3.4783,-3.4262,-3.3998,-3.3972,-3.3361,-3.305,-3.2943,-3.2127,-3.1478,-3.0965,-3.0629,-2.993,-2.9005,-2.8275,-2.744,-2.6546,-2.5329,-2.4412,-2.3653,-2.2695,-2.1581,-2.0482,-1.9944,-1.8016,-1.5834,-1.51,-1.407,-1.2785,-1.0983,-1.0349,-1.0162,-1.0162,-0.8315,-0.6426,-0.624,-0.4722,-0.3398,-0.3398,-0.2578,-0.1642,-0.0744,-0.0431,-0.0039,0.0785,0.1139,0.1296,0.1296,0.1296,0.161,0.2393,0.2511,0.2586,0.2779,0.3599,0.3834,0.3171,0.3945,0.4761,0.5583,0.6437,0.6903,0.6903,0.7103,0.7223,0.7223,0.7022,0.6903,0.6938,0.8152,0.8604,0.8494,1.0683,1.1583,1.1459,1.2482,1.29,1.2936,1.3119,1.32,1.3229,1.3419,1.3645,1.3797,1.3797,1.3928,1.4093,-3.6504,-3.6584,-3.6547,-3.6357,-3.6379,-3.6226,-3.5683,-3.5637,-3.5647,-3.5626,-3.5621,-3.5682,-3.5833,-3.5863,-3.5875,-3.5875,-3.589,-3.5854,-3.5737,-3.5756,-3.5679,-3.543,-3.5572,-3.5604,-3.5456,-3.5406,-3.5261,-3.498,-3.4832,-3.4648,-3.4434,-3.3805,-3.3497,-3.3469,-3.2531,-3.2109,-3.2039,-3.1227,-3.0811,-3.0551,-2.953,-2.8787,-2.8242,-2.7405,-2.6397,-2.537,-2.477,-2.3475,-2.1961,-2.1338,-2.0332,-1.9058,-1.761,-1.6253,-1.4906,-1.3259,-1.2195,-1.1205,-0.9772,-0.85,-0.7562,-0.7413,-0.6846,-0.5925,-0.4564,-0.3787,-0.3166,-0.2309,-0.1409,-0.0665,-0.0235,0.0353,0.0903,0.1139,0.1257,0.1296,0.1296,0.1922,0.2391,0.247,0.2743,0.3132,0.3677,0.4068,0.446,0.4844,0.5777,0.6514,0.6899,0.7322,0.7595,0.7753,0.8356,0.8656,0.8656,0.8466,0.8389,0.8389,0.9437,0.9922,0.9922,1.1136,1.1663,1.1663,1.2673,1.3119,1.3119,1.3346,1.3492,1.3645,1.3681,1.3819,1.3992,1.3992,1.4057,1.4266,-3.5733,-3.5868,-3.5874,-3.5664,-3.5723,-3.5709,-3.5416,-3.5457,-3.5579,-3.5754,-3.5767,-3.578,-3.5884,-3.5897,-3.5909,-3.5909,-3.5859,-3.5734,-3.5554,-3.5587,-3.5485,-3.5231,-3.5234,-3.5261,-3.5273,-3.5146,-3.495,-3.4763,-3.4486,-3.4181,-3.3888,-3.3352,-3.3033,-3.2862,-3.1863,-3.142,-3.1363,-3.039,-2.9794,-2.9432,-2.8466,-2.7634,-2.6924,-2.6103,-2.5204,-2.4302,-2.3272,-2.2097,-2.0896,-2.0063,-1.8839,-1.7434,-1.5904,-1.4454,-1.3041,-1.1821,-1.0599,-0.9369,-0.8235,-0.718,-0.6157,-0.5303,-0.511,-0.48,-0.3671,-0.2773,-0.1955,-0.1253,-0.0313,0.0353,0.051,0.0942,0.1414,0.1727,0.1845,0.1883,0.1883,0.2468,0.3015,0.3212,0.3485,0.3951,0.4844,0.5351,0.5893,0.6553,0.7176,0.7603,0.7714,0.7868,0.8131,0.8551,0.9112,0.9561,0.9895,1.0164,1.0088,0.9599,1.0596,1.1081,1.1118,1.1996,1.2415,1.2452,1.3119,1.3455,1.3455,1.3637,1.3819,1.3928,1.3928,1.4036,1.4209,1.4209,1.4453,1.4911,-3.4351,-3.4604,-3.4849,-3.4917,-3.5102,-3.5295,-3.5494,-3.5629,-3.5758,-3.5889,-3.5856,-3.5822,-3.5888,-3.5895,-3.5897,-3.5898,-3.5752,-3.5562,-3.5283,-3.5259,-3.5178,-3.5029,-3.4763,-3.4724,-3.4964,-3.4724,-3.4603,-3.4582,-3.3988,-3.3524,-3.3205,-3.287,-3.2518,-3.2162,-3.131,-3.087,-3.0714,-2.9554,-2.8592,-2.7792,-2.733,-2.6364,-2.5135,-2.4389,-2.3784,-2.3051,-2.1146,-2.0417,-2.0084,-1.8636,-1.7023,-1.5466,-1.4506,-1.2597,-1.0642,-1.0456,-0.911,-0.7456,-0.65,-0.6079,-0.55,-0.3709,-0.3203,-0.3125,-0.3125,-0.1641,-0.0274,-0.0196,0.0628,0.1335,0.1414,0.1453,0.1727,0.2549,0.282,0.2934,0.2934,0.3169,0.3638,0.4421,0.4577,0.504,0.624,0.7092,0.7714,0.8063,0.8102,0.814,0.8217,0.8255,0.8627,0.9448,0.9712,1.0228,1.0938,1.1959,1.1842,1.0677,1.1681,1.2161,1.2198,1.3149,1.3564,1.3564,1.3754,1.3826,1.3826,1.4029,1.4093,1.4129,1.4129,1.4245,1.4425,1.4461,1.5026,1.5692,-3.4772,-3.4917,-3.506,-3.5185,-3.5346,-3.5508,-3.5694,-3.5759,-3.5805,-3.5899,-3.5896,-3.5879,-3.5898,-3.5902,-3.5871,-3.5833,-3.5655,-3.539,-3.502,-3.4994,-3.4812,-3.4412,-3.4085,-3.3914,-3.3926,-3.3914,-3.3813,-3.361,-3.3161,-3.2787,-3.25,-3.2109,-3.1699,-3.1255,-3.0697,-2.9982,-2.9147,-2.8427,-2.7534,-2.6497,-2.5478,-2.4268,-2.298,-2.2177,-2.1182,-2.0137,-1.9673,-1.8905,-1.7818,-1.6027,-1.4153,-1.243,-1.1636,-1.0556,-0.9283,-0.7863,-0.7026,-0.6182,-0.452,-0.3906,-0.3519,-0.2501,-0.1603,-0.0978,-0.0978,-0.0626,-0.0078,0.0785,0.1257,0.1728,0.235,0.2585,0.2974,0.3867,0.4023,0.4062,0.4062,0.4758,0.5381,0.5538,0.5848,0.6426,0.7357,0.7753,0.7987,0.8102,0.8255,0.8627,0.9226,0.942,0.9879,1.0694,1.1515,1.2033,1.2218,1.3215,1.3098,1.1922,1.2929,1.3411,1.3411,1.3811,1.3956,1.3985,1.4029,1.4029,1.4029,1.4093,1.4201,1.4317,1.4317,1.4425,1.4605,1.4919,1.5169,1.5453,-3.5049,-3.5155,-3.5275,-3.5335,-3.5509,-3.569,-3.5772,-3.5821,-3.5853,-3.5897,-3.5897,-3.5886,-3.5851,-3.5828,-3.5694,-3.5407,-3.5264,-3.5028,-3.4593,-3.4421,-3.4196,-3.3926,-3.3419,-3.31,-3.3074,-3.2561,-3.2515,-3.3013,-3.2676,-3.2178,-3.1591,-3.1384,-3.0754,-2.9777,-2.9317,-2.8498,-2.7444,-2.6552,-2.5462,-2.4289,-2.3275,-2.2074,-2.0834,-2.0403,-1.9673,-1.876,-1.7948,-1.6686,-1.5174,-1.3657,-1.2231,-1.0934,-1.0114,-0.8906,-0.7507,-0.6178,-0.5297,-0.4407,-0.3046,-0.2618,-0.2308,-0.1369,-0.0626,-0.0196,-0.0274,0.0157,0.0785,0.1335,0.1923,0.243,0.2857,0.3015,0.3443,0.453,0.4683,0.4758,0.4957,0.5774,0.6391,0.6391,0.6546,0.7049,0.7978,0.8284,0.8556,0.8937,0.9155,0.9599,1.0415,1.0645,1.1136,1.1916,1.2475,1.2915,1.3295,1.384,1.376,1.3178,1.3702,1.3928,1.3964,1.4057,1.4093,1.4093,1.4209,1.4245,1.4274,1.4525,1.4705,1.4812,1.4991,1.5098,1.5204,1.5417,1.5594,1.5912,-3.5266,-3.5377,-3.5456,-3.5442,-3.5648,-3.5828,-3.5818,-3.5857,-3.5895,-3.5871,-3.5863,-3.5834,-3.5768,-3.5639,-3.5371,-3.4895,-3.4808,-3.4564,-3.4055,-3.3736,-3.3519,-3.3322,-3.2664,-3.2276,-3.2191,-3.113,-3.1183,-3.2362,-3.1987,-3.1314,-3.0397,-3.0397,-2.9551,-2.8001,-2.7593,-2.6744,-2.5542,-2.4396,-2.3153,-2.1927,-2.1108,-1.9997,-1.8806,-1.8619,-1.8237,-1.759,-1.607,-1.4303,-1.2522,-1.1489,-1.0525,-0.9594,-0.8708,-0.7198,-0.5565,-0.4707,-0.3705,-0.2662,-0.1838,-0.1603,-0.133,-0.0274,0.0118,0.0235,0.0078,0.0863,0.169,0.1846,0.2549,0.3248,0.3558,0.3675,0.4103,0.5312,0.5538,0.5651,0.597,0.663,0.7134,0.7173,0.7169,0.7553,0.8479,0.8813,0.9268,0.9992,1.0314,1.082,1.1601,1.1822,1.2271,1.3084,1.3127,1.3499,1.4129,1.4165,1.4201,1.4201,1.4274,1.4238,1.4165,1.4165,1.4201,1.4201,1.4425,1.4533,1.4569,1.5098,1.5303,1.5338,1.5657,1.5798,1.5833,1.5974,1.6289,1.6821,-3.5542,-3.5644,-3.573,-3.5666,-3.5783,-3.5891,-3.5897,-3.5894,-3.5857,-3.5746,-3.5721,-3.5706,-3.563,-3.5257,-3.4901,-3.4661,-3.4435,-3.4006,-3.3276,-3.3219,-3.2893,-3.2247,-3.1789,-3.1348,-3.0951,-3.0435,-3.0435,-3.097,-3.0173,-2.9444,-2.8823,-2.8823,-2.7843,-2.6057,-2.5899,-2.4833,-2.3124,-2.231,-2.1335,-2.0256,-1.9401,-1.8372,-1.7267,-1.6271,-1.5465,-1.4756,-1.3903,-1.2281,-1.0461,-0.9584,-0.8159,-0.6612,-0.5636,-0.4593,-0.3591,-0.2616,-0.2073,-0.1606,-0.0744,-0.0392,-0.0039,0.0863,0.1218,0.1375,0.1335,0.1611,0.2043,0.2743,0.3134,0.3871,0.5491,0.5918,0.6388,0.7518,0.7676,0.771,0.7753,0.7872,0.7987,0.8174,0.836,0.8665,0.9132,0.9679,1.0196,1.0625,1.1205,1.1859,1.2638,1.2718,1.3127,1.3905,1.4093,1.4245,1.4353,1.4461,1.4533,1.4533,1.4883,1.4812,1.4353,1.4497,1.4533,1.4569,1.4919,1.5098,1.5133,1.5551,1.5727,1.5727,1.5762,1.5798,1.5903,1.6664,1.7482,1.824,-3.5704,-3.5698,-3.5678,-3.5657,-3.5692,-3.5732,-3.5732,-3.5726,-3.5716,-3.5654,-3.5479,-3.5339,-3.5222,-3.4792,-3.4306,-3.3809,-3.3634,-3.3226,-3.2527,-3.2279,-3.1881,-3.1291,-3.0838,-3.0231,-2.9424,-2.8808,-2.8216,-2.7682,-2.849,-2.8184,-2.6834,-2.6834,-2.5779,-2.3903,-2.3492,-2.2531,-2.1143,-2.0306,-1.9369,-1.8325,-1.775,-1.6722,-1.5473,-1.4977,-1.396,-1.2634,-1.1267,-0.997,-0.8699,-0.7592,-0.6409,-0.5184,-0.4137,-0.3166,-0.219,-0.1134,-0.0704,-0.0313,0.0667,0.0981,0.1255,0.2078,0.247,0.2744,0.321,0.3561,0.3715,0.3482,0.4066,0.5038,0.6349,0.6349,0.6503,0.7599,0.7676,0.7672,0.7906,0.8403,0.8899,0.9198,0.9311,0.9576,1.0105,1.0395,1.0913,1.1916,1.2315,1.2901,1.3688,1.3796,1.4013,1.4382,1.4461,1.4605,1.4848,1.4919,1.5062,1.5267,1.5444,1.5303,1.4848,1.5133,1.5267,1.5275,1.5444,1.5551,1.5551,1.5912,1.6088,1.6088,1.6333,1.6473,1.6638,1.7019,1.751,1.7954]},{"header":{"parameterUnit":"m.s-1","parameterCategory":1,"la1":30.6,"la2":28.766,"lo1":-90.7593,"lo2":-88.6598,"dy":0.0162,"dx":0.0183,"nx":116,"ny":114,"refTime":"2023-08-18T12:00:00:Z","depth":0,"parameterNumber":3,"parameterNumberName":"V-component_of_WINDS"},"data":[0.0,0.0,0.0,0.0,0.0,0.0,0.0,0.0,0.0,0.0,0.0,0.0,0.0,0.0,0.0,0.0,0.0,0.0,0.0,0.0,0.0,0.0,0.0,0.0,0.0,0.0,0.0,0.0,0.0,0.0,0.0,0.0,0.0,0.0,0.0,0.0,0.0,0.0,0.0,0.0,0.0,0.0,0.0,0.0,0.0,0.0,0.0,0.0,0.0,0.0,0.0,0.0,0.0,0.0,0.0,0.0,0.0,0.0,0.0,0.0,0.0,0.0,0.0,0.0,0.0,0.0,0.0,0.0,0.0,0.0,0.0,0.0,0.0,0.0,0.0,0.0,0.0,0.0,0.0,0.0,0.0,0.0,0.0,0.0,0.0,0.0,0.0,0.0,0.0,0.0,0.0,0.0,0.0,0.0,0.0,0.0,0.0,0.0,0.0,0.0,0.0,0.0,0.0,0.0,0.0,0.0,0.0,0.0,0.0,0.0,0.0,0.0,0.0,0.0,0.0,0.0,0.0,0.0,0.0,0.0,0.0,0.0,0.0,0.0,0.0,0.0,0.0,0.0,0.0,0.0,0.0,0.0,0.0,0.0,0.0,0.0,0.0,0.0,0.0,0.0,0.0,0.0,0.0,0.0,0.0,0.0,0.0,0.0,0.0,0.0,0.0,0.0,0.0,0.0,0.0,0.0,0.0,0.0,0.0,0.0,0.0,0.0,0.0,0.0,0.0,0.0,0.0,0.0,0.0,0.0,0.0,0.0,0.0,0.0,0.0,0.0,0.0,0.0,0.0,0.0,0.0,0.0,0.0,0.0,0.0,0.0,0.0,0.0,0.0,0.0,0.0,0.0,0.0,0.0,0.0,0.0,0.0,0.0,0.0,0.0,0.0,0.0,0.0,0.0,0.0,0.0,0.0,0.0,0.0,0.0,0.0,0.0,0.0,0.0,0.0,0.0,0.0,0.0,0.0,0.0,0.0,0.0,0.0,0.0,0.0,0.0,0.0,0.0,0.0,0.0,0.0,0.0,0.0,0.0,0.0,0.0,0.0,0.0,0.0,0.0,0.0,0.0,0.0,0.0,0.0,0.0,0.0,0.0,0.0,0.0,0.0,0.0,0.0,0.0,0.0,0.0,0.0,0.0,0.0,0.0,0.0,0.0,0.0,0.0,0.0,0.0,0.0,0.0,0.0,0.0,0.0,0.0,0.0,0.0,0.0,0.0,0.0,0.0,0.0,0.0,0.0,0.0,0.0,0.0,0.0,0.0,0.0,0.0,0.0,0.0,0.0,0.0,0.0,0.0,0.0,0.0,0.0,0.0,0.0,0.0,0.0,0.0,0.0,0.0,0.0,0.0,0.0,0.0,0.0,0.0,0.0,0.0,0.0,0.0,0.0,0.0,0.0,0.0,0.0,0.0,0.0,0.0,0.0,0.0,0.0,0.0,0.0,0.0,0.0,0.0,0.0,0.0,0.0,0.0,0.0,0.0,0.0,0.0,0.0,0.0,0.0,0.0,0.0,0.0,0.0,0.0,0.0,0.0,0.0,0.0,0.0,0.0,0.0,0.0,0.0,0.0,0.0,0.0,0.0,0.0,0.0,0.0,0.0,0.0,0.0,0.0,0.0,0.0,0.0,0.0,0.0,0.0,0.0,0.0,0.0,0.0,0.0,0.0,0.0,0.0,0.0,0.0,0.0,0.0,0.0,0.0,0.0,0.0,0.0,0.0,0.0,0.0,0.0,0.0,0.0,0.0,0.0,0.0,0.0,0.0,0.0,0.0,0.0,0.0,0.0,0.0,0.0,0.0,0.0,0.0,0.0,0.0,0.0,0.0,0.0,0.0,0.0,0.0,0.0,0.0,0.0,0.0,0.0,0.0,0.0,0.0,0.0,0.0,0.0,0.0,0.0,0.0,0.0,0.0,0.0,0.0,0.0,0.0,0.0,0.0,0.0,0.0,0.0,0.0,0.0,0.0,0.0,0.0,0.0,0.0,0.0,0.0,0.0,0.0,0.0,0.0,0.0,0.0,0.0,0.0,0.0,0.0,0.0,0.0,0.0,0.0,0.0,0.0,0.0,0.0,0.0,0.0,0.0,0.0,0.0,0.0,0.0,0.0,0.0,0.0,0.0,0.0,0.0,0.0,0.0,0.0,0.0,0.0,0.0,0.0,0.0,0.0,0.0,0.0,0.0,0.0,0.0,0.0,0.0,0.0,0.0,0.0,0.0,0.0,0.0,0.0,0.0,0.0,0.0,0.0,0.0,0.0,0.0,0.0,0.0,0.0,0.0,0.0,0.0,0.0,0.0,0.0,0.0,0.0,0.0,0.0,0.0,0.0,0.0,0.0,0.0,0.0,0.0,0.0,0.0,0.0,0.0,0.0,0.0,0.0,0.0,0.0,0.0,0.0,0.0,0.0,0.0,0.0,0.0,0.0,0.0,0.0,0.0,0.0,0.0,0.0,0.0,0.0,0.0,0.0,0.0,0.0,0.0,0.0,0.0,0.0,0.0,0.0,0.0,0.0,0.0,0.0,0.0,0.0,0.0,0.0,0.0,0.0,0.0,0.0,0.0,0.0,0.0,0.0,0.0,0.0,0.0,0.0,0.0,0.0,0.0,0.0,0.0,0.0,0.0,0.0,0.0,0.0,0.0,0.0,0.0,0.0,0.0,0.0,0.0,0.0,0.0,0.0,0.0,0.0,0.0,0.0,0.0,0.0,0.0,0.0,0.0,0.0,0.0,0.0,0.0,0.0,0.0,0.0,0.0,0.0,0.0,0.0,0.0,0.0,0.0,0.0,0.0,0.0,0.0,0.0,0.0,0.0,0.0,0.0,0.0,0.0,0.0,0.0,0.0,0.0,0.0,0.0,0.0,0.0,0.0,0.0,0.0,0.0,0.0,0.0,0.0,0.0,0.0,0.0,0.0,0.0,0.0,0.0,0.0,0.0,0.0,0.0,0.0,0.0,0.0,0.0,0.0,0.0,0.0,0.0,0.0,0.0,0.0,0.0,0.0,0.0,0.0,0.0,0.0,0.0,0.0,0.0,0.0,0.0,0.0,0.0,0.0,0.0,0.0,0.0,0.0,0.0,0.0,0.0,0.0,0.0,0.0,0.0,0.0,0.0,0.0,0.0,0.0,0.0,0.0,0.0,0.0,0.0,0.0,0.0,0.0,0.0,0.0,0.0,0.0,0.0,0.0,0.0,0.0,0.0,0.0,0.0,0.0,0.0,0.0,0.0,0.0,0.0,0.0,0.0,0.0,0.0,0.0,0.0,0.0,0.0,0.0,0.0,0.0,0.0,0.0,0.0,0.0,0.0,0.0,0.0,0.0,0.0,0.0,0.0,0.0,0.0,0.0,0.0,0.0,0.0,0.0,0.0,0.0,0.0,0.0,0.0,0.0,0.0,0.0,0.0,0.0,0.0,0.0,0.0,0.0,0.0,0.0,0.0,0.0,0.0,0.0,0.0,0.0,0.0,0.0,0.0,0.0,0.0,0.0,0.0,0.0,0.0,0.0,0.0,0.0,0.0,0.0,0.0,0.0,0.0,0.0,0.0,0.0,0.0,0.0,0.0,0.0,0.0,0.0,0.0,0.0,0.0,0.0,0.0,0.0,0.0,0.0,0.0,0.0,0.0,0.0,0.0,0.0,0.0,0.0,0.0,0.0,0.0,0.0,0.0,0.0,0.0,0.0,0.0,0.0,0.0,0.0,0.0,0.0,0.0,0.0,0.0,0.0,0.0,0.0,0.0,0.0,0.0,0.0,0.0,0.0,0.0,0.0,0.0,0.0,0.0,0.0,0.0,0.0,0.0,0.0,0.0,0.0,0.0,0.0,0.0,0.0,0.0,0.0,0.0,0.0,0.0,0.0,0.0,0.0,0.0,0.0,0.0,0.0,0.0,0.0,0.0,0.0,0.0,0.0,0.0,0.0,0.0,0.0,0.0,0.0,0.0,0.0,0.0,0.0,0.0,0.0,0.0,0.0,0.0,0.0,0.0,0.0,0.0,0.0,0.0,0.0,0.0,0.0,0.0,0.0,0.0,0.0,0.0,0.0,0.0,0.0,0.0,0.0,0.0,0.0,0.0,0.0,0.0,0.0,0.0,0.0,0.0,0.0,0.0,0.0,0.0,0.0,0.0,0.0,0.0,0.0,0.0,0.0,0.0,0.0,0.0,0.0,0.0,0.0,0.0,0.0,0.0,0.0,0.0,0.0,0.0,0.0,0.0,0.0,0.0,0.0,0.0,0.0,0.0,0.0,0.0,0.0,0.0,0.0,0.0,0.0,0.0,0.0,0.0,0.0,0.0,0.0,0.0,0.0,0.0,0.0,0.0,0.0,0.0,0.0,0.0,0.0,0.0,0.0,0.0,0.0,0.0,0.0,0.0,0.0,0.0,0.0,0.0,0.0,0.0,0.0,0.0,0.0,0.0,0.0,0.0,0.0,0.0,0.0,0.0,0.0,0.0,0.0,0.0,0.0,0.0,0.0,0.0,0.0,0.0,0.0,0.0,0.0,0.0,0.0,0.0,0.0,0.0,0.0,0.0,0.0,0.0,0.0,0.0,0.0,0.0,0.0,0.0,0.0,0.0,0.0,0.0,0.0,0.0,0.0,0.0,0.0,0.0,0.0,0.0,0.0,0.0,0.0,0.0,0.0,0.0,0.0,0.0,0.0,0.0,0.0,0.0,0.0,0.0,0.0,0.0,0.0,0.0,0.0,0.0,0.0,0.0,0.0,0.0,0.0,0.0,0.0,0.0,0.0,0.0,0.0,0.0,0.0,0.0,0.0,0.0,0.0,0.0,0.0,0.0,0.0,0.0,0.0,0.0,0.0,0.0,0.0,0.0,0.0,0.0,0.0,0.0,0.0,0.0,0.0,0.0,0.0,0.0,0.0,0.0,0.0,0.0,0.0,0.0,0.0,0.0,0.0,0.0,0.0,0.0,0.0,0.0,0.0,0.0,0.0,0.0,0.0,0.0,0.0,0.0,0.0,0.0,0.0,0.0,0.0,0.0,0.0,0.0,0.0,0.0,0.0,0.0,0.0,0.0,0.0,0.0,0.0,0.0,0.0,0.0,0.0,0.0,0.0,0.0,0.0,0.0,0.0,0.0,0.0,0.0,0.0,0.0,0.0,0.0,0.0,0.0,0.0,0.0,0.0,0.0,0.0,0.0,0.0,0.0,0.0,0.0,0.0,0.0,0.0,0.0,0.0,0.0,0.0,0.0,0.0,0.0,0.0,0.0,0.0,0.0,0.0,0.0,0.0,0.0,0.0,0.0,0.0,0.0,0.0,0.0,0.0,0.0,0.0,0.0,0.0,0.0,0.0,0.0,0.0,0.0,0.0,0.0,0.0,0.0,0.0,0.0,0.0,0.0,0.0,0.0,0.0,0.0,0.0,0.0,0.0,0.0,0.0,0.0,0.0,0.0,0.0,0.0,0.0,0.0,0.0,0.0,0.0,0.0,0.0,0.0,0.0,0.0,0.0,0.0,0.0,0.0,0.0,0.0,0.0,0.0,0.0,0.0,0.0,0.0,0.0,0.0,0.0,0.0,0.0,0.0,0.0,0.0,0.0,0.0,0.0,0.0,0.0,0.0,0.0,0.0,0.0,0.0,0.0,0.0,0.0,0.0,0.0,0.0,0.0,0.0,0.0,0.0,0.0,0.0,0.0,0.0,0.0,0.0,0.0,0.0,0.0,0.0,0.0,0.0,0.0,0.0,0.0,0.0,0.0,0.0,0.0,0.0,0.0,0.0,0.0,0.0,0.0,0.0,0.0,0.0,0.0,0.0,0.0,0.0,0.0,0.0,0.0,0.0,0.0,0.0,0.0,0.0,0.0,0.0,0.0,0.0,0.0,0.0,0.0,0.0,0.0,0.0,0.0,0.0,0.0,0.0,0.0,0.0,0.0,0.0,0.0,0.0,0.0,0.0,0.0,0.0,0.0,0.0,0.0,0.0,0.0,0.0,0.0,0.0,0.0,0.0,0.0,0.0,0.0,0.0,0.0,0.0,0.0,0.0,0.0,0.0,0.0,0.0,0.0,0.0,0.0,0.0,0.0,0.0,0.0,0.0,0.0,0.0,0.0,0.0,0.0,0.0,-0.0056,0.0,0.0,0.0,0.0,0.0,0.0,0.0,0.0,0.0,0.0,0.0,0.0,0.0,0.0,0.0,0.0,0.0,0.0,0.0,0.0,0.0,0.0,0.0,0.0,0.0,0.0,0.0,0.0,0.0,0.0,0.0,0.0,0.0,0.0,0.0,0.0,0.0,0.0,0.0,2.3144,2.2388,2.157,2.061,1.9968,1.9521,0.0,0.0,0.0,0.0,0.0,0.0,0.0,0.0,0.0,0.0,0.0,0.0,0.0,0.0,0.0,0.0,0.0,0.0,0.0,0.0,0.0,0.0,0.0,0.0,0.0,0.0,0.0,0.0,0.0,0.0,0.0,0.0,0.0,0.0,0.0,0.0,0.0,0.0,0.0,0.0,0.0,0.0,0.0,0.0,0.0,0.0,0.0,0.0,0.0,0.0,0.0,0.0,0.0,0.0,0.0,0.0,0.0,0.0,0.0,0.0,0.0,0.0,0.0,0.0,0.0,0.0,0.0,0.0,0.0,0.0,0.0,-0.134,0.0,0.0,0.0,0.0,0.0,0.0,0.0,0.0,0.0,0.0,0.0,0.0,0.0,0.0,0.0,0.0,0.0,0.0,0.0,0.0,0.0,0.0,0.0,0.0,3.168,3.0406,3.0279,0.0,0.0,0.0,0.0,0.0,0.0,0.0,0.0,2.4797,2.396,2.2803,2.253,2.157,1.9977,1.8002,1.7591,1.8465,1.7264,0.0,0.0,0.0,0.0,0.0,0.0,0.0,0.0,0.0,0.0,0.0,0.0,0.0,0.0,0.0,0.0,0.0,0.0,0.0,0.0,0.0,0.0,0.0,0.0,0.0,0.0,0.0,0.0,0.0,0.0,0.0,0.0,0.0,0.0,0.0,0.0,0.0,0.0,0.0,0.0,0.0,0.0,0.0,0.0,0.0,0.0,0.0,0.0,0.0,0.0,0.0,0.0,0.0,0.0,0.0,0.0,0.0,0.0,0.0,0.0,0.0,0.0,0.0,0.0373,-0.0426,-0.0426,-0.1278,-0.1704,-0.1707,-0.1757,-0.1765,-0.1798,0.0,0.0,0.0,0.0,0.0,0.0,0.0,0.0,0.0,0.0,0.0,0.0,0.0,0.0,0.0,0.0,0.0,0.0,0.0,0.0,0.0,0.0,3.2218,3.168,3.0406,3.0279,2.9793,0.0,0.0,0.0,0.0,0.0,0.0,2.4413,2.3527,2.2969,2.2803,2.1347,2.0068,1.8972,1.6947,1.6539,1.7466,1.6386,1.5778,1.5445,0.0,0.0,0.0,0.0,0.0,0.0,0.0,0.0,0.0,0.0,0.0,0.0,0.0,0.0,0.0,0.0,0.0,0.0,0.0,0.0,0.0,0.0,0.0,0.0,0.0,0.0,0.0,0.0,0.0,0.0,0.0,0.0,0.0,0.0,0.0,0.0,0.0,0.0,0.0,0.0,0.0,1.1096,1.0265,0.0,0.0,0.0,0.0,0.0,0.0,0.0,0.0,0.0,0.0,0.0,0.0,0.0,0.2315,0.2351,0.155,0.1174,0.1171,0.0106,-0.0426,-0.0426,-0.1278,-0.1704,-0.1705,-0.1712,0.0,-0.171,-0.1714,0.0,0.0,0.0,0.0,0.0,0.0,0.0,0.0,0.0,0.0,0.0,0.0,0.0,0.0,0.0,0.0,0.0,0.0,0.0,0.0,0.0,3.2444,3.1827,3.0884,3.0809,3.0279,2.9079,0.0,0.0,0.0,0.0,2.5421,2.4016,2.3309,2.2432,2.1382,2.0113,1.8926,1.7924,1.6459,1.571,1.5575,1.5153,1.4921,1.4771,1.3703,0.0,0.0,0.0,0.0,0.0,0.0,0.0,0.0,0.0,0.0,0.0,0.0,0.0,0.0,0.0,0.0,0.0,0.0,0.0,0.0,0.0,0.0,0.0,0.0,0.0,0.0,0.0,0.0,0.0,0.0,0.0,0.0,0.0,0.0,0.0,0.0,0.0,0.0,0.0,1.0806,1.0413,1.0019,0.9221,0.8276,0.0,0.0,0.0,0.0,0.0,0.0,0.0,0.0,0.0,0.1969,0.1623,0.1426,0.1491,0.0645,0.0215,0.016,-0.0692,-0.1118,-0.1118,-0.1544,-0.1704,-0.1704,-0.1704,-0.2077,-0.2716,-0.2687,-0.3125,-0.3877,0.0,0.0,0.0,0.0,-0.8757,-0.9115,0.0,0.0,0.0,0.0,0.0,0.0,0.0,0.0,0.0,0.0,0.0,0.0,3.3213,3.2596,3.1936,3.127,3.1182,3.0696,2.9496,2.9302,0.0,0.0,0.0,2.5168,2.342,2.2721,2.1561,1.9931,1.8926,1.7917,1.6904,1.5622,1.4771,1.4298,1.3757,1.3661,1.3806,1.278,1.1755,1.0783,0.0,0.0,0.0,0.0,0.0,0.0,0.0,0.0,0.0,0.0,0.0,0.0,0.0,0.0,0.0,0.0,0.0,0.0,0.0,0.0,0.0,0.0,0.0,0.0,0.0,0.0,0.0,0.0,0.0,0.0,0.0,0.0,0.0,0.0,0.0,0.0,0.0,1.0364,0.9871,0.9422,0.8326,0.7332,0.0,0.0,0.0,0.0,0.0,0.0,0.1765,0.1714,0.1421,0.0875,0.0678,0.0579,0.0582,-0.0322,-0.0752,-0.0799,-0.1438,-0.1704,-0.1704,-0.1704,-0.1704,-0.1704,-0.1704,-0.2236,-0.309,-0.3397,-0.3882,-0.4717,-0.6725,-0.7895,-0.851,-0.9452,-0.9987,-1.0187,0.0,0.0,0.0,0.0,0.0,0.0,0.0,0.0,0.0,0.0,0.0,3.3973,3.3297,3.2596,3.1936,3.127,3.1182,3.0696,2.9496,2.9028,2.7839,2.5694,2.4956,2.3854,2.223,2.1033,1.9931,1.888,1.7878,1.6857,1.5825,1.3794,1.3366,1.4196,1.2242,1.1901,1.2732,1.1707,1.1219,1.1077,0.9719,0.0,0.0,0.0,0.0,0.0,0.0,0.0,0.0,0.0,0.0,0.0,0.0,0.0,0.0,0.0,0.0,0.0,0.0,0.0,0.0,0.0,0.0,0.0,0.0,0.0,0.0,0.0,0.0,0.0,0.0,0.0,0.0,0.0,0.0,0.0,0.0,0.0,0.0,0.7879,0.763,0.0,0.0,0.0,0.0,0.2971,0.2369,0.1714,0.0907,0.0857,0.0857,0.0808,0.0051,-0.0357,-0.0311,-0.1196,-0.1627,-0.1651,-0.1704,-0.1704,-0.1704,-0.1704,-0.1704,-0.1704,-0.1704,-0.1757,-0.1864,-0.3036,-0.4992,-0.7325,-0.7322,-0.8152,-0.9394,-0.9346,-0.9496,-0.9754,0.0,0.0,0.0,0.0,0.0,0.0,0.0,0.0,0.0,3.6116,3.5059,3.4211,3.3939,3.2881,3.2096,3.1863,3.1827,3.132,3.005,2.953,2.8232,2.585,2.477,2.3535,2.1957,2.1132,2.0158,1.9001,1.8056,1.6709,1.507,1.434,1.357,1.2802,1.2068,1.1531,1.1233,1.1224,1.0783,1.0109,0.9624,0.948,0.0,0.0,0.0,0.0,0.0,0.0,0.0,0.0,0.0,0.0,0.0,0.0,0.0,0.0,0.0,0.0,0.0,0.0,0.0,0.0,0.0,0.0,0.0,0.0,0.0,0.0,0.0,0.0,0.0,0.0,0.0,0.0,0.0,0.0,0.0,0.0,0.0,0.768,0.7132,0.0,0.5684,0.5135,0.423,0.2919,0.2318,0.1412,0.0101,0.005,-0.0202,-0.0707,-0.1073,-0.1238,-0.1245,-0.1593,-0.1777,-0.1788,-0.1753,-0.1763,-0.1763,-0.1763,-0.2201,-0.2914,-0.2914,-0.3791,-0.5215,-0.5656,-0.5911,-0.6214,-0.7717,-0.8804,-0.945,-0.9396,-0.9695,-1.0074,0.0,0.0,0.0,0.0,0.0,0.0,0.0,0.0,3.6445,3.6492,3.5352,3.4499,3.4312,3.3241,3.2444,3.2218,3.2028,3.1386,3.011,2.9386,2.8001,2.5746,2.4263,2.288,2.1471,2.0509,1.9552,1.864,1.7439,1.6035,1.4409,1.4168,1.3263,1.1864,1.1531,1.0986,1.0458,1.113,1.0837,0.9871,0.9776,0.9727,0.9723,0.0,0.0,0.0,0.0,0.0,0.0,0.0,0.0,0.0,0.0,0.0,0.0,0.0,0.0,0.0,0.0,0.0,0.0,0.0,0.0,0.0,0.0,0.0,0.0,0.0,0.0,0.0,0.0,0.0,0.0,0.0,0.0,0.0,0.0,0.0,0.7481,0.7232,0.6736,0.6187,0.5634,0.5135,0.4128,0.2516,0.1914,0.0908,-0.0707,-0.0808,-0.1061,-0.1566,-0.1647,-0.1719,-0.1676,-0.1779,-0.1809,-0.1821,-0.1785,-0.1795,-0.1795,-0.2242,-0.2856,-0.3636,-0.4026,-0.5085,-0.6536,-0.693,-0.6606,-0.611,-0.8121,-0.9047,-0.9213,-0.9213,-0.9599,-1.0147,0.0,0.0,0.0,0.0,0.0,0.0,0.0,3.6906,3.6799,3.6538,3.5689,3.4912,3.438,3.3665,3.2925,3.225,3.1626,3.0762,2.9532,2.853,2.7126,2.5165,2.3311,2.1838,2.082,1.9033,1.7999,1.7715,1.6094,1.4822,1.3857,1.3069,1.233,1.1622,1.0591,1.0272,1.0489,1.1497,1.14,1.0493,1.0212,1.0117,1.0068,0.0,0.0,0.0,0.0,0.0,0.0,0.0,0.0,0.0,0.0,0.0,0.0,0.0,0.0,0.0,0.0,0.0,0.0,0.0,0.0,0.0,0.0,0.0,0.0,0.0,0.0,0.0,0.0,0.0,0.0,0.0,0.0,0.0,0.8825,0.8077,0.7282,0.6484,0.6387,0.6187,0.5684,0.5135,0.3875,0.1761,0.1108,0.0101,-0.1516,-0.1618,-0.1618,-0.1618,-0.1647,-0.1677,-0.1704,-0.1788,-0.1819,-0.1793,-0.185,-0.1851,-0.1907,-0.3079,-0.3692,-0.3748,-0.4972,-0.5472,-0.5584,-0.67,-0.7146,-0.7257,-0.8436,-0.8885,-0.8885,-0.894,-0.9323,-0.9926,0.0,0.0,0.0,0.0,0.0,0.0,0.0,3.7041,3.683,3.6983,3.5897,3.5109,3.5091,3.3973,3.294,3.2347,3.1553,3.0347,2.8604,2.7709,2.5875,2.2809,2.2488,2.178,2.046,1.9236,1.8423,1.7999,1.6168,1.454,1.3093,1.2865,1.2121,1.0934,1.1255,1.1429,1.1527,1.2488,1.2766,1.2516,1.2533,1.2436,1.2247,0.0,0.0,0.0,0.0,0.0,0.0,0.0,0.0,0.0,0.0,0.0,0.0,0.0,0.0,0.0,0.0,0.0,0.0,0.0,0.0,0.0,0.0,0.0,0.0,0.0,0.0,0.0,0.0,0.0,0.0,0.0,0.0,0.8825,0.8825,0.758,0.6637,0.6437,0.6387,0.6337,0.6187,0.4979,0.3673,0.2265,0.0958,-0.0303,-0.1516,-0.1638,-0.165,-0.165,-0.1677,-0.1697,-0.1704,-0.1788,-0.1809,-0.1817,-0.2673,-0.3079,-0.3135,-0.436,-0.5363,-0.6146,-0.648,-0.7149,-0.7977,-0.8156,-0.8279,-0.8288,-0.8728,-0.8885,-0.8937,-0.9158,-0.9651,-1.0202,0.0,0.0,0.0,0.0,0.0,0.0,0.0,3.7576,3.7429,3.7549,3.6523,3.5787,3.5772,3.4449,3.336,3.2768,3.1465,3.0104,2.8725,2.7321,2.5338,2.2633,2.2512,2.1849,2.048,1.9229,1.8263,1.7522,1.6165,1.4563,1.2904,1.3075,1.255,1.1519,1.2107,1.2389,1.2569,1.351,1.4135,1.4514,1.5028,1.4359,1.3076,1.308,1.3102,1.3134,1.3621,1.3561,1.3352,1.3682,0.0,0.0,0.0,0.0,0.0,0.0,0.0,0.0,0.0,0.0,0.0,0.0,0.0,0.0,0.0,0.0,0.0,0.0,0.0,0.0,0.0,0.0,0.0,0.0,0.932,0.8676,0.8326,0.7182,0.6387,0.6387,0.6387,0.6387,0.6387,0.5331,0.4024,0.2516,0.131,0.0,-0.1584,-0.1704,-0.1719,-0.168,-0.1708,-0.1723,-0.1723,-0.1808,-0.1823,-0.1824,-0.3009,-0.358,-0.3636,-0.5363,-0.648,0.0,-0.7654,-0.8269,-0.8875,-0.8842,-0.8767,0.0,0.0,0.0,0.0,0.0,-0.9665,-1.0092,0.0,0.0,0.0,0.0,0.0,0.0,0.0,3.8282,3.821,3.8157,3.7356,3.6738,3.6492,3.5104,3.3972,3.3416,3.1446,2.9965,2.9246,2.7148,2.5206,2.3655,2.3058,2.2075,2.0605,1.9146,1.7851,1.6698,1.6015,1.4768,1.3003,1.3457,1.3328,1.2692,1.2999,1.3252,1.3593,1.4581,1.5497,1.641,1.74,1.6099,1.3659,1.3655,1.4046,1.4725,1.5826,1.6,1.5865,1.68,0.0,0.0,0.0,0.0,0.0,0.0,0.0,0.0,0.0,0.0,0.0,0.0,0.0,0.0,0.0,0.0,0.0,0.0,0.0,0.0,0.0,0.0,0.0,0.0,0.9175,0.8375,0.758,0.6833,0.6387,0.6387,0.6387,0.6387,0.6387,0.5837,0.4678,0.2618,0.1865,0.056,-0.1557,0.0,0.0,0.0,0.0,-0.1809,-0.1809,-0.1781,-0.1795,-0.1795,-0.3023,-0.3692,-0.3858,-0.6091,-0.7152,-0.7376,-0.8436,-0.8885,-0.8881,-0.8865,-0.8811,-0.8702,-0.8853,-0.8752,-0.864,-0.9167,-0.9537,-0.9795,0.0,0.0,0.0,0.0,0.0,0.0,0.0,3.8579,3.81,3.8455,3.7867,3.7488,3.7592,3.589,3.4499,3.391,3.1857,2.9882,2.8146,2.6803,2.5287,2.3602,2.3697,2.2702,2.0323,1.9453,1.8244,1.6698,1.5884,1.4601,1.3003,1.33,1.3119,1.2476,1.3455,1.4276,1.4979,1.5925,1.684,1.7647,1.8171,1.803,1.7505,1.7355,1.7238,1.7305,1.8236,1.8503,1.849,1.8779,1.873,1.8356,1.7306,1.6901,0.0,0.0,0.0,0.0,0.0,0.0,0.0,0.0,0.0,0.0,0.0,0.0,0.0,0.0,0.0,0.0,0.0,0.0,0.0,0.9171,0.8375,0.7531,0.6734,0.6484,0.6387,0.6387,0.6387,0.6387,0.6387,0.5536,0.4329,0.2819,0.1635,0.0258,-0.1298,-0.1653,-0.179,-0.1795,-0.177,-0.1787,-0.1787,-0.1792,-0.1795,-0.1795,0.0,0.0,-0.5083,-0.648,-0.7654,-0.8549,-0.8771,-0.8885,-0.8875,-0.8804,-0.8701,-0.8726,-0.8821,-0.9017,-0.9171,-0.9481,-0.9851,-1.0112,0.0,0.0,0.0,0.0,0.0,0.0,0.0,3.9082,3.8728,3.9276,3.8098,3.7354,3.7753,3.59,3.4576,3.4363,3.2375,3.0344,2.8478,2.7531,2.651,2.525,2.441,2.3257,2.1735,2.0391,1.9097,1.7819,1.7058,1.5827,1.4223,1.4433,1.4181,1.3591,1.472,1.5545,1.6101,1.739,1.8435,1.9304,1.9886,2.0393,2.0652,1.9503,1.9067,1.9221,2.0061,2.0525,2.0802,2.0866,2.0896,2.0627,1.9165,1.8455,1.801,0.0,0.0,0.0,0.0,0.0,0.0,0.0,0.0,0.0,0.0,0.0,0.0,0.0,0.0,1.1194,0.0,0.0,1.0212,0.8973,0.8478,0.7779,0.6584,0.6387,0.6387,0.6387,0.6387,0.6387,0.6387,0.5934,0.4798,0.2959,0.2058,0.073,-0.1171,-0.1625,-0.1811,-0.1828,-0.1787,-0.1795,-0.1795,-0.1795,-0.1795,-0.1795,-0.3023,-0.4249,-0.5417,-0.6591,-0.7768,-0.8885,-0.8885,-0.8885,-0.8871,-0.8774,-0.8675,-0.8692,-0.8772,-0.8896,-0.9075,-0.9176,-0.9435,-0.9744,0.0,0.0,0.0,0.0,0.0,0.0,0.0,0.0,3.9523,4.002,3.858,3.7606,3.7857,3.6049,3.4755,3.4452,3.2696,3.0998,2.96,2.878,2.8038,2.7272,2.5472,2.4218,2.3627,2.1752,2.0314,1.9307,1.8532,1.7383,1.5835,1.5933,1.576,1.5489,1.6445,1.7172,1.7753,1.9122,2.0256,2.1199,2.1834,2.2595,2.3139,2.158,2.0938,2.0964,2.1787,2.2433,2.2917,2.2808,2.2808,2.2513,2.0885,1.9867,1.9033,1.8133,1.7146,0.0,0.0,0.0,0.0,0.0,0.0,0.0,0.0,0.0,1.2641,1.1429,1.1194,1.1194,1.1194,1.1047,1.0556,0.9221,0.8772,0.8127,0.6833,0.6484,0.6387,0.6387,0.6387,0.6387,0.6387,0.6408,0.5445,0.305,0.2653,0.1428,-0.1092,-0.1536,-0.1714,-0.1794,-0.1795,-0.1795,-0.1795,-0.1795,-0.1795,-0.1795,-0.28,-0.3858,-0.5083,-0.6258,-0.7429,-0.8549,-0.8771,-0.8885,-0.8875,-0.8804,-0.8737,-0.8682,-0.8675,-0.8668,-0.872,-0.8786,-0.8928,-0.9133,0.0,0.0,0.0,0.0,0.0,0.0,0.0,0.0,0.0,4.007,4.0052,3.9606,3.8605,3.7316,3.5684,3.3551,3.2281,3.1533,3.1332,3.024,2.9268,2.8534,2.7532,2.6434,2.5177,2.3641,2.2162,2.0765,1.9446,1.8292,1.7358,1.7025,1.7285,1.8103,1.8457,1.9554,2.1141,2.1331,2.22,2.3433,2.3543,2.3895,2.4459,2.4957,2.4177,2.3003,2.3856,2.445,2.4729,2.4409,2.4277,2.391,2.2034,2.0759,2.0012,2.0174,0.0,1.7791,1.8615,1.7794,1.6521,1.5793,1.512,1.4416,0.0,0.0,1.222,1.14,1.1194,1.1194,1.1194,1.0609,1.0068,0.9871,0.8673,0.768,0.7481,0.6833,0.6387,0.6387,0.6387,0.6387,0.6387,0.6484,0.5625,0.3313,0.3036,0.1792,-0.0819,-0.122,-0.1512,-0.1795,-0.1795,-0.1795,-0.1795,-0.1795,-0.1795,-0.1795,-0.1963,-0.2633,-0.3858,-0.5027,-0.62,-0.7376,-0.8436,-0.8885,-0.8881,-0.8865,-0.8832,-0.8693,-0.8576,-0.8474,-0.8377,-0.8681,-0.8825,-0.8825,0.0,0.0,0.0,0.0,0.0,0.0,0.0,0.0,0.0,0.0,3.987,3.9316,3.9028,3.779,3.6255,3.4456,3.3721,3.3208,3.2866,3.1812,3.091,3.0304,2.9104,2.8032,2.7155,2.5387,2.4186,2.3541,2.1772,2.043,1.9586,1.8973,1.8704,1.8757,1.9623,2.0661,2.1906,2.3117,2.434,2.5538,2.599,2.6544,2.7142,2.7492,2.7255,2.6675,2.575,2.5385,0.0,2.4511,2.4281,2.3942,2.206,2.1124,2.0614,2.0363,1.9653,0.0,1.9085,1.8594,1.7893,0.0,1.6617,1.616,1.507,1.4507,1.3762,1.2156,1.182,1.1677,1.1115,1.0875,1.0556,0.0,0.9422,0.8673,0.773,0.7332,0.6933,0.6437,0.6387,0.6387,0.6387,0.6497,0.566,0.336,0.3064,0.1862,-0.0776,-0.1173,-0.1458,-0.1795,-0.1795,-0.1795,-0.1795,-0.1795,-0.1795,-0.1795,-0.1795,-0.2409,-0.3636,-0.4137,-0.5365,-0.7152,-0.838,-0.8885,-0.8885,-0.8885,-0.8848,-0.8828,-0.8676,-0.8523,-0.8415,-0.8524,-0.8581,-0.8577,0.0,0.0,0.0,0.0,0.0,0.0,0.0,0.0,0.0,0.0,4.0035,3.944,3.9455,3.8048,3.6718,3.5745,3.5078,3.4495,3.3989,3.3098,3.2392,3.1914,3.0705,2.9845,2.9473,2.7472,2.6443,2.6443,2.4237,2.2808,2.2207,2.1158,2.0529,2.0387,2.1355,2.2335,2.3349,2.5089,2.6485,2.7584,2.8338,2.8906,2.9372,2.9515,2.9622,2.9465,2.7677,2.6735,2.6258,2.5379,2.4909,2.4433,2.2691,2.1838,2.1405,2.0879,2.0379,1.981,1.9002,0.0,0.0,1.7691,1.7356,1.6977,1.6009,1.5446,1.4708,1.2995,1.2474,1.2051,1.1315,1.1115,1.0849,1.0325,1.004,0.9514,0.8421,0.7879,0.7381,0.6783,0.6537,0.6398,0.6433,0.6597,0.5709,0.3394,0.3198,0.2043,-0.0616,-0.1009,-0.1346,-0.1627,-0.1739,-0.1795,-0.1795,-0.1795,-0.1795,-0.1795,-0.1795,-0.2409,-0.3636,-0.4249,-0.5699,-0.7654,-0.8546,-0.8885,-0.8885,-0.8885,-0.8885,-0.8868,-0.8771,-0.8618,-0.8504,-0.8397,-0.8321,-0.8333,0.0,0.0,0.0,0.0,0.0,0.0,0.0,0.0,0.0,0.0,0.0,0.0,0.0,3.8224,3.7074,3.7035,3.5836,3.4938,3.46,3.3989,3.3508,3.3156,3.2489,3.2103,3.2075,3.0116,2.9072,2.9072,2.6537,2.5285,2.5239,2.339,2.3046,2.3941,2.4131,2.5121,2.669,2.7466,2.8504,2.9664,3.0187,3.0424,3.051,3.1027,3.0911,3.0345,2.9588,2.9056,2.8583,2.7756,2.6984,2.6057,2.4505,2.3345,0.0,2.2354,2.1454,2.0128,1.8465,0.0,1.7838,1.6959,1.6226,1.5713,1.5455,1.4865,1.4206,1.3681,1.2882,1.221,1.1905,1.118,1.066,1.0825,1.0223,0.9759,0.9895,0.8577,0.758,0.758,0.6883,0.6433,0.0,0.6725,0.5785,0.3398,0.3455,0.2405,-0.028,-0.0729,-0.1009,-0.129,-0.1627,-0.1795,-0.1795,-0.1795,-0.1795,-0.1795,-0.1795,-0.2409,-0.3692,-0.598,-0.7654,-0.883,-0.8881,-0.8885,-0.8885,-0.8885,-0.8885,-0.8868,-0.8771,-0.8618,-0.8465,-0.8368,-0.8167,-0.7988,0.0,0.0,0.0,0.0,0.0,0.0,0.0,0.0,0.0,0.0,0.0,0.0,0.0,0.0,0.0,0.0,3.7342,3.6507,3.5898,3.5414,3.4945,3.4478,3.4252,3.3973,3.3607,3.223,3.1526,3.1526,2.9013,2.7795,2.7751,2.6132,2.5563,2.5918,2.6215,2.6854,2.7764,2.8269,2.9512,3.1116,3.1277,3.1948,3.2797,3.2484,3.2542,3.269,0.0,3.0426,2.9473,2.8557,2.7729,2.6883,2.5889,2.4945,2.4038,2.3195,2.2182,2.1098,1.9982,0.0,1.9304,1.7917,1.7391,1.7057,1.6402,1.5966,1.5485,1.4687,1.4172,1.3648,1.2951,1.2055,1.1467,1.1543,1.0861,1.0135,0.969,0.8691,0.7918,0.7433,0.6764,0.0,0.0,0.0,0.0,0.4643,0.3977,0.2741,0.084,-0.0112,-0.0785,-0.129,-0.1402,-0.157,-0.1795,-0.1795,-0.1795,-0.1795,-0.1795,-0.2409,-0.3636,-0.5252,-0.6591,-0.7768,-0.8549,-0.8885,-0.8885,-0.8885,-0.8885,-0.8878,-0.8828,-0.8706,-0.8476,-0.8428,-0.8187,-0.7902,0.0,0.0,0.0,0.0,0.0,0.0,0.0,0.0,0.0,0.0,0.0,0.0,0.0,0.0,0.0,0.0,0.0,0.0,3.6915,3.6611,3.6274,3.5801,3.5662,3.5284,3.4673,3.3656,3.2987,3.2737,3.0711,2.9716,2.9675,2.8157,2.7445,2.7459,2.7759,2.8228,2.8854,2.947,3.0782,3.2421,3.2337,3.2862,3.3624,3.3053,3.295,0.0,3.2082,3.1355,3.0673,2.9704,2.868,2.765,2.6945,2.5867,2.4684,2.3624,2.2809,2.1987,2.0808,2.0498,2.0187,1.8829,1.847,1.8238,1.7367,1.7082,1.6706,1.5711,1.512,1.4579,1.3812,1.2683,1.1801,1.1796,1.105,1.0356,0.987,0.9181,0.8425,0.7719,0.7014,0.0,0.0,0.0,0.0,0.5279,0.4598,0.3412,0.1567,0.0672,-0.0224,-0.1121,-0.1234,-0.1458,-0.1795,-0.1795,-0.1795,-0.1795,-0.2242,-0.3079,-0.4305,-0.5475,-0.6647,-0.7765,-0.8549,-0.8885,-0.8885,-0.8885,-0.8885,-0.8878,-0.8824,-0.8672,-0.8397,-0.8343,-0.8075,-0.7756,0.0,0.0,0.0,0.0,0.0,0.0,0.0,0.0,0.0,0.0,0.0,0.0,0.0,0.0,0.0,0.0,0.0,0.0,3.7685,3.7542,3.7381,3.7069,3.6738,3.6207,3.5405,3.45,3.3666,3.2914,3.172,3.1123,3.1084,2.9525,2.8797,2.8797,2.8942,2.9369,3.0098,3.103,3.2254,3.3566,3.3273,3.3162,3.3107,3.2812,3.222,3.1598,3.1494,3.1828,3.2142,3.1165,2.9844,2.8454,2.7703,2.6258,2.466,2.3843,2.3364,2.2692,2.1078,2.0615,2.0421,1.958,1.9374,1.9137,1.8278,1.8078,1.7755,1.6714,1.5752,1.5005,0.0,0.0,1.1727,1.1651,1.0865,1.0369,1.0559,0.9895,0.911,0.0,0.0,0.0,0.0,0.0,0.0,0.5383,0.0,0.4419,0.2127,0.1623,0.0728,-0.0729,-0.1065,-0.1402,-0.1795,-0.1795,-0.1795,-0.1795,-0.2965,-0.4131,-0.5353,-0.6468,-0.7633,-0.8806,-0.8861,-0.8861,-0.8861,-0.8861,-0.8861,-0.8844,-0.8757,-0.852,-0.8241,-0.8092,-0.7848,-0.7607,0.0,0.0,0.0,0.0,0.0,0.0,0.0,0.0,0.0,0.0,0.0,0.0,0.0,0.0,0.0,0.0,0.0,0.0,3.8884,3.8271,3.7911,3.7825,3.7738,3.729,3.6448,3.5935,3.5291,3.4515,3.3399,3.2851,3.2833,3.1892,3.1421,3.1421,3.1475,3.1596,3.1768,3.1777,3.2362,3.3261,3.2963,3.3196,3.3688,3.2797,3.2698,3.2827,3.1528,3.1528,3.2064,0.0,0.0,0.0,0.0,2.7319,2.6143,2.5403,2.4541,2.3621,2.2644,2.2344,2.1993,2.0566,2.0177,1.9982,1.9146,1.8988,1.8709,1.7796,1.7139,1.6486,0.0,0.0,0.0,1.2422,1.1104,0.0,1.0146,0.9482,0.0,0.891,0.0,0.7076,0.7244,0.687,0.0,0.0,0.5819,0.5146,0.4531,0.3525,0.2294,0.0784,0.0504,-0.0224,-0.1402,-0.1683,-0.1795,-0.1795,-0.2104,-0.2857,-0.4002,-0.5088,-0.6292,-0.7473,-0.8278,-0.8598,-0.8598,-0.8598,-0.8598,-0.8594,-0.8557,-0.836,-0.8092,-0.8005,-0.778,-0.7434,0.0,0.0,0.0,0.0,0.0,0.0,0.0,0.0,0.0,0.0,0.0,0.0,0.0,0.0,0.0,0.0,0.0,0.0,0.0,3.9009,3.8535,3.8535,3.8394,3.7931,3.7077,3.6391,3.565,3.4842,3.389,3.3416,3.3398,3.2872,3.2626,3.2626,3.2626,3.2626,3.261,3.253,3.2908,0.0,0.0,3.308,3.3492,3.2408,3.2176,3.2259,3.1132,0.0,0.0,0.0,0.0,2.9889,2.8821,2.7769,2.6739,2.602,0.0,2.4456,2.3706,2.325,2.2767,2.1842,2.1318,2.0807,1.9792,1.9552,1.9156,1.7739,1.7274,0.0,0.0,0.0,0.0,0.0,0.0,0.0,1.0038,0.9641,0.9284,0.0,0.802,0.0,0.74,0.6822,0.6586,0.0,0.6456,0.5984,0.5427,0.4722,0.3374,0.1384,0.11,0.0274,-0.1261,-0.1591,-0.1755,-0.1755,-0.1737,-0.2376,-0.3506,-0.4111,-0.5309,-0.6948,0.0,-0.8059,-0.8482,-0.8482,-0.8482,-0.8469,-0.834,-0.8143,-0.7874,-0.7794,-0.7546,-0.7272,0.0,0.0,0.0,0.0,0.0,0.0,0.0,0.0,0.0,0.0,0.0,0.0,0.0,0.0,0.0,0.0,0.0,0.0,0.0,0.0,0.0,3.9101,3.8822,3.8302,3.7474,3.6386,3.5433,3.4633,3.3818,3.3419,3.3404,3.3178,3.3069,3.3069,3.3069,3.3069,3.3103,3.3288,3.3584,3.3843,3.3096,3.2893,3.2902,0.0,0.0,0.0,0.0,0.0,0.0,0.0,3.0985,2.9642,2.8871,2.794,2.6984,2.6118,2.5563,2.506,2.4247,2.3575,2.3014,2.2841,2.2296,2.1442,2.025,1.9974,1.9418,1.7519,0.0,1.6729,1.6095,1.4995,1.392,1.3216,0.0,1.1025,1.0294,1.0081,0.9772,0.9113,0.8404,0.7788,0.7426,0.6828,0.6501,0.673,0.6975,0.6664,0.5669,0.5477,0.4237,0.1631,0.134,0.0426,-0.1225,-0.1491,-0.1651,-0.1651,-0.17,-0.2228,-0.3288,-0.3386,-0.4537,-0.6427,0.0,0.0,-0.8213,-0.8373,-0.8425,-0.8394,-0.8116,-0.7916,-0.775,-0.7475,-0.7275,-0.7095,0.0,0.0,0.0,0.0,0.0,0.0,0.0,0.0,0.0,0.0,4.3883,4.3897,0.0,0.0,0.0,0.0,0.0,0.0,0.0,0.0,0.0,0.0,3.9041,3.8642,3.7826,0.0,0.0,0.0,0.0,3.4043,3.4043,3.3986,3.3974,3.3974,3.3974,3.3974,3.3961,3.3802,3.3599,3.34,3.2977,3.2675,3.2459,3.2,0.0,0.0,0.0,0.0,0.0,0.0,3.1159,3.094,2.9704,2.8702,2.7741,2.6511,2.5547,2.4723,2.391,2.3595,2.3222,2.2046,2.1669,2.1318,2.0483,2.0319,0.0,0.0,1.8128,1.7289,1.6551,1.5078,0.0,1.3756,0.0,0.0,0.0,0.0,0.9951,0.0,0.0,0.0,0.0,0.0,0.0,0.0,0.0,0.6757,0.6544,0.6523,0.5333,0.2774,0.1705,0.0479,-0.096,-0.1225,-0.1385,-0.1384,-0.1576,-0.1826,-0.2033,-0.287,-0.3458,-0.3964,-0.5737,0.0,-0.6852,-0.7711,-0.8066,-0.8049,-0.7919,-0.7763,-0.7614,-0.7438,-0.7275,-0.7095,0.0,0.0,0.0,0.0,0.0,0.0,0.0,4.3851,4.3883,4.3945,4.3942,4.3958,4.4005,4.4005,4.4005,0.0,0.0,0.0,0.0,0.0,0.0,0.0,0.0,0.0,0.0,0.0,0.0,0.0,0.0,0.0,0.0,0.0,0.0,0.0,0.0,0.0,3.4185,3.4061,3.3743,3.3291,3.3124,3.28,0.0,0.0,0.0,0.0,0.0,0.0,0.0,0.0,3.1456,3.1212,2.9913,2.8635,2.7454,2.6474,2.5767,2.5103,2.4414,2.3911,2.3423,2.2763,2.2023,2.1355,2.0749,0.0,0.0,0.0,1.8187,1.7567,1.6596,0.0,0.0,0.0,0.0,0.0,0.0,0.0,0.0,0.0,0.0,0.0,0.0,0.0,0.0,0.0,0.0,0.6668,0.6796,0.6213,0.5006,0.3153,0.1863,0.0621,-0.0623,-0.0881,-0.1088,-0.1243,-0.1388,-0.1536,-0.1689,-0.2128,-0.2672,-0.3274,-0.4277,0.0,-0.5629,-0.6734,-0.7146,-0.7119,-0.7516,-0.7611,-0.7461,-0.7305,-0.7204,-0.7095,0.0,0.0,0.0,0.0,0.0,0.0,0.0,4.3929,4.3945,4.3989,4.4048,4.4094,4.4094,4.4033,4.4005,0.0,0.0,0.0,0.0,0.0,0.0,0.0,0.0,0.0,0.0,0.0,0.0,0.0,0.0,0.0,0.0,0.0,0.0,0.0,0.0,0.0,0.0,0.0,3.381,0.0,0.0,0.0,0.0,0.0,0.0,0.0,0.0,0.0,0.0,0.0,3.1561,3.0962,2.9794,2.8383,2.7014,2.6401,2.5805,2.5265,2.4791,2.4067,2.3462,2.3319,2.2461,2.1474,2.0796,2.0238,0.0,0.0,1.8104,1.7724,1.6822,0.0,1.5578,0.0,0.0,0.0,0.0,0.0,0.0,0.0,0.0,0.0,0.0,0.0,0.0,0.0,0.0,0.0,0.6714,0.5801,0.4645,0.3225,0.2167,0.1009,-0.0303,-0.0556,-0.0806,-0.1004,-0.1105,-0.1253,-0.1497,-0.1497,-0.1995,-0.2837,-0.3086,0.0,0.0,-0.5612,-0.6105,-0.6251,-0.6985,-0.729,-0.7398,-0.7152,-0.7095,-0.7095,0.0,0.0,0.0,0.0,0.0,0.0,0.0,4.3989,4.3989,4.4005,4.4206,4.4374,4.4374,4.4151,4.4005,0.0,0.0,0.0,0.0,0.0,0.0,0.0,0.0,0.0,0.0,0.0,0.0,0.0,0.0,0.0,0.0,0.0,0.0,0.0,0.0,0.0,0.0,0.0,0.0,0.0,0.0,0.0,0.0,0.0,0.0,0.0,0.0,0.0,0.0,0.0,0.0,3.0202,2.9535,2.8373,2.7144,2.6477,0.0,0.0,2.4171,2.3667,2.3002,2.2382,2.2133,2.1702,2.0465,0.0,0.0,1.9142,1.8486,1.7978,1.7847,1.667,1.5766,0.0,0.0,1.3296,0.0,0.0,0.0,0.0,0.0,0.0,0.0,0.0,0.0,0.0,0.0,0.0,0.6419,0.6308,0.534,0.3274,0.3073,0.2016,0.0,-0.0303,-0.0451,-0.0492,-0.0738,-0.0975,-0.1247,-0.1247,-0.139,-0.1725,-0.2678,0.0,0.0,-0.4395,-0.5389,-0.6172,-0.6094,-0.6594,-0.7398,-0.7152,-0.7095,-0.7095,0.0,0.0,0.0,0.0,0.0,0.0,4.4388,4.4435,4.4435,4.4435,4.4517,4.4572,4.4572,4.4506,4.4484,4.4484,0.0,0.0,0.0,0.0,0.0,0.0,0.0,0.0,0.0,0.0,0.0,0.0,0.0,0.0,0.0,0.0,0.0,0.0,0.0,0.0,0.0,0.0,0.0,0.0,0.0,0.0,0.0,0.0,0.0,0.0,0.0,0.0,0.0,0.0,0.0,0.0,2.9995,2.8722,0.0,0.0,2.5786,2.509,2.4738,2.4176,2.3649,2.3369,2.2683,2.1947,2.1416,0.0,2.0031,1.9748,1.9154,1.8519,1.807,1.7408,1.6652,1.5976,0.0,0.0,0.0,0.0,0.0,0.0,0.0,0.0,0.0,0.0,0.0,0.0,0.0,0.0,0.6227,0.6295,0.5642,0.4159,0.3427,0.2337,0.0877,0.0195,-0.0243,-0.0386,-0.0531,-0.0721,-0.0954,-0.1144,-0.124,-0.1335,-0.1905,0.0,0.0,-0.3281,-0.3917,-0.4338,-0.545,-0.6077,-0.6415,-0.6941,-0.7095,-0.7095,0.0,0.0,0.0,0.0,0.0,4.4538,4.468,4.4712,4.4712,4.4712,4.4758,4.4826,4.4826,4.4915,4.4996,4.5007,4.5137,0.0,0.0,0.0,0.0,0.0,0.0,0.0,0.0,0.0,4.0185,3.9572,3.9242,0.0,0.0,0.0,0.0,0.0,0.0,0.0,0.0,0.0,0.0,0.0,0.0,0.0,0.0,0.0,0.0,0.0,0.0,0.0,0.0,0.0,0.0,0.0,0.0,0.0,0.0,0.0,2.6204,2.5784,2.5161,2.4567,2.4031,2.3855,2.31,2.2329,0.0,0.0,2.057,2.0193,1.9715,1.9187,1.8442,1.7935,1.7269,1.6197,0.0,1.4394,0.0,0.0,0.0,0.0,0.0,0.0,0.0,0.0,0.0,0.0,0.0,0.0,0.0,0.6132,0.5694,0.4657,0.3878,0.2804,0.1427,0.0762,0.019,-0.0284,-0.0284,-0.0424,-0.0702,-0.089,-0.0984,-0.1077,0.0,0.0,0.0,-0.2245,-0.2688,-0.2931,-0.4431,-0.5113,-0.5406,-0.634,-0.6697,-0.6741,0.0,0.0,0.0,0.0,0.0,0.0,4.468,4.4712,4.4712,4.4712,4.4931,4.5103,4.5103,4.527,4.5419,4.5495,4.5312,0.0,0.0,0.0,0.0,0.0,0.0,0.0,0.0,0.0,4.0397,4.0186,4.0186,3.9464,3.8091,0.0,0.0,0.0,0.0,0.0,0.0,0.0,0.0,0.0,0.0,0.0,0.0,0.0,0.0,0.0,0.0,0.0,0.0,0.0,0.0,0.0,0.0,0.0,0.0,0.0,2.6474,2.5784,2.5161,2.4567,2.3943,2.3275,2.3108,2.2914,0.0,2.2082,2.1698,2.0376,2.0096,1.9879,1.9198,1.8172,1.7269,1.6866,1.5835,0.0,0.0,0.0,0.0,0.0,0.0,0.0,0.0,0.0,0.0,0.0,0.0,0.0,0.0,0.5972,0.5493,0.4512,0.4514,0.3469,0.1428,0.1379,0.0895,0.0,0.0,-0.0137,-0.0404,-0.0404,-0.0538,0.0,0.0,0.0,0.0,-0.1212,-0.1838,-0.2553,-0.2823,-0.3491,-0.4423,-0.5361,-0.5719,-0.5852,0.0,0.0,0.0,0.0,0.0,0.0,0.0,4.5114,4.5114,4.5114,4.5213,4.5307,4.5307,4.5361,4.541,4.5429,4.5419,0.0,0.0,0.0,0.0,0.0,0.0,0.0,0.0,0.0,4.0372,4.0129,3.9943,3.9551,3.8913,3.8733,3.8484,0.0,0.0,0.0,0.0,0.0,0.0,0.0,0.0,0.0,0.0,0.0,0.0,0.0,0.0,0.0,0.0,0.0,0.0,0.0,0.0,0.0,0.0,2.7514,0.0,0.0,2.6272,2.5797,2.5175,2.4553,2.4076,2.3619,2.2932,2.2433,2.1854,2.0965,2.042,1.9911,1.9231,1.8697,1.794,1.6677,1.6239,0.0,0.0,0.0,0.0,0.0,0.0,0.0,0.0,0.0,0.0,0.0,0.0,0.0,0.0,0.6074,0.5657,0.5444,0.4734,0.3742,0.2421,0.1737,0.0912,0.0,0.0,-0.0045,-0.0135,-0.0314,0.0,0.0,0.0,0.0,0.0,-0.0852,-0.1076,-0.1344,-0.206,-0.264,-0.3175,-0.4109,-0.4601,-0.487,0.0,0.0,0.0,0.0,0.0,0.0,0.0,4.5307,4.5307,4.5307,4.5338,4.5359,4.5359,4.537,4.537,4.539,4.5448,0.0,0.0,0.0,0.0,0.0,0.0,0.0,0.0,4.1138,4.0519,3.995,3.9671,3.9402,3.9115,3.895,3.8848,3.8851,3.8523,0.0,0.0,0.0,0.0,0.0,0.0,0.0,3.6849,0.0,0.0,0.0,0.0,0.0,0.0,0.0,0.0,0.0,0.0,0.0,0.0,0.0,2.7321,2.6937,0.0,2.6206,2.5688,2.4879,2.4379,0.0,0.0,2.2781,2.2279,2.1616,2.0921,2.0258,1.9584,1.9031,1.8148,1.655,1.6254,0.0,0.0,0.0,0.0,0.0,0.0,0.0,0.0,0.0,0.0,0.0,0.0,0.0,0.0,0.6083,0.5721,0.5836,0.5183,0.4389,0.3449,0.2464,0.148,0.0539,0.018,0.0,0.0,-0.018,0.0,0.0,0.0,0.0,0.0,-0.0628,-0.0673,-0.0673,-0.1299,-0.188,-0.2462,-0.3441,-0.4198,-0.4868,0.0,0.0,0.0,0.0,0.0,0.0,0.0,4.5297,4.5307,4.5307,4.5307,4.5297,4.5256,4.5256,4.5277,4.5328,0.0,0.0,0.0,0.0,0.0,0.0,0.0,0.0,4.1841,4.1457,4.0767,3.9746,3.9446,3.911,3.8792,3.8792,3.8792,3.8777,3.8362,3.7997,3.7685,3.6989,3.6702,3.6702,3.6702,3.6681,0.0,0.0,0.0,0.0,0.0,0.0,0.0,0.0,0.0,0.0,0.0,0.0,0.0,0.0,0.0,0.0,0.0,2.5948,0.0,0.0,0.0,0.0,2.3245,2.3108,0.0,2.2175,2.1522,2.0869,2.0161,1.9198,1.8056,1.662,1.6026,0.0,0.0,0.0,0.0,0.0,0.0,0.0,0.0,0.0,0.0,0.0,0.0,0.0,0.0,0.6127,0.5688,0.5688,0.5688,0.524,0.43,0.3449,0.2465,0.1391,0.0584,0.0135,0.0,0.009,0.0,0.0,0.0,0.0,0.0,-0.0449,-0.0538,-0.0404,-0.0583,-0.121,-0.2104,-0.3042,-0.4156,-0.5312,0.0,0.0,0.0,0.0,0.0,0.0,0.0,0.0,0.0,0.0,4.5307,4.5194,4.4946,4.4922,4.4831,0.0,0.0,0.0,0.0,0.0,0.0,0.0,0.0,0.0,4.2931,4.1604,4.0659,4.0157,3.9469,3.899,3.8719,3.8719,3.8719,3.8689,3.8103,3.7504,3.695,3.6766,3.6702,3.6702,3.6702,3.6444,0.0,0.0,0.0,0.0,3.4118,3.3873,0.0,0.0,0.0,0.0,0.0,0.0,0.0,0.0,2.7839,2.7605,2.6803,0.0,2.6299,2.5077,2.4794,2.4509,0.0,2.3108,2.2763,2.1596,0.0,0.0,1.9551,1.9131,1.8553,1.7335,1.6576,0.0,0.0,0.0,0.0,0.0,0.0,0.0,0.0,0.0,0.0,0.0,0.0,0.0,0.0,0.639,0.5688,0.5688,0.5688,0.524,0.43,0.4074,0.309,0.1391,0.1973,0.1436,0.0045,0.0763,0.0,0.0,0.0,0.0,0.0,-0.0135,-0.0135,-0.009,-0.0135,-0.0404,-0.0806,-0.1075,-0.1924,-0.3078,0.0,0.0,0.0,0.0,0.0,0.0,0.0,0.0,0.0,0.0,0.0,0.0,0.0,0.0,0.0,0.0,0.0,0.0,0.0,0.0,0.0,0.0,0.0,4.3837,4.3271,4.2237,4.1152,4.0019,3.9663,3.9007,3.8152,3.8352,3.8336,3.8136,3.7578,3.7032,3.6523,3.6523,3.6523,3.6523,3.6523,0.0,0.0,0.0,0.0,0.0,3.4184,3.3873,0.0,3.3424,3.3056,3.2592,0.0,0.0,0.0,0.0,2.8021,2.779,2.7233,2.6937,2.6527,2.53,2.5007,2.4681,2.3382,0.0,0.0,0.0,0.0,0.0,0.0,0.0,0.0,0.0,0.0,0.0,0.0,0.0,0.0,0.0,0.0,0.0,0.0,0.0,0.0,0.0,0.0,0.0,0.0,0.6959,0.6186,0.613,0.578,0.5409,0.4926,0.4523,0.3762,0.2732,0.2795,0.2252,0.1238,0.1313,0.1089,0.0,0.0,0.0,0.0,0.0,0.0,0.0,0.0,-0.0349,-0.0871,-0.0871,-0.1609,-0.2732,0.0,0.0,0.0,0.0,0.0,0.0,0.0,0.0,0.0,0.0,0.0,0.0,0.0,0.0,0.0,0.0,0.0,0.0,0.0,0.0,0.0,0.0,4.4261,4.3901,4.3067,4.2701,4.1649,3.9886,3.9886,3.913,3.7684,3.8024,3.7899,3.7377,3.7055,3.6678,3.6301,3.6301,3.6301,3.6301,3.6301,0.0,0.0,0.0,0.0,0.0,0.0,0.0,0.0,3.3477,3.3309,3.3056,3.1624,0.0,0.0,0.0,0.0,0.0,2.7488,2.7119,2.6527,2.5412,2.5077,2.4696,2.3501,0.0,0.0,0.0,0.0,0.0,0.0,0.0,0.0,0.0,0.0,0.0,0.0,0.0,0.0,0.0,0.0,0.0,0.0,0.0,0.0,0.0,0.0,0.0,0.0,0.7599,0.6747,0.6547,0.5949,0.5616,0.5634,0.4877,0.4389,0.421,0.3483,0.2977,0.2631,0.199,0.1554,0.0,0.0,0.0,0.0,0.0,0.0,0.0,0.0,-0.0505,-0.1177,-0.1177,-0.1931,-0.2931,0.0,0.0,0.0,0.0,0.0,0.0,0.0,0.0,0.0,0.0,0.0,0.0,0.0,0.0,0.0,0.0,0.0,0.0,0.0,0.0,0.0,4.2584,4.2795,4.2723,4.2364,4.164,4.1114,4.0803,4.0138,3.9348,3.8431,3.8487,3.798,3.6997,3.6919,3.6678,3.6301,3.6301,3.6301,3.6301,3.6301,0.0,0.0,0.0,0.0,0.0,0.0,0.0,0.0,3.3477,3.3309,3.3056,3.1624,0.0,0.0,0.0,0.0,0.0,2.7478,2.7119,2.6633,2.5948,2.5398,2.4823,2.4118,0.0,0.0,0.0,0.0,0.0,0.0,0.0,0.0,0.0,0.0,0.0,0.0,0.0,0.0,0.0,0.0,0.0,0.0,0.0,0.0,0.0,0.0,0.0,0.0,0.7708,0.6909,0.6351,0.6226,0.5946,0.5468,0.5297,0.4788,0.3982,0.4646,0.413,0.2571,0.3191,0.2684,0.0,0.0,0.0673,0.0,0.0,0.0,0.0,0.0,-0.0084,-0.021,-0.021,-0.0841,-0.18,0.0,0.0,0.0,0.0,0.0,0.0,0.0,0.0,0.0,0.0,0.0,0.0,0.0,0.0,0.0,0.0,0.0,0.0,0.0,0.0,4.1931,4.1424,4.127,4.1507,4.2177,4.1841,4.1327,4.0671,4.0524,3.9818,3.859,3.8187,3.7493,3.6577,3.6577,3.6471,3.6301,3.6301,3.6301,3.6301,0.0,0.0,0.0,0.0,0.0,0.0,0.0,0.0,0.0,0.0,3.3408,3.2924,3.1448,0.0,0.0,0.0,0.0,0.0,2.769,2.731,2.6896,2.65,2.5934,2.5258,2.4321,0.0,0.0,0.0,0.0,0.0,0.0,0.0,0.0,0.0,0.0,0.0,0.0,0.0,0.0,0.0,0.0,0.0,0.0,0.0,0.0,0.0,0.0,0.0,0.0,0.0,0.7158,0.6524,0.613,0.5746,0.5408,0.5137,0.4912,0.4696,0.5095,0.4815,0.3948,0.3899,0.3394,0.2587,0.0,0.1053,0.0648,0.0203,0.0,0.0,0.0,0.0,0.0,0.0,-0.0276,-0.0778,0.0,0.0,0.0,0.0,0.0,0.0,0.0,0.0,0.0,0.0,0.0,0.0,0.0,0.0,0.0,0.0,0.0,0.0,0.0,0.0,4.088,4.0363,3.9994,4.0324,4.1468,4.1508,4.1051,4.0111,4.0434,3.9834,3.8459,3.7536,3.6801,3.6198,3.5993,3.5885,3.5902,3.5864,3.5864,3.5864,0.0,0.0,0.0,0.0,0.0,0.0,0.0,0.0,0.0,0.0,0.0,0.0,0.0,0.0,0.0,2.9184,2.8493,2.8088,2.7775,2.7397,2.7011,2.6765,0.0,2.5605,2.4551,0.0,0.0,0.0,0.0,0.0,0.0,0.0,0.0,0.0,0.0,0.0,0.0,0.0,0.0,0.0,0.0,0.0,0.0,0.0,0.0,0.0,0.0,0.0,0.0,0.0,0.7509,0.6853,0.6261,0.5838,0.5591,0.5123,0.5064,0.5402,0.5184,0.5101,0.5059,0.4344,0.3883,0.3653,0.2347,0.158,0.1195,0.054,0.0154,0.0,0.0,0.0,0.0,0.0,0.0,-0.0109,0.0,0.0,0.0,0.0,0.0,0.0,0.0,0.0,0.0,0.0,0.0,0.0,0.0,0.0,0.0,0.0,0.0,0.0,0.0,0.0,3.9741,3.9322,3.9269,3.9295,3.9411,3.9411,3.9368,3.9292,3.9318,3.8883,3.8015,3.6647,3.5966,3.5883,3.5081,3.4719,3.4719,3.46,3.4552,3.4552,3.4552,0.0,0.0,0.0,0.0,0.0,0.0,0.0,0.0,0.0,0.0,0.0,0.0,0.0,3.0365,2.9152,2.8436,2.793,2.7464,2.7045,2.6669,2.6404,2.6123,0.0,2.5077,2.4509,0.0,2.3185,0.0,0.0,0.0,0.0,0.0,0.0,0.0,0.0,0.0,0.0,0.0,0.0,0.0,0.0,0.0,0.0,0.0,0.0,0.0,0.0,0.0,0.0,0.0,0.7174,0.7103,0.6774,0.6154,0.5623,0.5358,0.5398,0.4949,0.4728,0.4728,0.4681,0.4201,0.3435,0.3289,0.245,0.1099,0.1063,0.0623,0.0,0.0,0.0,0.0,0.0,0.0,-0.0036,0.0,0.0,0.0,0.0,0.0,0.0,0.0,0.0,0.0,0.0,0.0,0.0,0.0,0.0,0.0,0.0,0.0,0.0,0.0,3.9543,3.9069,3.825,3.8193,3.7777,3.6858,3.8402,3.9206,3.9206,3.9065,3.8546,3.7656,3.6723,3.6032,3.5547,3.4808,3.4479,3.4479,3.4431,3.4406,3.4406,3.4406,3.4406,0.0,0.0,0.0,0.0,0.0,0.0,0.0,0.0,3.2996,3.247,3.1026,3.0516,3.0228,2.8918,2.8411,2.8177,2.7825,2.7509,2.7152,2.6669,2.6351,0.0,0.0,2.5077,2.4481,2.3855,0.0,0.0,0.0,0.0,0.0,0.0,0.0,0.0,0.0,0.0,0.0,0.0,0.0,0.0,0.0,0.0,0.0,0.0,0.0,0.0,0.0,0.0,0.0,0.692,0.6882,0.678,0.6509,0.5969,0.5699,0.5703,0.5006,0.469,0.469,0.469,0.4506,0.4179,0.3634,0.3054,0.2474,0.1493,0.0948,0.0656,0.0182,0.0,0.0,0.0,0.0,0.0,0.0,0.0,0.0,0.0,0.0,0.0,0.0,0.0,0.0,0.0,0.0,0.0,0.0,0.0,0.0,0.0,0.0,0.0,3.8125,3.7914,3.748,3.6737,3.6706,3.6245,3.5222,3.6917,3.7799,3.7799,3.7901,3.7616,3.6961,3.6313,3.5717,3.5207,3.4246,3.3827,3.3827,3.3786,3.3761,3.3761,3.3761,3.3761,0.0,0.0,0.0,0.0,0.0,0.0,0.0,0.0,3.283,3.2292,3.0843,3.0402,3.014,2.8796,2.8411,2.8323,2.7925,2.7585,2.7188,0.0,0.0,0.0,2.6015,2.5412,2.4709,0.0,0.0,0.0,0.0,0.0,0.0,0.0,0.0,0.0,0.0,0.0,0.0,0.0,0.0,0.0,0.0,0.0,0.0,0.0,0.0,0.0,0.0,0.0,0.0,0.0,0.7286,0.7151,0.7151,0.6616,0.635,0.635,0.5599,0.5042,0.4577,0.4577,0.4577,0.4542,0.3937,0.3547,0.3262,0.22,0.1492,0.1031,0.0284,0.0,0.0,0.0,0.0,0.0,0.0,0.0,0.0,0.0,0.0,0.0,0.0,0.0,0.0,0.0,0.0,0.0,0.0,0.0,0.0,0.0,0.0,0.0,3.5732,3.5118,3.4784,3.4784,3.4784,3.4751,3.4751,3.4751,3.4798,3.4784,3.5531,3.5881,3.585,3.5194,3.488,3.4802,3.328,3.2578,3.2578,3.2425,3.2398,3.2398,3.2398,3.2398,3.2398,0.0,0.0,0.0,0.0,0.0,0.0,0.0,3.2398,3.2167,3.0817,3.0402,3.014,2.8796,2.8411,2.8259,2.768,2.7119,0.0,0.0,0.0,0.0,2.6163,2.5384,0.0,0.0,0.0,0.0,0.0,0.0,0.0,0.0,0.0,0.0,0.0,0.0,0.0,0.0,0.0,0.0,0.0,0.0,0.0,0.0,0.0,0.0,0.0,0.0,0.0,0.0,0.8539,0.8115,0.8115,0.7584,0.7304,0.73,0.677,0.5755,0.4336,0.4303,0.4303,0.4303,0.4303,0.3894,0.3218,0.3218,0.2383,0.1043,0.0303,0.0,0.0,0.0,0.0,0.0,0.0,0.0,0.0,0.0,0.0,0.0,0.0,0.0,0.0,0.0,0.0,0.0,0.0,0.0,0.0,0.0,0.0,0.0,3.442,3.3869,3.3356,3.2982,3.2982,3.268,3.2092,3.2177,3.3066,3.4647,3.4894,3.4912,3.4751,3.3646,3.3133,3.3073,3.1708,3.1102,3.1102,3.1072,3.1072,3.1072,3.1072,3.1349,3.1766,0.0,0.0,0.0,0.0,0.0,0.0,0.0,0.0,0.0,3.0817,3.0402,3.014,2.8796,2.8411,2.8348,2.8186,2.757,0.0,0.0,0.0,0.0,0.0,0.0,0.0,0.0,0.0,0.0,0.0,0.0,0.0,0.0,0.0,0.0,0.0,0.0,0.0,0.0,0.0,0.0,0.0,0.0,0.0,0.0,0.0,0.0,0.0,0.0,0.0,0.0,0.9445,0.8931,0.8931,0.8221,0.7655,0.73,0.7126,0.6643,0.585,0.5425,0.5211,0.5176,0.4759,0.4439,0.4225,0.3692,0.2914,0.1992,0.1211,0.0927,0.0855,0.0214,0.0,0.0,0.0,0.0,0.0,0.0,0.0,0.0,0.0,0.0,0.0,0.0,0.0,0.0,0.0,0.0,0.0,0.0,0.0,0.0,0.0,3.1604,3.1116,3.0438,3.04,3.0339,3.0139,3.0266,3.1177,3.289,3.3685,3.3973,3.3842,3.3103,3.2626,3.2367,3.1321,3.0726,3.0494,3.0494,3.0494,3.0494,3.0494,3.0733,3.1116,0.0,0.0,0.0,0.0,0.0,0.0,0.0,0.0,0.0,3.0817,3.0402,3.014,2.8796,2.8411,2.8411,2.8411,0.0,0.0,0.0,0.0,0.0,0.0,0.0,0.0,0.0,0.0,0.0,0.0,0.0,0.0,0.0,0.0,0.0,0.0,0.0,0.0,0.0,0.0,0.0,0.0,0.0,0.0,0.0,0.0,0.0,0.0,0.0,0.0,0.0,1.0723,1.0128,0.9882,0.9264,0.8648,0.8075,0.7929,0.7673,0.7339,0.6396,0.5943,0.5907,0.5333,0.4939,0.4654,0.3889,0.3344,0.2875,0.2075,0.1784,0.1675,0.0838,0.0728,0.0948,0.0,0.0,0.0,0.0,0.0,0.0,0.0,0.0,0.0,0.0,3.391,0.0,0.0,0.0,0.0,0.0,0.0,0.0,0.0,0.0,2.8342,2.7561,2.7521,2.7893,2.8682,2.8748,2.9203,3.0075,3.201,3.2932,3.2953,3.301,3.2727,3.2126,3.1493,3.0904,3.0343,3.0343,3.0343,3.0343,3.0343,3.0359,3.0494,3.1087,0.0,0.0,0.0,0.0,0.0,0.0,0.0,0.0,3.0817,3.0402,3.014,2.8796,2.8411,2.8411,2.8411,0.0,0.0,0.0,0.0,0.0,0.0,0.0,0.0,0.0,0.0,0.0,0.0,0.0,0.0,0.0,0.0,0.0,0.0,0.0,0.0,0.0,0.0,0.0,0.0,0.0,0.0,0.0,0.0,0.0,0.0,0.0,0.0,1.3047,1.2234,1.1539,1.0993,1.0571,1.0051,0.0,0.9041,0.8813,0.8765,0.7289,0.6605,0.6497,0.5876,0.5334,0.4829,0.4099,0.3807,0.3732,0.3039,0.271,0.2529,0.176,0.1907,0.239,0.0,0.0,0.0,0.0,0.0,0.0,0.0,0.0,0.0,0.0,0.0,0.0,0.0,0.0,0.0,0.0,0.0,0.0,0.0,0.0,2.6408,2.6213,2.6213,2.6295,2.6502,2.6948,2.7636,2.856,3.0152,3.0932,3.0932,3.0989,3.0683,3.0111,2.9967,2.9573,2.9022,2.9022,2.9022,2.9022,2.9022,2.9296,2.9721,2.9875,3.0254,0.0,0.0,0.0,0.0,0.0,0.0,0.0,3.0817,3.0402,3.014,2.8796,2.8411,2.8411,0.0,2.7885,0.0,0.0,0.0,0.0,0.0,0.0,0.0,0.0,0.0,0.0,0.0,0.0,0.0,0.0,0.0,0.0,0.0,0.0,0.0,0.0,0.0,0.0,0.0,0.0,0.0,0.0,0.0,0.0,0.0,0.0,0.0,1.4093,1.3127,1.2565,1.2462,1.1755,1.123,0.0,1.0228,0.9787,0.9609,0.8152,0.7249,0.676,0.6114,0.6076,0.6377,0.5692,0.539,0.5387,0.507,0.4342,0.3465,0.3079,0.2772,0.2467,0.0,0.0,0.0,0.0,0.0,0.0,0.0,0.0,0.0,0.0,0.0,0.0,0.0,0.0,0.0,0.0,0.0,0.0,0.0,0.0,2.3806,2.3846,2.3846,2.4243,2.5158,2.5504,2.6036,2.6871,2.7936,2.9096,3.0317,3.0148,2.963,2.8805,2.8588,2.8028,2.7271,2.7271,2.7471,2.7796,2.7796,2.8222,2.8853,2.9251,2.9625,3.004,3.0763,0.0,0.0,0.0,0.0,0.0,0.0,0.0,3.014,2.8796,2.8411,2.8411,0.0,0.0,0.0,0.0,0.0,0.0,0.0,0.0,0.0,0.0,0.0,0.0,0.0,0.0,0.0,0.0,0.0,0.0,0.0,0.0,0.0,0.0,0.0,0.0,0.0,0.0,0.0,0.0,0.0,0.0,0.0,1.5739,1.5299,1.4942,1.4135,1.3581,1.3302,1.2353,1.1679,1.128,1.0671,1.028,1.0086,0.883,0.7897,0.7322,0.6976,0.6865,0.6865,0.6518,0.6363,0.6363,0.6276,0.5848,0.522,0.454,0.4218,0.4025,0.0,0.0,0.0,0.0,0.0,0.0,0.0,0.0,0.0,0.0,0.0,0.0,0.0,0.0,0.0,0.0,0.0,0.0,0.0,0.0,0.0,2.1373,2.1329,2.2031,2.3597,2.3823,2.4253,2.4946,2.5663,2.7209,2.9383,2.9408,2.8885,2.7927,2.7558,2.6845,2.5912,2.5826,2.6158,2.6718,2.6718,2.7116,2.7789,2.8454,2.8762,2.8998,2.9752,3.0525,3.1146,3.1233,0.0,0.0,0.0,0.0,3.0156,2.8925,2.8488,2.8411,0.0,0.0,0.0,0.0,0.0,0.0,0.0,0.0,0.0,0.0,0.0,0.0,0.0,0.0,0.0,0.0,0.0,0.0,0.0,0.0,0.0,0.0,0.0,0.0,0.0,0.0,0.0,0.0,0.0,0.0,1.6597,1.6027,1.5643,1.5482,1.5006,1.446,1.3859,1.3094,1.2388,1.1737,1.1219,1.0779,1.039,0.9416,0.8623,0.8021,0.7912,0.7572,0.7079,0.7003,0.6965,0.6969,0.7083,0.6969,0.6684,0.5898,0.5747,0.5744,0.0,0.0,0.0,0.0,0.0,0.0,0.0,0.0,0.0,0.0,0.0,0.0,0.0,0.0,0.0,0.0,0.0,0.0,2.0584,0.0,0.0,2.0158,1.9914,1.9898,2.0161,2.1025,2.1906,2.2727,2.3707,2.4713,2.5817,2.751,2.7984,2.7308,2.7382,2.7041,2.638,2.5974,2.5859,2.5963,2.5963,2.5998,2.6136,2.6227,2.6671,2.7311,2.8004,2.8848,2.9656,3.021,3.094,0.0,0.0,0.0,3.0248,2.9479,2.8873,2.8411,0.0,0.0,0.0,0.0,0.0,0.0,0.0,0.0,0.0,0.0,0.0,0.0,0.0,0.0,0.0,0.0,0.0,0.0,0.0,0.0,0.0,0.0,0.0,0.0,0.0,0.0,0.0,0.0,0.0,0.0,1.666,1.6502,1.6154,1.5514,1.5418,1.5104,1.4493,1.4867,1.4672,1.3875,1.2945,1.1825,1.0544,1.0311,0.971,0.8902,0.836,0.8079,0.791,0.7372,0.7157,0.7229,0.7731,0.7265,0.636,0.6801,0.6614,0.6075,0.0,0.0,0.0,0.0,0.0,0.0,0.0,0.0,0.0,0.0,0.0,0.0,0.0,0.0,0.0,1.9733,1.8748,1.7663,1.653,1.6886,1.7414,1.7964,1.8434,1.8902,1.9497,1.9951,2.0567,2.1364,2.2224,2.3033,2.3844,2.5115,2.5741,2.5864,2.5656,2.5479,2.5367,2.4849,2.4887,2.5264,2.498,2.5122,2.5534,2.5603,2.5847,2.6214,2.7051,2.7834,2.8625,2.9289,3.0074,3.0631,2.9973,0.0,0.0,0.0,2.8399,0.0,2.8323,0.0,0.0,0.0,0.0,0.0,0.0,0.0,0.0,0.0,0.0,0.0,0.0,0.0,0.0,0.0,0.0,0.0,0.0,0.0,0.0,0.0,0.0,0.0,0.0,0.0,0.0,0.0,0.0,1.8065,1.7466,1.7437,1.7145,1.6456,1.6118,1.5656,1.5044,1.4983,1.4776,1.4413,1.3848,1.3226,1.2615,1.236,1.1353,0.9823,0.9434,0.926,0.9195,0.8945,0.884,0.884,0.9125,0.8664,0.784,0.8012,0.7489,0.6607,0.0,0.0,0.0,0.0,0.0,0.0,0.0,0.0,0.0,0.0,0.0,0.0,0.0,0.0,0.0,0.0,1.6732,1.5089,1.3578,1.4118,1.4835,1.5617,1.6284,1.7127,1.8149,1.8426,1.894,1.9778,2.0809,2.1632,2.2167,2.294,2.3629,2.4284,2.3992,2.3969,2.4098,2.3606,2.3731,2.4204,2.3742,2.3864,2.4413,2.4587,2.4743,2.5016,2.5869,2.6769,2.769,2.8239,2.9069,2.9836,2.938,2.8914,0.0,0.0,0.0,0.0,0.0,0.0,0.0,0.0,0.0,0.0,0.0,0.0,0.0,0.0,0.0,0.0,0.0,0.0,0.0,0.0,0.0,0.0,0.0,0.0,0.0,0.0,0.0,0.0,0.0,0.0,0.0,0.0,0.0,1.8447,1.8298,1.8174,1.7902,1.7451,1.6985,1.6394,1.5623,1.5187,1.4952,1.4952,1.4816,1.458,1.4273,1.3957,1.2922,1.1296,1.0894,1.0531,1.0199,1.0199,1.0199,1.0165,1.0002,0.9633,0.9167,0.9025,0.8392,0.7602,0.0,0.0,0.0,0.0,0.0,0.0,0.0,0.0,0.0,0.0,0.0,0.0,1.7419,1.594,1.4943,1.4943,1.416,1.3626,1.353,1.3307,1.3216,1.3258,1.3065,0.0,1.4526,1.5494,1.6485,1.7466,1.943,2.0385,2.0439,2.1356,2.2211,2.2921,2.306,2.3157,2.3148,2.2654,2.2503,0.0,2.2059,2.1927,2.1995,2.2182,2.2697,2.3404,2.4036,2.531,2.6765,2.6799,2.7808,2.9097,2.9254,2.8857,0.0,0.0,0.0,0.0,0.0,0.0,0.0,0.0,0.0,0.0,0.0,0.0,0.0,0.0,0.0,0.0,0.0,0.0,0.0,0.0,0.0,0.0,0.0,0.0,0.0,0.0,0.0,0.0,0.0,0.0,0.0,0.0,0.0,1.9388,1.8876,1.8379,1.8093,1.8038,1.8011,1.7429,1.626,1.6231,1.6203,1.6203,1.6213,1.5593,1.4469,1.4273,1.4052,1.3748,1.2773,1.1655,1.0471,1.0471,1.0471,1.0408,0.9772,0.9496,0.9496,0.9478,0.9408,0.9306,0.0,0.0,0.0,0.0,0.0,0.0,0.0,0.0,0.0,0.0,0.0,0.0,0.0,1.3788,1.3409,1.3409,1.2576,1.175,1.1028,1.156,1.1901,1.1901,1.2387,1.2877,1.327,1.4322,1.5317,1.6351,1.7716,1.9018,2.0303,2.0619,2.1266,2.2132,2.2674,2.3159,2.3506,2.3064,0.0,0.0,0.0,0.0,2.1759,2.1578,0.0,0.0,0.0,0.0,0.0,2.5051,2.6258,2.7544,0.0,0.0,0.0,0.0,0.0,0.0,0.0,0.0,0.0,0.0,0.0,0.0,0.0,0.0,0.0,0.0,0.0,0.0,0.0,0.0,0.0,0.0,0.0,0.0,0.0,0.0,0.0,0.0,0.0,0.0,0.0,0.0,0.0,0.0,0.0,0.0,2.0519,2.0319,2.0029,1.9659,1.9633,1.9235,1.8425,1.8124,1.797,1.797,1.7611,1.7235,1.6828,1.6666,1.6296,1.5849,1.5781,1.4506,1.2435,1.2435,1.2435,1.2404,1.2166,1.1811,1.1432,1.1432,1.1138,1.0694,0.0,0.0,0.0,0.0,0.0,0.0,0.0,0.0,0.0,1.2678,0.0,0.0,0.0,0.0,1.1901,1.1209,1.0529,0.9801,0.9122,1.0055,1.0641,1.0641,1.1326,1.1809,1.2193,1.2877,1.3932,1.5305,1.6311,1.7669,1.9293,1.9977,2.0619,2.1275,2.19,2.2511,0.0,0.0,0.0,2.2541,0.0,0.0,2.1531,0.0,0.0,0.0,0.0,0.0,0.0,0.0,0.0,0.0,0.0,0.0,0.0,0.0,0.0,0.0,0.0,0.0,0.0,0.0,0.0,0.0,0.0,0.0,0.0,0.0,0.0,0.0,0.0,0.0,0.0,0.0,0.0,0.0,0.0,0.0,0.0,0.0,0.0,0.0,0.0,0.0,0.0,0.0,0.0,0.0,2.1846,2.1667,2.1342,2.0803,2.0606,2.0393,2.0217,1.9698,1.944,1.9427,1.9087,1.8797,1.8599,1.8507,1.8205,1.7766,1.8082,1.6809,1.4503,1.4284,1.4174,1.4094,1.3683,1.3213,1.2824,1.2824,1.2564,1.212,0.0,0.0,0.0,0.0,0.0,0.0,0.0,0.0,1.1414,1.2436,0.0,0.0,0.0,0.0,0.0,0.812,0.7922,0.7922,0.7971,0.8973,0.9529,0.9529,0.9579,1.0064,1.1121,1.117,1.2198,1.425,1.5257,1.625,1.7326,1.9293,2.0204,2.0249,2.0718,2.1177,2.1597,0.0,2.123,2.1534,0.0,2.0341,2.105,0.0,0.0,0.0,2.1669,2.2183,0.0,2.304,0.0,0.0,0.0,0.0,0.0,0.0,0.0,0.0,0.0,0.0,0.0,0.0,0.0,0.0,0.0,0.0,0.0,0.0,0.0,0.0,0.0,0.0,0.0,0.0,0.0,0.0,0.0,0.0,0.0,0.0,0.0,0.0,0.0,0.0,0.0,0.0,0.0,2.3076,2.2762,2.2239,2.1805,2.1489,2.0902,2.0877,2.1465,2.0877,2.0593,2.0593,2.0543,2.023,1.9674,1.9674,1.9597,1.9482,1.9482,1.8425,1.6613,1.5973,1.5631,1.5361,1.4145,1.3644,1.3623,1.3653,1.3653,1.3623,0.0,0.0,0.0,0.0,0.0,0.0,0.7217,0.7366,0.7908,0.0,0.0,0.0,0.93,0.8206,0.722,0.6628,0.6578,0.6625,0.6822,0.7822,0.8421,0.8421,0.9175,0.9624,0.9768,1.0493,1.1463,1.2635,1.3644,1.5026,1.6734,1.7282,1.7933,1.8634,1.8772,1.9239,1.994,2.032,0.0,2.0656,2.0342,2.0207,0.0,0.0,0.0,0.0,0.0,2.0399,2.0956,0.0,2.213,2.3904,0.0,0.0,0.0,0.0,0.0,0.0,2.8119,0.0,0.0,0.0,0.0,0.0,0.0,0.0,0.0,0.0,0.0,0.0,0.0,0.0,0.0,0.0,0.0,0.0,0.0,0.0,0.0,0.0,0.0,0.0,0.0,0.0,0.0,0.0,2.3846,2.3739,2.3646,2.3508,2.3384,2.3275,2.3113,2.3113,2.3275,2.2735,2.2457,2.2457,2.181,2.1537,2.1614,2.1366,2.138,2.1566,2.1566,2.1062,2.0153,1.8758,1.7959,1.7548,1.7389,1.7098,1.677,1.6965,1.6864,1.655,0.0,0.0,0.0,0.0,0.0,0.4972,0.5579,0.5777,0.6126,0.0,0.0,0.0,0.7024,0.5924,0.5177,0.5177,0.5177,0.5227,0.5375,0.6423,0.7024,0.7024,0.7621,0.8074,0.8379,0.8958,0.9985,1.1317,1.2393,1.3692,1.5263,1.6116,1.6814,1.7382,0.0,0.0,0.0,0.0,0.0,0.0,1.9965,0.0,0.0,1.9938,1.9625,0.0,0.0,0.0,1.9592,2.0068,2.1545,0.0,0.0,0.0,0.0,0.0,0.0,0.0,0.0,0.0,0.0,0.0,0.0,0.0,2.8873,2.9013,0.0,0.0,0.0,0.0,0.0,0.0,0.0,0.0,0.0,0.0,0.0,0.0,0.0,0.0,0.0,0.0,0.0,0.0,0.0,2.4887,2.4883,2.4808,2.4672,2.4556,2.45,2.45,2.4348,2.4246,2.4246,2.3764,2.3522,2.3522,2.301,2.2958,2.3266,2.3069,2.3186,2.3516,2.3337,2.3113,2.2767,2.1666,2.0462,1.9302,1.92,1.9085,1.8957,1.9086,1.8969,1.8653,0.0,0.0,0.0,0.1055,0.2311,0.3519,0.4524,0.4974,0.5275,0.0,0.5422,0.5422,0.5372,0.4423,0.3775,0.3775,0.3775,0.3775,0.3823,0.4824,0.5422,0.5422,0.5525,0.6074,0.7123,0.7173,0.8212,1.0293,1.1365,1.2441,1.3463,1.5326,1.6209,1.6256,0.0,0.0,0.0,0.0,0.0,1.9788,1.9348,1.9479,0.0,0.0,1.9395,0.0,1.9395,1.9106,1.8707,1.9809,2.1403,0.0,0.0,0.0,0.0,0.0,2.5935,0.0,0.0,0.0,0.0,0.0,0.0,0.0,2.8411,2.8517,2.8597,0.0,0.0,0.0,0.0,0.0,0.0,0.0,0.0,0.0,0.0,0.0,0.0,0.0,0.0,0.0,0.0,2.6104,2.6104,2.6104,2.6104,2.5964,2.566,2.5445,2.5319,2.5319,2.4994,2.4799,2.478,2.441,2.4245,2.4224,2.4183,2.4359,2.4681,2.4625,2.4843,2.5195,2.4823,2.4661,2.4601,2.4297,2.2892,2.0842,2.0371,2.0355,2.0556,2.0625,2.0556,2.0353,0.0,0.0,-0.2216,-0.1158,-0.005,0.0856,0.1258,0.2117,0.3075,0.4175,0.4323,0.4223,0.4021,0.3024,0.2373,0.2373,0.2373,0.2473,0.2722,0.3725,0.4323,0.4323,0.5125,0.6024,0.6877,0.6877,0.7819,0.9756,1.0828,1.1853,1.2872,1.3921,1.4394,1.4387,1.4302,0.0,0.0,0.0,0.0,1.7092,1.8844,0.0,1.7437,1.849,1.8145,1.7178,1.7278,1.7662,1.8342,0.0,2.0469,2.1058,0.0,0.0,0.0,0.0,0.0,0.0,0.0,0.0,0.0,0.0,0.0,0.0,2.8381,2.9296,2.9881,0.0,0.0,0.0,0.0,0.0,0.0,0.0,0.0,0.0,0.0,0.0,0.0,0.0,0.0,0.0,0.0,2.6104,2.6104,2.6104,2.6104,2.607,2.6016,2.6001,2.6002,2.6002,2.602,2.6001,2.5895,2.5803,2.5746,2.5689,2.5416,2.5454,2.5783,2.5512,2.5584,2.5892,2.5819,2.5621,2.5365,2.5306,2.4245,2.2736,2.3156,2.3097,2.2827,2.3327,2.3282,2.2969,0.0,0.0,-0.3022,-0.2469,-0.1512,-0.0756,-0.0605,-0.0151,0.0655,0.1862,0.2468,0.2772,0.2621,0.212,0.1819,0.1819,0.1819,0.1869,0.1969,0.2521,0.2822,0.2822,0.3324,0.4024,0.4977,0.5527,0.6526,0.8021,0.96,1.0631,1.1106,1.2483,1.3077,1.3044,1.334,0.0,0.0,0.0,1.4805,1.4995,1.7232,0.0,1.6672,1.7388,1.6981,1.6124,1.6535,1.7269,1.8037,1.835,1.9234,0.0,0.0,2.1418,2.2105,0.0,2.3971,2.4401,0.0,0.0,0.0,2.7312,0.0,0.0,0.0,2.8943,2.9393,2.9143,0.0,0.0,0.0,0.0,0.0,0.0,0.0,0.0,0.0,0.0,0.0,0.0,0.0,0.0,0.0,2.6824,2.6951,2.7093,2.7092,2.7092,2.7092,2.7184,2.7245,2.7245,2.7184,2.7122,2.7057,2.6605,2.637,2.6352,2.602,2.6035,2.6401,2.6352,2.6556,2.6888,2.6853,2.6737,2.6572,2.6371,2.5892,2.5224,2.5126,2.5045,2.5051,2.5484,2.5489,2.5206,-0.6042,0.0,0.0,-0.3525,-0.262,-0.1915,-0.1915,-0.1714,-0.131,-0.0403,0.0454,0.0959,0.0959,0.0959,0.0959,0.0959,0.0959,0.0959,0.0959,0.1161,0.1313,0.1313,0.1465,0.212,0.3173,0.4074,0.5127,0.6387,0.8365,0.9315,0.9431,1.1151,1.1997,1.2042,1.2739,0.0,0.0,0.0,0.0,1.3631,0.0,1.6089,1.6107,1.6346,1.5891,1.5265,1.6147,1.6903,1.7432,1.7066,0.0,1.9717,1.9265,1.9995,0.0,0.0,0.0,0.0,0.0,0.0,0.0,0.0,0.0,2.7489,0.0,0.0,0.0,2.902,0.0,0.0,0.0,0.0,0.0,0.0,0.0,0.0,0.0,0.0,0.0,0.0,0.0,0.0,0.0,2.7683,2.7908,2.8098,2.8166,2.8179,2.8139,2.8246,2.8324,2.8324,2.8112,2.7999,2.8004,2.73,2.6943,2.6927,2.6656,2.6706,2.7063,2.7291,2.7575,2.7911,2.7844,2.7826,2.7812,2.7473,2.7414,2.7483,2.6678,2.6586,2.6943,2.7217,2.7275,2.71,-0.6289,-0.5839,0.0,0.0,-0.3728,-0.3022,-0.3022,-0.2217,-0.1563,-0.1412,-0.1311,-0.1261,0.0,0.0,0.0,0.0,0.0,0.0,-0.1261,0.0,0.0202,0.0202,0.1111,0.212,0.3173,0.3324,0.4377,0.6387,0.7617,0.8619,0.9427,1.0342,1.1116,1.1748,1.163,0.0,0.0,0.0,1.333,0.0,1.3928,1.416,0.0,1.5194,1.499,1.4372,1.5238,1.5594,1.5925,0.0,1.8037,1.8479,0.0,1.9979,2.0211,0.0,0.0,0.0,0.0,0.0,0.0,0.0,2.6443,0.0,0.0,0.0,2.9044,2.909,0.0,0.0,0.0,0.0,0.0,0.0,0.0,0.0,0.0,0.0,0.0,0.0,0.0,0.0,0.0,0.0,2.8283,2.8197,2.8361,2.8406,2.8267,2.8337,2.8394,2.8394,2.8428,2.8397,2.835,2.8254,2.817,2.8116,2.8076,2.8179,2.8382,2.842,2.8524,2.8665,2.8663,2.8659,2.8659,2.8554,2.8523,2.8481,2.7906,2.7821,2.8062,2.8385,2.85,2.8488,-0.7637,-0.6639,0.0,0.0,0.0,0.0,0.0,0.0,-0.2519,-0.2519,-0.1966,0.0,0.0,0.0,0.0,0.0,0.0,-0.1613,0.0,0.0,-0.0907,0.0,0.0,0.0,0.1309,0.2568,0.3626,0.4528,0.6158,0.713,0.7469,0.8898,0.9674,0.9883,1.027,0.0,1.1892,0.0,1.242,0.0,0.0,0.0,0.0,1.4405,1.4426,1.4163,1.4495,1.4985,1.5436,0.0,1.6739,0.0,0.0,0.0,0.0,0.0,0.0,0.0,0.0,0.0,0.0,0.0,0.0,0.0,2.6753,0.0,2.7893,0.0,0.0,0.0,0.0,0.0,0.0,0.0,0.0,0.0,0.0,0.0,0.0,0.0,0.0,0.0,0.0,0.0,0.0,0.0,0.0,2.8956,2.882,2.8904,2.8927,2.8927,2.8996,2.9019,2.8966,2.8761,2.867,2.8764,2.8573,2.8567,2.872,2.892,2.9037,2.9093,2.9239,2.9315,2.9315,2.9286,2.9335,2.9373,2.9222,2.9037,2.8873,2.926,2.941,2.941,-0.9126,0.0,0.0,0.0,0.0,0.0,0.0,0.0,0.0,0.0,0.0,0.0,-0.2469,-0.2469,0.0,0.0,-0.2469,-0.2469,0.0,0.0,-0.2016,0.0,0.0,0.0,0.0,0.1814,0.2923,0.3224,0.4638,0.5612,0.602,0.7368,0.8169,0.8544,0.0,1.0188,1.1284,0.0,0.0,1.2851,1.3225,1.348,1.3591,1.3949,1.4113,1.4088,1.4088,1.4496,1.4985,1.458,1.576,0.0,1.7218,0.0,0.0,0.0,0.0,0.0,2.153,0.0,0.0,0.0,0.0,0.0,0.0,0.0,0.0,0.0,0.0,0.0,0.0,0.0,0.0,0.0,0.0,0.0,0.0,0.0,0.0,0.0,0.0,0.0,0.0,0.0,0.0,2.967,2.981,2.9775,2.9412,2.9433,2.9453,2.9453,2.9461,2.9481,2.954,2.9191,2.9114,2.9313,2.9061,2.9026,2.9156,2.942,2.9564,2.9639,2.9839,2.9928,2.9946,2.9939,2.999,3.0073,3.0196,3.0003,2.9688,2.995,3.0068,3.0049,-1.0605,-0.9274,0.0,0.0,0.0,0.0,0.0,0.0,0.0,0.0,0.0,0.0,0.0,0.0,0.0,0.0,0.0,-0.4684,-0.4684,0.0,-0.3173,0.0,0.0,0.0,0.0,0.0,0.217,0.3224,0.3261,0.4211,0.602,0.5991,0.6908,0.85,0.8544,0.9584,1.1284,1.1284,1.1972,1.31,1.3107,1.3368,1.3734,0.0,1.4107,1.4088,1.4088,0.0,0.0,1.5068,1.5519,0.0,0.0,0.0,0.0,0.0,0.0,0.0,0.0,0.0,0.0,2.3357,0.0,0.0,0.0,0.0,2.6634,0.0,0.0,0.0,0.0,0.0,0.0,0.0,0.0,0.0,0.0,0.0,0.0,0.0,0.0,0.0,0.0,0.0,0.0,3.1005,3.1124,3.0839,2.9924,2.9878,2.9878,2.9878,2.9698,2.9689,2.9878,2.9689,2.9689,2.9859,2.9851,2.9939,3.0061,3.0068,3.0222,3.0458,3.0472,3.052,3.0564,3.0509,3.0481,3.0494,3.0554,3.0571,3.0542,3.051,3.0485,3.0478,0.0,0.0,0.0,0.0,0.0,0.0,0.0,-0.5288,0.0,0.0,0.0,0.0,0.0,-0.4784,-0.4784,0.0,0.0,-0.4784,-0.4784,-0.4481,0.0,0.0,0.0,-0.1763,0.0,0.0,0.0,0.0,0.0,0.3377,0.396,0.5196,0.6067,0.6691,0.0,0.8277,0.0,0.0,0.0,0.0,0.0,1.2705,1.3538,0.0,0.0,1.4088,1.4088,1.4088,0.0,1.4454,1.5075,1.5756,1.6166,1.6605,1.7116,1.7929,1.8212,0.0,0.0,0.0,2.0246,2.1444,0.0,0.0,0.0,0.0,0.0,0.0,0.0,0.0,0.0,0.0,0.0,0.0,0.0,0.0,0.0,0.0,0.0,0.0,0.0,0.0,0.0,0.0,0.0,3.2011,3.1548,3.1121,0.0,3.0186,2.9902,2.9902,2.9836,2.9836,2.9902,2.9836,2.9875,3.0037,3.0079,3.0196,3.0375,3.0409,3.0479,3.0572,3.0564,3.0579,3.0605,3.0578,3.0565,3.0562,3.0635,3.0632,3.0607,3.0674,3.0709,3.0694,-1.2063,0.0,0.0,0.0,0.0,0.0,0.0,0.0,0.0,0.0,-0.6084,0.0,-0.5687,0.0,-0.5236,0.0,-0.4985,-0.4784,-0.4784,-0.4784,0.0,-0.4784,-0.3776,0.0,0.0,0.0,0.0,0.0,0.0,0.2594,0.291,0.4156,0.505,0.5719,0.0,0.7312,0.85,0.0,0.9061,0.0,0.0,1.1757,0.0,0.0,1.3743,1.3955,0.0,1.4088,1.4088,1.4088,1.4594,1.5215,1.5317,1.5684,1.6246,1.7063,1.7404,1.775,1.8734,1.9044,0.0,2.0386,2.0675,0.0,2.2469,0.0,0.0,0.0,0.0,0.0,0.0,0.0,0.0,0.0,0.0,0.0,0.0,3.4319,0.0,0.0,0.0,0.0,0.0,0.0,3.3995,3.3077,3.2562,3.2134,0.0,0.0,3.0528,3.0528,3.0171,3.0011,3.0082,3.0011,3.0044,3.0202,3.0253,3.0356,3.0501,3.0543,3.0582,3.0633,3.0633,3.0645,3.0667,3.0672,3.0663,3.0671,3.0723,3.0714,3.0676,3.0774,3.0797,3.078,0.0,0.0,0.0,0.0,-0.9452,0.0,0.0,0.0,-0.8609,0.0,-0.8071,-0.7875,-0.7335,-0.6589,-0.6139,-0.6039,-0.5336,0.0,-0.4834,-0.4834,0.0,0.0,-0.3827,-0.3274,-0.3224,0.0,0.0,0.0,0.0,0.0,0.2814,0.2894,0.3892,0.563,0.5675,0.0,0.8412,0.8412,0.8973,0.9879,1.0328,1.0549,1.0722,1.2143,1.3088,1.3695,1.3997,1.4088,1.4082,1.4068,1.4165,1.4344,1.4704,1.4949,1.532,1.6492,1.6862,1.7207,1.8566,1.911,1.9408,2.0128,0.0,0.0,0.0,0.0,2.297,0.0,0.0,0.0,0.0,0.0,0.0,0.0,0.0,0.0,0.0,0.0,0.0,0.0,0.0,0.0,0.0,3.54,3.506,3.4244,3.4129,0.0,0.0,0.0,3.1743,3.1698,3.0714,3.0247,3.0404,3.0215,3.0222,3.0416,3.0408,3.0455,3.0515,3.0519,3.0575,3.0694,3.0696,3.0737,3.0803,3.0804,3.0793,3.08,3.08,3.08,3.0794,3.0795,3.0782,3.079,-1.3992,-1.3093,-1.2467,0.0,-1.0734,-0.9698,0.0,0.0,0.0,0.0,-0.8757,-0.8757,-0.8414,-0.8216,-0.777,-0.6977,-0.6725,0.0,0.0,0.0,0.0,-0.509,-0.4634,-0.4029,-0.3224,-0.2632,0.0,-0.0096,0.0,0.0,0.1808,0.2561,0.3535,0.469,0.0,0.0,0.7445,0.7445,0.8017,0.889,0.8978,0.9589,0.0,0.0,1.2406,1.2833,1.3786,1.4088,1.4055,1.3793,1.3988,1.4228,1.3828,1.4351,1.5209,1.5813,1.6446,1.7113,1.8022,1.8395,1.8596,1.8798,1.9363,1.9987,0.0,0.0,0.0,0.0,0.0,0.0,0.0,0.0,0.0,0.0,0.0,0.0,0.0,0.0,0.0,0.0,0.0,0.0,3.5684,3.5618,3.5462,3.523,3.4614,0.0,0.0,0.0,0.0,3.1718,3.1488,3.1045,3.0404,3.0453,3.0472,3.0482,3.0583,3.063,3.0647,3.0706,3.0734,3.0771,3.0767,3.0774,3.0798,3.0798,3.0791,3.0806,3.0809,3.0739,3.0664,3.0713,3.067,3.0587,-1.5092,0.0,0.0,-1.3286,0.0,0.0,-1.1233,0.0,0.0,-1.0243,-1.0337,0.0,-0.9899,-0.955,-0.9103,-0.846,-0.767,0.0,-0.6329,0.0,0.0,-0.519,-0.4937,-0.4516,-0.3884,-0.3348,0.0,-0.0751,0.0,0.0,0.1391,0.1973,0.2999,0.4334,0.0,0.5849,0.0,0.7095,0.7492,0.8061,0.8111,0.0,0.0,1.0842,1.1475,1.1814,1.3194,1.3788,1.3848,1.3513,1.356,1.3731,1.3796,1.426,1.4936,1.5947,1.655,1.7079,1.7896,1.8245,1.8405,1.8506,1.9164,1.9922,2.0291,2.1184,2.2077,0.0,0.0,0.0,0.0,0.0,0.0,0.0,0.0,0.0,0.0,0.0,0.0,0.0,3.5602,0.0,3.5791,3.5648,3.5564,3.5604,0.0,0.0,0.0,0.0,0.0,3.282,3.2141,3.1549,3.1023,3.0741,3.0571,3.0543,3.0617,3.0667,3.0691,3.0734,3.077,3.0801,3.0796,3.0799,3.08,3.0795,3.0801,3.0789,3.0735,3.0609,3.0461,3.0516,3.0518,3.0506,0.0,0.0,0.0,0.0,0.0,0.0,0.0,-1.2861,0.0,-1.2175,0.0,-1.1932,-1.1438,-1.0792,-1.0293,-1.0145,0.0,-0.7617,-0.7322,-0.6134,-0.5438,-0.529,-0.5027,-0.4833,-0.4808,-0.385,0.0,0.0,0.0,0.0,0.1391,0.1391,0.2373,0.0,0.0,0.0,0.0,0.7038,0.7173,0.0,0.7457,0.7658,0.8151,0.9871,1.0611,1.0928,1.2554,1.334,1.35,1.3247,1.3083,1.3151,1.4014,1.4359,1.476,1.6298,1.6897,1.7217,1.8056,1.8414,1.8583,1.8875,1.9518,2.0291,2.0933,2.1553,2.2009,2.2194,2.2616,2.2877,0.0,0.0,0.0,0.0,0.0,0.0,0.0,0.0,0.0,0.0,0.0,0.0,0.0,3.5632,3.5546,0.0,0.0,0.0,0.0,0.0,0.0,3.4212,3.2877,0.0,3.1792,0.0,3.0737,3.061,3.0617,3.0653,3.0717,3.0717,3.0739,3.0805,3.0798,3.08,3.0801,3.0796,3.0782,3.0774,3.0649,3.0461,3.0308,3.0315,3.0373,3.0462,0.0,0.0,0.0,0.0,0.0,-1.3715,-1.3715,-1.3195,-1.2764,-1.2662,-1.2667,-1.2613,-1.2516,-1.237,-1.197,-1.1077,-1.0681,0.0,0.0,0.0,0.0,-0.5892,-0.5358,-0.5161,-0.5343,-0.4797,-0.3628,0.0,0.0,0.0,0.0,0.0,0.0,0.0,0.0,0.0,0.6776,0.6776,0.0,0.686,0.6833,0.7398,0.8383,0.9557,1.056,1.1478,1.2479,1.3026,1.324,1.2971,1.2939,1.3034,1.3128,1.416,1.5357,1.5781,1.6802,1.7862,1.8202,1.8414,1.8674,1.9452,1.9868,2.0291,2.0933,2.1187,2.1585,2.2628,2.2531,2.29,2.5009,0.0,0.0,0.0,0.0,0.0,0.0,0.0,0.0,0.0,0.0,0.0,0.0,0.0,0.0,0.0,0.0,0.0,0.0,0.0,0.0,0.0,3.4051,0.0,0.0,0.0,3.1455,3.0677,3.0732,3.0768,3.0774,3.0774,3.0785,3.0798,3.08,3.0795,3.0801,3.0739,3.0717,3.0701,3.0572,3.0467,3.0386,3.0375,3.0291,3.0166,0.0,0.0,0.0,0.0,0.0,0.0,0.0,-1.3859,0.0,-1.3383,-1.305,-1.2813,-1.2813,-1.2813,-1.2613,-1.2068,-1.1517,-1.0534,-0.8913,-0.7848,-0.688,-0.6002,-0.5359,0.0,-0.5138,-0.476,-0.386,-0.2409,0.0,0.0,0.0,0.0,0.0,0.0,0.0,0.4868,0.0,0.0,0.0,0.6898,0.69,0.727,0.7938,0.8906,0.9849,1.0778,1.1613,1.2271,1.2719,1.2565,1.2662,1.2933,1.3826,1.4744,1.5675,1.6629,1.7407,1.8134,1.8787,1.9021,1.932,2.0258,2.0794,2.1227,2.1553,2.1877,2.2433,2.3463,2.3433,2.3907,2.6106,2.7984,0.0,0.0,0.0,0.0,0.0,0.0,0.0,0.0,0.0,0.0,0.0,0.0,0.0,0.0,0.0,0.0,0.0,0.0,0.0,0.0,0.0,0.0,0.0,0.0,0.0,3.1439,3.1451,3.1244,3.08,3.08,3.0781,3.0754,3.0756,3.0757,3.0739,3.0639,3.0579,3.053,3.0407,3.0302,3.0241,3.0202,3.0133,3.0061,0.0,-1.6716,0.0,0.0,-1.5717,0.0,-1.5337,-1.4669,-1.4094,-1.3902,-1.3238,-1.2813,-1.2813,-1.2813,-1.2813,-1.2813,-1.1973,-1.0914,-0.9645,-0.8363,-0.7129,-0.5932,-0.5251,-0.4926,-0.4901,-0.4601,-0.3961,0.0,0.0,0.0,0.0,0.0,0.0,0.0,0.0,0.0,0.0,0.0,0.6021,0.7001,0.6995,0.7217,0.7631,0.8376,0.9226,1.0196,1.0844,1.1632,1.2342,1.2482,1.2666,1.3098,1.4708,1.5455,1.5991,1.7373,1.7964,1.8428,1.9332,1.9694,2.0053,2.1049,2.171,2.2163,2.247,2.2919,2.356,2.4481,2.4909,2.5494,2.6805,2.8299,0.0,0.0,0.0,0.0,0.0,0.0,0.0,0.0,0.0,0.0,0.0,0.0,0.0,0.0,0.0,0.0,0.0,0.0,0.0,0.0,0.0,3.4794,3.4599,0.0,3.3238,3.2379,3.2184,3.1738,3.107,3.0875,3.0766,3.0708,3.0701,3.0698,3.0678,3.0568,3.0492,3.0433,3.0279,3.0188,3.0151,3.0239,3.0257,3.028,0.0,0.0,0.0,0.0,0.0,0.0,0.0,-1.548,-1.4717,-1.4004,-1.3238,-1.2813,-1.2813,-1.2813,-1.2813,-1.2813,-1.247,-1.1482,-0.9552,-0.8906,-0.7731,-0.581,-0.5332,-0.5087,-0.517,-0.4854,-0.4172,0.0,0.0,0.0,0.0,0.0,0.0,0.0,0.0,0.0,0.0,0.5037,0.5665,0.6645,0.6631,0.7196,0.8068,0.8313,0.9367,1.0738,1.0999,1.1632,1.2409,1.3135,1.3491,1.3781,1.4867,1.5816,1.6567,1.6897,1.7891,1.9011,1.9464,2.0042,2.0751,2.176,2.2039,2.2421,2.3636,2.3943,2.4366,2.5673,2.6912,2.771,2.7545,2.8748,3.0016,0.0,0.0,0.0,0.0,0.0,0.0,0.0,0.0,0.0,0.0,0.0,0.0,0.0,0.0,0.0,0.0,0.0,0.0,3.5877,0.0,3.5405,3.4606,3.4592,3.4136,3.3277,3.2477,3.205,3.1949,3.1168,3.0759,3.0694,3.0708,3.0665,3.0599,3.0606,3.0595,3.0554,3.0367,3.0286,3.0342,3.0885,3.108,3.1202,0.0,0.0,0.0,0.0,0.0,0.0,0.0,-1.6267,-1.5218,-1.4474,-1.3479,-1.2813,-1.2813,-1.2641,-1.2554,-1.2554,-1.2334,-1.1486,-0.9742,-0.8952,-0.7844,-0.6154,-0.5269,-0.4851,-0.4897,-0.4631,-0.4253,0.0,0.0,0.0,0.0,0.0,0.0,0.0,0.0,0.2451,0.3522,0.4185,0.4999,0.5893,0.6637,0.7219,0.7633,0.8313,0.9296,1.0314,1.0881,1.1632,1.2519,1.389,1.415,1.4106,1.5428,1.6271,1.6957,1.7881,1.8623,1.9431,2.0526,2.1069,2.171,2.2985,2.3297,2.3535,2.4452,2.4709,2.5035,2.6014,2.7297,2.8264,2.8473,2.939,3.0272,0.0,0.0,0.0,0.0,0.0,0.0,0.0,0.0,0.0,0.0,0.0,0.0,0.0,0.0,0.0,0.0,0.0,0.0,3.5901,0.0,3.5788,3.5435,3.5465,3.5038,3.4179,3.3828,3.3376,3.2794,3.1918,3.1191,3.0638,3.0638,3.0589,3.0477,3.0444,3.0679,3.1066,3.0894,3.1131,3.1591,3.1834,3.1924,3.2037,-1.8856,0.0,-1.8683,0.0,-1.8116,-1.7789,-1.7789,-1.6524,-1.5329,-1.4655,-1.3573,-1.2793,-1.2602,-1.2409,-1.2307,-1.2307,-1.2132,-1.1298,-0.9635,-0.8861,-0.7732,-0.598,-0.5185,0.0,-0.4569,-0.4389,-0.43,-0.43,-0.2408,0.0,0.0,0.0,0.0,0.0,0.1296,0.1766,0.2665,0.3679,0.4649,0.558,0.6749,0.7219,0.7411,0.836,0.9188,1.0008,1.0807,1.1774,1.2952,1.4394,1.4824,1.4994,1.6298,1.707,1.7721,1.87,1.9431,2.0204,2.1518,2.2163,2.2786,2.4047,2.435,2.4567,2.5273,2.5563,2.593,2.6872,2.7957,2.888,2.9355,3.0038,3.0625,3.0977,0.0,0.0,0.0,0.0,0.0,0.0,3.525,3.5553,3.5689,0.0,0.0,0.0,0.0,0.0,0.0,0.0,0.0,0.0,0.0,0.0,0.0,3.5996,3.5684,3.5078,3.4804,3.432,3.3651,3.2742,3.1965,3.1328,3.1284,3.1218,3.1137,3.1053,3.135,3.1798,3.1654,3.1965,3.2496,3.2699,3.2758,3.2854,-1.8725,-1.8604,-1.8397,-1.7838,-1.7322,-1.7014,-1.7014,-1.5969,-1.4975,-1.4315,-1.3553,-1.2831,-1.2191,-1.21,-1.21,-1.21,-1.1838,-1.093,-0.9034,-0.8641,-0.7441,0.0,0.0,-0.4788,-0.43,-0.43,-0.43,-0.43,0.0,0.0,-0.147,0.0,0.1297,0.1296,0.1296,0.1844,0.2857,0.3715,0.4807,0.598,0.6834,0.7334,0.7599,0.8399,0.9188,1.0008,1.0807,1.2211,1.3818,1.4609,1.5631,1.6706,1.7457,1.8273,1.8977,1.9011,2.0117,2.1534,2.2286,2.3114,2.3975,2.4781,2.4979,2.5245,2.624,2.6646,2.7198,2.8591,2.9348,2.9881,3.0208,3.0679,3.1176,3.1785,0.0,0.0,0.0,0.0,0.0,0.0,3.525,3.5546,3.5698,0.0,0.0,0.0,0.0,0.0,0.0,0.0,0.0,3.5995,3.5995,0.0,3.5995,3.5996,3.5996,3.5976,3.5047,3.461,3.455,3.354,3.3088,3.3063,3.2931,3.287,3.2858,3.2812,3.2764,3.2769,3.2638,3.2591,3.2689,3.3418,3.3592,3.3619,-1.9775,-1.9316,-1.8853,-1.8343,-1.7866,-1.7422,-1.7123,-1.5871,-1.4768,-1.4077,-1.3204,-1.2353,-1.1619,-1.1715,-1.1811,0.0,-1.1596,-1.0747,0.0,-0.8424,-0.7254,-0.5542,-0.4877,-0.4431,-0.43,-0.4242,-0.3947,-0.333,0.0,0.0,0.0,0.1029,0.1375,0.1493,0.1375,0.1844,0.2856,0.3869,0.4841,0.578,0.6942,0.7446,0.7633,0.8993,0.9669,1.0083,1.144,1.2689,1.3846,1.478,1.6088,1.7415,1.8321,1.8777,1.9288,2.0821,2.167,2.2408,2.3664,2.4313,2.4781,2.5453,2.581,2.6267,2.7115,2.7794,2.8544,2.9629,2.9995,3.0335,3.1001,3.1391,3.1749,3.2162,3.2467,0.0,0.0,0.0,0.0,0.0,3.5386,3.5629,0.0,3.5774,0.0,0.0,0.0,0.0,0.0,0.0,0.0,0.0,3.5995,0.0,3.5995,3.5996,3.5996,3.5996,3.5653,3.5141,3.4519,3.4148,3.3616,3.2951,3.2921,3.2827,3.2687,3.2661,3.291,3.3277,3.3232,3.3516,3.3996,3.4239,3.4292,3.4279,-2.0208,-1.9723,-1.9184,-1.8229,-1.7679,-1.7254,-1.6791,-1.5576,-1.4471,-1.3788,-1.2942,-1.2112,-1.1392,-1.1439,0.0,-1.1569,-1.1391,-1.0603,-0.8925,-0.8261,-0.7163,-0.5411,-0.4746,-0.4374,-0.4253,0.0,0.0,-0.2871,-0.157,-0.0161,0.1296,0.1296,0.1532,0.1924,0.1884,0.2429,0.3482,0.4528,0.5306,0.5931,0.7057,0.7484,0.7672,0.9291,0.9895,1.0153,1.2131,1.3455,1.445,1.5694,1.7005,1.8338,1.9651,2.0149,2.0514,2.1875,2.2712,2.3441,2.4712,2.5287,2.5728,2.6312,2.6823,2.7445,2.8394,2.908,2.9761,3.0584,3.0764,3.0945,3.1543,3.1877,3.2196,3.2516,3.2988,3.3492,3.4055,0.0,0.0,0.0,0.0,0.0,0.0,3.5816,3.5886,0.0,0.0,0.0,0.0,0.0,0.0,3.5994,3.5996,0.0,3.5995,3.5996,3.5996,3.5996,3.5918,3.553,3.4951,3.4908,3.453,3.3909,3.3775,3.3642,3.3525,3.3397,3.3583,3.3917,3.3917,3.4196,3.4612,3.4612,3.4561,3.4517,-2.006,-1.9786,0.0,0.0,-1.6984,0.0,-1.6128,-1.5117,-1.4146,-1.3476,-1.2839,-1.2112,-1.1392,-1.1305,-1.1305,-1.1305,0.0,0.0,0.0,-0.8133,-0.7078,-0.4828,-0.4694,-0.4517,-0.4208,-0.333,-0.2776,-0.259,-0.0859,0.0441,0.1296,0.1375,0.1805,0.2549,0.282,0.3521,0.4577,0.55,0.6044,0.6356,0.7211,0.7599,0.7748,0.9367,1.0002,1.0409,1.2821,1.4386,1.5535,1.7098,1.8247,1.9398,2.1204,2.2065,2.2439,2.2487,2.3424,2.4624,2.5481,2.6147,2.673,2.7295,2.7904,2.8686,2.9881,3.0423,3.0828,3.1408,3.1523,3.1617,3.1895,3.2214,3.2549,3.2932,3.3618,3.416,3.4263,0.0,0.0,0.0,0.0,0.0,0.0,3.5856,3.5917,0.0,0.0,0.0,0.0,0.0,3.5996,3.5996,3.5996,3.5996,3.5996,3.5996,3.5996,3.5976,3.5851,3.5749,3.5679,3.5679,3.5643,3.5577,3.525,3.5092,3.5062,3.4722,3.4583,3.4591,3.4591,3.4572,3.4561,3.4561,3.4495,3.4393,0.0,0.0,-1.8103,-1.7057,-1.6779,-1.6451,-1.5673,-1.4908,-1.4146,-1.3476,-1.2839,-1.2112,-1.1392,-1.1305,-1.1305,-1.1305,-1.0646,-0.9724,-0.8496,-0.743,-0.6242,-0.4901,-0.4509,-0.4247,-0.4071,-0.3162,-0.1996,-0.0677,0.0436,0.1066,0.1335,0.2078,0.2624,0.2976,0.3713,0.4569,0.555,0.5812,0.6318,0.7061,0.8016,0.8437,0.8585,1.0207,1.1267,1.2054,1.3259,1.4807,1.6419,1.7303,1.8606,2.0085,2.1373,2.2628,2.3702,2.4341,2.5107,2.5943,2.6747,2.7276,2.76,2.7755,2.8576,2.9565,3.0302,3.0888,3.1391,3.173,3.182,3.1985,3.255,3.2729,3.3033,3.3775,3.4047,3.4384,3.4949,3.5193,0.0,0.0,3.5618,3.5703,3.5794,3.5819,3.5861,0.0,0.0,0.0,0.0,3.5995,3.5995,3.5996,3.5996,3.5996,3.5996,3.5996,3.595,3.5853,3.5755,3.5694,3.5622,3.5622,3.5554,3.5435,3.5203,3.5034,3.4926,3.4699,3.4539,3.445,3.445,3.4374,3.4293,3.4293,3.4269,3.4245,-1.8825,-1.8385,-1.7781,-1.6615,-1.6409,-1.6079,-1.5082,-1.4356,-1.3682,-1.3052,-1.2326,-1.1731,-1.1348,-1.1305,-1.1085,-1.0494,-1.0106,-0.9378,-0.8206,-0.7024,-0.5797,-0.4538,-0.4238,-0.3854,-0.335,-0.2491,-0.1163,0.0588,0.106,0.1531,0.1999,0.2545,0.3324,0.4261,0.4838,0.5619,0.6483,0.6591,0.7126,0.794,0.8475,0.8927,0.9448,1.1118,1.2067,1.2706,1.4426,1.5913,1.722,1.8372,1.9673,2.1089,2.2415,2.3748,2.4966,2.5755,2.624,2.6675,2.7429,2.7894,2.8328,2.8849,2.9674,3.0493,3.1069,3.1451,3.1803,3.2214,3.2317,3.2517,3.315,3.3362,3.3653,3.4292,3.4554,3.4857,3.5292,3.5425,0.0,3.5623,3.5726,3.5788,3.5797,3.5859,3.5928,3.5995,3.5994,0.0,3.5993,3.5992,3.5992,3.5995,3.5995,3.5995,3.5995,3.597,3.5903,3.5798,3.5693,3.5644,3.5598,3.5598,3.5483,3.5308,3.5094,3.4917,3.4732,3.4509,3.4363,3.4305,3.4305,3.4257,3.4197,3.4173,3.4161,3.4148,-1.8536,-1.8224,-1.774,-1.6409,-1.6046,-1.5616,-1.4566,-1.3815,-1.3179,-1.2491,-1.186,-1.1419,-1.1257,-1.1166,-1.0633,-0.9498,-0.9397,-0.882,-0.7558,-0.6577,-0.5419,-0.4101,-0.4016,-0.3557,-0.2623,-0.1655,-0.036,0.1335,0.1335,0.1844,0.2857,0.3012,0.3986,0.5661,0.6002,0.6626,0.745,0.7599,0.8127,0.8889,0.915,0.9669,1.0479,1.2201,1.2961,1.3425,1.5861,1.722,1.8049,1.9759,2.1026,2.2139,2.3702,2.4953,2.6024,2.6834,2.7133,2.7323,2.7898,2.8384,2.9042,3.0128,3.0808,3.1317,3.1859,3.202,3.2214,3.2763,3.2903,3.3109,3.3666,3.3993,3.4292,3.4661,3.5062,3.5339,3.5438,0.0,3.5696,3.5718,3.5813,3.5862,3.5817,3.593,3.5995,3.5991,3.5991,3.5991,3.5991,3.6009,3.6008,3.5986,3.5989,3.6009,3.5987,3.5894,3.5822,3.576,3.563,3.5588,3.5579,3.5579,3.5442,3.5192,3.4997,3.4793,3.4591,3.4305,3.4197,3.4197,3.4185,3.4185,3.4173,3.4111,3.4086,3.4074,-1.8112,-1.7757,-1.7351,-1.6738,-1.5858,-1.5061,-1.4475,-1.3815,-1.3179,-1.2491,-1.2277,-1.1946,-1.1147,-1.0447,-0.9848,-0.9456,-0.7936,-0.6864,-0.6472,-0.5346,-0.455,-0.4286,-0.404,-0.3474,-0.2525,-0.1024,0.0354,0.1572,0.1572,0.208,0.3054,0.3986,0.4919,0.5886,0.6819,0.7706,0.8475,0.8513,0.896,0.982,1.1193,1.1883,1.2268,1.3896,1.5119,1.6079,1.7098,1.8002,1.9046,2.0919,2.1849,2.2548,2.4503,2.559,2.6383,2.756,2.8231,2.8606,2.8716,2.9377,3.0171,3.0808,3.1242,3.1658,3.2196,3.2502,3.2763,3.3139,3.3399,3.3666,3.4047,3.4347,3.468,3.5193,3.5345,3.5444,3.5629,0.0,3.5714,3.5776,3.5794,3.5832,3.5886,3.5902,3.5937,3.5992,3.6008,3.6005,3.6005,3.6,3.5965,3.5929,3.5977,3.5964,3.5917,3.5732,3.5635,3.5621,3.5548,3.5515,3.552,3.552,3.5398,3.519,3.4982,3.4801,3.4591,3.4305,3.4197,3.4197,3.4136,3.4124,3.4111,3.4036,3.4023,3.3998,-1.7147,-1.6517,-1.6015,-1.5519,-1.4768,-1.3971,-1.3421,-1.3045,-1.2571,-1.1753,-1.1652,-1.1257,-1.0269,-0.9708,-0.8918,-0.766,-0.664,-0.5722,-0.4972,-0.4539,-0.4243,-0.4027,-0.3467,-0.2458,-0.1019,0.0235,0.1139,0.1768,0.2198,0.2937,0.3988,0.4919,0.5848,0.6819,0.7744,0.836,0.8737,0.915,1.011,1.136,1.2098,1.3048,1.4096,1.5332,1.6375,1.7254,1.8045,1.9279,2.0664,2.1725,2.2897,2.4134,2.5397,2.6448,2.743,2.8457,2.9073,2.9473,2.9623,3.0302,3.1067,3.13,3.1806,3.2299,3.255,3.2957,3.3381,3.3673,3.3944,3.4266,3.4709,3.489,3.5113,3.5505,3.5553,0.0,0.0,3.5786,3.5808,3.5794,3.5857,3.5918,3.5902,3.5936,3.5974,3.6003,3.6,3.5999,3.5999,3.5978,3.5934,3.5892,3.5858,3.583,3.5798,3.5663,3.56,3.5604,3.554,3.5501,3.55,3.5395,3.5234,3.5028,3.4831,3.4575,3.4316,3.4197,3.4124,3.4086,3.4061,3.4023,3.3985,3.3908,3.3868,3.3815,-1.6451,-1.5741,-1.5186,-1.4643,-1.3935,-1.3154,-1.2414,-1.219,-1.1759,-1.0887,-1.0647,-1.0182,-0.9216,-0.8666,-0.77,-0.6062,-0.5539,-0.4907,-0.3925,-0.3866,-0.3752,-0.3491,-0.243,-0.1136,0.0352,0.1217,0.1847,0.2238,0.286,0.3832,0.5076,0.5883,0.6815,0.7825,0.8623,0.9112,0.9377,1.0185,1.1397,1.2896,1.3252,1.4331,1.5852,1.6766,1.7629,1.8475,1.9333,2.0685,2.2188,2.2777,2.4105,2.563,2.6395,2.743,2.8504,2.9223,2.9865,3.0327,3.0547,3.1169,3.1806,3.1878,3.2465,3.3021,3.3112,3.3519,3.3962,3.4244,3.4504,3.4817,3.524,3.5355,3.5463,3.5698,0.0,0.0,0.0,3.5866,3.5885,3.583,3.593,3.5976,3.5917,3.5953,3.6,3.5992,3.5992,3.5989,3.5981,3.5931,3.5878,3.5827,3.5725,3.5687,3.5687,3.5604,3.5581,3.5581,3.5509,3.5474,3.5493,3.5266,3.5044,3.486,3.4628,3.4363,3.4074,3.4061,3.4023,3.3972,3.3947,3.3895,3.386,3.378,3.3726,3.3657,-1.6697,-1.6327,-1.5831,-1.5144,-1.4146,-1.3098,-1.2171,-1.1511,-1.084,-1.0147,-0.9582,-0.8973,-0.829,-0.7031,-0.6056,-0.5649,-0.4748,-0.4164,-0.4079,-0.3182,-0.2633,-0.2589,-0.0862,0.0235,0.0587,0.1413,0.2356,0.329,0.3368,0.4302,0.6125,0.6923,0.777,0.8661,0.9448,1.0346,1.1254,1.1987,1.291,1.3998,1.5446,1.6575,1.7498,1.8335,1.9432,2.0642,2.1361,2.2176,2.3136,2.4575,2.5548,2.6342,2.7585,2.8488,2.9216,2.9707,3.062,3.149,3.149,3.1915,3.2417,3.2729,3.3219,3.3718,3.4023,3.4274,3.4525,3.4869,3.5095,3.528,3.5366,3.5544,3.5705,3.5777,0.0,0.0,3.5874,3.5896,3.5897,3.5898,3.5951,3.5966,3.5918,3.5969,3.5992,3.5992,3.5992,3.598,3.5919,3.5892,3.5813,3.5639,3.5604,3.5599,3.5599,3.5528,3.5514,3.5514,3.5434,3.5446,3.5493,3.5163,3.4944,3.4783,3.4464,3.4201,3.3998,3.3934,3.3908,3.3895,3.378,3.3726,3.3712,3.3629,3.3619,3.3605,-1.5401,-1.4817,-1.4176,-1.3316,-1.2499,-1.1664,-1.0876,-1.0552,-1.0014,-0.8947,-0.864,-0.8003,-0.6688,-0.5966,-0.5322,-0.474,-0.4194,-0.3686,-0.3137,-0.2707,-0.2038,-0.0979,-0.0039,0.1018,0.2113,0.2586,0.3329,0.4382,0.4882,0.5503,0.624,0.7693,0.8575,0.896,1.084,1.1914,1.2361,1.3628,1.4748,1.5685,1.6704,1.7639,1.8569,1.9321,2.0354,2.1487,2.1942,2.3106,2.4575,2.5534,2.6527,2.753,2.8497,2.9171,2.98,3.0697,3.1608,3.235,3.2383,3.2549,3.2836,3.333,3.3731,3.4076,3.4328,3.4699,3.5026,3.517,3.5386,3.5563,3.5633,3.5703,3.5775,3.586,0.0,3.5894,3.5953,3.5937,3.5918,3.5969,3.5951,3.5933,3.5968,3.5942,3.5938,3.5938,3.5867,3.5795,3.5787,3.5704,3.557,3.5431,3.5405,3.5444,3.5541,3.5468,3.5446,3.5446,3.5372,3.5357,3.5364,3.499,3.4784,3.4704,3.4237,3.3992,3.3868,3.3788,3.3753,3.3712,3.3675,3.3601,3.3577,3.3549,3.3506,3.3419,-1.4282,-1.3629,-1.286,-1.1846,-1.1323,-1.0619,-0.957,-0.942,-0.8938,-0.7675,-0.7332,-0.6738,-0.544,-0.504,-0.4613,-0.4038,-0.3645,-0.3096,-0.243,-0.1526,-0.0547,0.0547,0.1174,0.2192,0.3677,0.3834,0.438,0.5389,0.623,0.6808,0.7122,0.8988,0.9863,0.9938,1.2178,1.3201,1.3382,1.4969,1.6175,1.7067,1.7765,1.8693,1.9759,2.0483,2.1518,2.2567,2.3179,2.4433,2.5888,2.6567,2.7555,2.8583,2.9239,2.994,3.0731,3.1662,3.2434,3.3027,3.3256,3.332,3.3446,3.3845,3.4259,3.4593,3.4755,3.5124,3.5436,3.544,3.559,3.5749,3.5819,3.5834,3.5844,3.5918,3.5937,3.5954,3.5996,3.5968,3.595,3.5962,3.5939,3.5902,3.5935,3.5889,3.5859,3.5875,3.5749,3.5663,3.5636,3.551,3.5412,3.5296,3.53,3.5335,3.5451,3.5398,3.5372,3.5364,3.5227,3.5141,3.516,3.4695,3.4475,3.4464,3.3986,3.378,3.3739,3.3657,3.3619,3.3563,3.3549,3.3509,3.3437,3.3437,3.3378,3.3256,-1.3588,-1.3107,-1.2347,-1.1175,-1.0974,-1.0324,-0.8392,-0.8088,-0.7627,-0.6335,-0.5657,-0.5115,-0.4737,-0.4153,-0.3763,-0.3763,-0.2979,-0.2391,-0.2189,0.0585,0.2144,0.195,0.2893,0.3915,0.5002,0.5004,0.5389,0.6202,0.7214,0.8168,0.9036,1.0844,1.1706,1.1781,1.331,1.4114,1.441,1.5974,1.7136,1.7968,1.8723,1.9857,2.1219,2.1992,2.3025,2.4166,2.5384,2.6293,2.703,2.7839,2.8639,2.9387,2.9778,3.0892,3.2109,3.2568,3.3047,3.3524,3.4054,3.4252,3.4308,3.4308,3.4802,3.5318,3.5391,3.5567,3.5698,3.5698,3.5747,3.5822,3.5891,3.5896,3.5918,3.5987,3.5998,3.5992,3.5992,3.5992,3.598,3.5916,3.5908,3.5864,3.581,3.5737,3.5732,3.5797,3.5661,3.5562,3.5501,3.5376,3.5308,3.5308,3.5308,3.5304,3.5304,3.5304,3.5308,3.5281,3.4961,3.4832,3.4879,3.4272,3.3999,3.4,3.3721,3.3605,3.3591,3.352,3.3509,3.3477,3.3422,3.3352,3.331,3.331,3.3214,3.3101,-1.2347,-1.2108,-1.1523,-0.9955,-0.9493,-0.8823,-0.7219,-0.6847,-0.6366,-0.5285,-0.4453,-0.375,-0.3214,-0.2311,-0.1762,-0.1762,-0.141,-0.0626,0.0585,0.2148,0.3593,0.4861,0.4683,0.4885,0.5616,0.5925,0.6734,0.8156,0.8604,0.9243,1.0078,1.1846,1.2691,1.2764,1.504,1.6053,1.6237,1.7668,1.8422,1.8813,2.0343,2.135,2.2065,2.3097,2.4242,2.5315,2.5875,2.7004,2.8299,2.8771,2.9514,3.0352,3.1125,3.1899,3.2614,3.3234,3.3618,3.3981,3.436,3.4737,3.5013,3.5065,3.522,3.5406,3.5568,3.5659,3.5739,3.5824,3.5851,3.5873,3.5898,3.5936,3.5985,3.5998,3.5994,3.5992,3.5992,3.5925,3.5877,3.5892,3.5852,3.5801,3.5729,3.5706,3.5679,3.559,3.547,3.5362,3.5289,3.5203,3.5166,3.5151,3.4973,3.4879,3.4879,3.4926,3.4944,3.4944,3.4615,3.4459,3.4459,3.4148,3.3992,3.3992,3.3671,3.352,3.352,3.3452,3.3393,3.3352,3.3337,3.3259,3.3165,3.3165,3.3117,3.3006,-1.1438,-1.1009,-1.0372,-0.914,-0.8494,-0.7672,-0.6325,-0.5854,-0.5198,-0.3995,-0.3287,-0.2659,-0.1959,-0.1214,-0.0784,-0.0784,0.0,0.1404,0.3463,0.4251,0.5303,0.6888,0.6769,0.6734,0.6777,0.731,0.8109,0.9112,0.997,1.0777,1.1545,1.3012,1.3852,1.4204,1.6366,1.7282,1.7385,1.9036,1.9955,2.0417,2.1744,2.2729,2.3508,2.4502,2.5425,2.6289,2.7128,2.8093,2.9094,2.9674,3.0443,3.1291,3.2074,3.2753,3.332,3.3731,3.4134,3.4513,3.4801,3.5093,3.5366,3.5485,3.5513,3.5556,3.5671,3.5732,3.5806,3.5876,3.5917,3.5936,3.5934,3.5964,3.5988,3.5955,3.5949,3.5927,3.5927,3.5853,3.5811,3.5813,3.5788,3.572,3.559,3.5537,3.5451,3.5355,3.5273,3.5204,3.516,3.5126,3.5046,3.4945,3.4763,3.4622,3.4508,3.445,3.4472,3.4612,3.4258,3.4104,3.4092,3.3876,3.3766,3.3753,3.352,3.3408,3.3408,3.3334,3.3259,3.3214,3.3214,3.3168,3.3073,3.3073,3.2945,3.2719,-1.0625,-0.9841,-0.9013,-0.8585,-0.7702,-0.6661,-0.5503,-0.4849,-0.3956,-0.251,-0.2115,-0.1642,-0.0861,-0.0509,-0.0313,-0.0235,0.1444,0.3581,0.6182,0.6535,0.7157,0.8289,0.9112,0.9183,0.8475,0.9183,0.9556,0.9631,1.1372,1.2618,1.3331,1.4335,1.5207,1.5948,1.74,1.8093,1.8318,2.017,2.1545,2.2506,2.3034,2.4105,2.5411,2.6154,2.6706,2.729,2.884,2.9432,2.9636,3.0636,3.1517,3.2244,3.2773,3.347,3.4141,3.4199,3.4602,3.5076,3.5285,3.538,3.5475,3.5667,3.5716,3.5723,3.5723,3.5802,3.5897,3.5917,3.5951,3.5991,3.5988,3.5986,3.5955,3.5886,3.5827,3.5778,3.5778,3.5778,3.5733,3.5684,3.5664,3.5582,3.5391,3.5251,3.516,3.5101,3.5092,3.5084,3.5066,3.5057,3.4927,3.4653,3.458,3.439,3.4171,3.3889,3.391,3.4253,3.3924,3.3755,3.3742,3.3488,3.3364,3.3364,3.3307,3.3277,3.3277,3.315,3.3101,3.3086,3.3086,3.3057,3.2979,3.2963,3.2688,3.2352,-0.9155,-0.8585,-0.7893,-0.7119,-0.6272,-0.5148,-0.3437,-0.2932,-0.2308,-0.1175,-0.0431,0.0078,0.0235,0.1058,0.1841,0.2466,0.3826,0.5408,0.7244,0.7558,0.8438,1.0153,1.0952,1.1347,1.131,1.1347,1.1643,1.2275,1.344,1.4426,1.5155,1.6009,1.6766,1.7459,1.8536,1.9564,2.0552,2.1666,2.2698,2.3754,2.4928,2.6081,2.7145,2.788,2.8692,2.9506,2.9864,3.0402,3.1097,3.2057,3.2842,3.3469,3.3795,3.4127,3.4495,3.4927,3.5124,3.5283,3.5534,3.5666,3.5725,3.5772,3.5823,3.5865,3.5865,3.5873,3.5918,3.5968,3.5994,3.5974,3.586,3.5844,3.5795,3.567,3.5653,3.5648,3.5648,3.5542,3.5473,3.5469,3.5419,3.5318,3.5176,3.5151,3.5119,3.5092,3.5057,3.4927,3.4733,3.4701,3.4594,3.4309,3.4043,3.3863,3.3797,3.3441,3.3465,3.3902,3.3573,3.3404,3.3404,3.3241,3.318,3.3147,3.315,3.315,3.315,3.3101,3.3055,3.3026,3.3026,3.2979,3.29,3.2737,3.2622,3.2489,-0.7851,-0.7073,-0.6339,-0.5874,-0.4714,-0.3476,-0.2501,-0.2034,-0.1369,-0.0313,0.0274,0.094,0.184,0.2545,0.3634,0.5292,0.606,0.7206,0.9067,0.9627,1.0332,1.1434,1.262,1.3331,1.3447,1.4454,1.4604,1.3801,1.4676,1.5738,1.6886,1.7307,1.8251,1.9663,2.048,2.1475,2.2623,2.3751,2.4804,2.582,2.6893,2.7937,2.8874,2.9275,2.9864,3.0538,3.0931,3.163,3.2448,3.3072,3.3605,3.4029,3.4281,3.4594,3.4945,3.5264,3.5446,3.5568,3.571,3.5764,3.5805,3.5833,3.5873,3.5898,3.5897,3.5918,3.5968,3.5991,3.5945,3.5875,3.5804,3.5811,3.5753,3.5611,3.5572,3.5542,3.5554,3.5451,3.5345,3.5345,3.5316,3.5239,3.5081,3.501,3.4964,3.4869,3.4772,3.4612,3.4334,3.4284,3.4148,3.3884,3.3703,3.3536,3.343,3.3208,3.322,3.3455,3.3286,3.3214,3.3198,3.3117,3.3101,3.3101,3.3073,3.3057,3.3024,3.2914,3.2834,3.2786,3.2705,3.2655,3.2606,3.2506,3.2421,3.2266,-0.6496,-0.5366,-0.4511,-0.4469,-0.308,-0.1917,-0.172,-0.1252,-0.047,0.0744,0.1057,0.18,0.3483,0.4139,0.5405,0.7736,0.8116,0.91,1.1106,1.1864,1.2408,1.2875,1.4415,1.5309,1.5397,1.7523,1.7508,1.5263,1.6123,1.7313,1.8765,1.8765,1.9932,2.2025,2.2595,2.3505,2.4666,2.5934,2.7049,2.8003,2.8722,2.9577,3.0464,3.0533,3.0807,3.1249,3.1969,3.2798,3.3602,3.3845,3.4157,3.4451,3.4605,3.499,3.5385,3.5451,3.5628,3.5819,3.5812,3.5823,3.5835,3.5897,3.5918,3.5917,3.5918,3.5966,3.5995,3.5968,3.5886,3.5771,3.5722,3.571,3.5663,3.5543,3.5469,3.5431,3.5438,3.534,3.5262,3.5254,3.5235,3.5155,3.4983,3.486,3.4742,3.4561,3.4405,3.4188,3.3931,3.3854,3.3715,3.3429,3.3433,3.3306,3.3086,3.307,3.3055,3.3055,3.3024,3.3039,3.307,3.307,3.3055,3.3055,3.2979,3.2932,3.2916,3.2655,3.2538,3.2521,3.2369,3.2301,3.2283,3.2214,3.2056,3.1802,-0.4758,-0.355,-0.2538,-0.2338,-0.1641,-0.0705,0.0313,0.0548,0.1252,0.3088,0.3361,0.3713,0.4691,0.6217,0.7618,0.8722,0.9793,1.1131,1.294,1.3295,1.4132,1.5685,1.6593,1.7332,1.7915,1.8926,1.8926,1.7881,1.9269,2.0331,2.1037,2.1037,2.2098,2.4034,2.4205,2.5325,2.7075,2.7674,2.8506,2.9472,3.0018,3.0727,3.1473,3.1933,3.2332,3.2661,3.3054,3.3628,3.4218,3.4413,3.4819,3.5244,3.5335,3.5485,3.5659,3.5725,3.5819,3.5882,3.5891,3.5896,3.5898,3.5966,3.5995,3.5989,3.5991,3.5999,3.5977,3.5852,3.582,3.5709,3.5417,3.5368,3.5325,3.5182,3.5168,3.5141,3.5151,3.5145,3.5119,3.5056,3.4992,3.4917,3.4839,3.4609,3.442,3.4351,3.4105,3.3841,3.3579,3.357,3.3433,3.316,3.3101,3.3057,3.3011,3.2963,3.2932,3.2932,3.2753,3.2786,3.3011,3.2948,3.2932,3.2916,3.2737,3.2655,3.2639,3.242,3.2335,3.2335,3.2318,3.2301,3.2249,3.1841,3.1376,3.0965,-0.2027,-0.0584,0.0623,0.07,0.148,0.2225,0.2773,0.2851,0.3203,0.4181,0.4789,0.5479,0.6409,0.8273,0.9959,1.1353,1.2035,1.3172,1.4909,1.5483,1.6288,1.7434,1.8301,1.9213,2.0222,2.1123,2.1749,2.2019,2.142,2.1822,2.3224,2.3224,2.4304,2.6257,2.6495,2.7393,2.8769,2.9271,2.9969,3.0801,3.1135,3.17,3.2349,3.2582,3.2988,3.3456,3.392,3.4344,3.4728,3.4966,3.5222,3.5483,3.562,3.5739,3.5812,3.5841,3.5872,3.5917,3.5951,3.5963,3.5935,3.5897,3.5892,3.5872,3.5794,3.5761,3.5725,3.5749,3.5687,3.5563,3.5332,3.5332,3.5304,3.5185,3.5168,3.5149,3.5117,3.5001,3.4879,3.4781,3.4751,3.4678,3.4528,3.4401,3.422,3.3884,3.372,3.35,3.325,3.3205,3.3114,3.2977,3.2963,3.29,3.277,3.2737,3.2672,3.2555,3.2471,3.2538,3.277,3.2639,3.2555,3.2573,3.2471,3.242,3.242,3.2266,3.2179,3.2179,3.2055,3.1984,3.1876,3.1674,3.1428,3.1176]}]]